[[[{"header":{"parameterUnit":"kt","parameterCategory":2,"dx":1,"dy":1,"la1":29.587661999999998,"la2":31.0,"lo1":-88.76705300000003,"lo2":-86.6583820000003,"nx":115,"ny":88,"refTime":"2022-10-25T18:00:00:Z","depth":0,"parameterNumber":1,"parameterNumberName":"U-component_of_WINDS"},"data":[-1.8811,-1.8488,-1.8203,-1.8086,-1.8086,-1.8086,-1.8086,-1.8086,-1.8086,-1.8086,-1.8086,-1.8086,-1.8086,-1.8086,-1.8086,-1.8086,-1.8086,-1.8086,-1.8086,-1.8086,-1.8086,-1.8086,-1.8086,-1.8086,-1.8086,-1.8086,-1.8086,-1.8086,-1.8086,-1.8086,-1.8086,-1.8086,-1.8086,-1.8086,-1.8086,-1.8086,-1.8086,-1.8086,-1.8086,-1.8086,-1.8086,-1.8086,-1.8086,-1.8545,-1.9024,-1.9834,-2.0919,-2.2214,-2.371,-2.5698,-2.8255,-3.0523,-3.1807,-3.2614,-3.2881,-3.2952,-3.2932,-3.2932,-3.2869,-3.2796,-3.2733,-3.2733,-3.2555,-3.224,-3.2061,-3.1736,-3.1736,-3.1862,-3.2051,-3.2607,-3.2796,-3.2985,-3.3048,-3.3048,-3.3111,-3.3435,-3.4011,-3.4335,-3.4649,-3.5025,-3.5451,-3.5889,-3.6349,-3.6473,-3.6711,-3.6774,-3.7085,-3.7085,-3.7135,-3.7135,-3.7135,-3.7135,-3.7135,-3.7135,-3.7198,-3.7198,-3.726,-3.7198,-3.7135,-3.7135,-3.7135,-3.7135,-3.7135,-3.7135,-3.7135,-3.7135,-3.7135,-3.7135,-3.7135,-3.7135,-3.7135,-3.7135,-3.7135,-3.7112,-3.6994,-1.8969,-1.8777,-1.8271,-1.8086,-1.8086,-1.8086,-1.8086,-1.8086,-1.8086,-1.8086,-1.8086,-1.8086,-1.8086,-1.8086,-1.8086,-1.8086,-1.8086,-1.8086,-1.8086,-1.8086,-1.8086,-1.8086,-1.8086,-1.8086,-1.8086,-1.8086,-1.8086,-1.8086,-1.8086,-1.8086,-1.8086,-1.8086,-1.8086,-1.8086,-1.8086,-1.8086,-1.8086,-1.8086,-1.8086,-1.8086,-1.8076,-1.8081,-1.8394,-1.8957,-1.9573,-2.0485,-2.1894,-2.3495,-2.5136,-2.7308,-2.9669,-3.1508,-3.265,-3.3243,-3.3275,-3.3131,-3.3048,-3.3048,-3.3048,-3.3048,-3.3048,-3.3048,-3.2985,-3.2922,-3.2869,-3.2744,-3.2744,-3.2796,-3.2796,-3.2985,-3.2985,-3.3048,-3.3048,-3.3048,-3.3173,-3.331,-3.4262,-3.5087,-3.5536,-3.5985,-3.6337,-3.6762,-3.6949,-3.6949,-3.7073,-3.7073,-3.7135,-3.7135,-3.7135,-3.7135,-3.726,-3.7322,-3.7571,-3.7458,-3.7272,-3.7334,-3.7458,-3.7446,-3.7384,-3.726,-3.7135,-3.7135,-3.7135,-3.7135,-3.7135,-3.7135,-3.7135,-3.7135,-3.7135,-3.7135,-3.7135,-3.7135,-3.7135,-3.7088,-3.6936,-1.8884,-1.8742,-1.8287,-1.8086,-1.8086,-1.8086,-1.8086,-1.8086,-1.8086,-1.8086,-1.8086,-1.8086,-1.8086,-1.8086,-1.8086,-1.8086,-1.8086,-1.8086,-1.8086,-1.8086,-1.8086,-1.8086,-1.8086,-1.8086,-1.8086,-1.8086,-1.8086,-1.8086,-1.8086,-1.8086,-1.8086,-1.8086,-1.8086,-1.8086,-1.8086,-1.8086,-1.8086,-1.8081,-1.8086,-1.8007,-1.7821,-1.7934,-1.82,-1.8948,-1.9733,-2.0705,-2.2233,-2.4151,-2.5844,-2.7957,-3.0229,-3.1838,-3.3134,-3.3535,-3.3498,-3.3205,-3.3048,-3.3048,-3.3048,-3.3048,-3.3048,-3.3048,-3.3048,-3.2985,-3.3048,-3.3048,-3.3048,-3.3048,-3.3048,-3.3048,-3.3048,-3.3048,-3.3048,-3.3247,-3.3372,-3.3686,-3.4461,-3.5349,-3.5974,-3.6423,-3.6774,-3.7135,-3.7135,-3.7135,-3.7135,-3.7135,-3.7135,-3.7135,-3.7135,-3.7135,-3.7384,-3.7633,-3.8192,-3.8266,-3.8029,-3.7967,-3.7893,-3.7757,-3.7757,-3.7571,-3.7322,-3.7198,-3.7135,-3.7135,-3.7135,-3.7135,-3.7135,-3.7135,-3.7135,-3.7135,-3.7135,-3.7135,-3.7135,-3.7112,-3.6774,-1.8867,-1.882,-1.8282,-1.8086,-1.8086,-1.8086,-1.8086,-1.8086,-1.8086,-1.8086,-1.8086,-1.8086,-1.8086,-1.8086,-1.8086,-1.8086,-1.8086,-1.8086,-1.8086,-1.8086,-1.8086,-1.8086,-1.8086,-1.8086,-1.8086,-1.8086,-1.8086,-1.8086,-1.8086,-1.8086,-1.8086,-1.8086,-1.8086,-1.8086,-1.8086,-1.8086,-1.8081,-1.8076,-1.8012,-1.78,-1.7637,-1.7637,-1.8084,-1.8964,-1.9865,-2.0923,-2.2883,-2.4772,-2.655,-2.8416,-3.0382,-3.1931,-3.3527,-3.3538,-3.3393,-3.3142,-3.3048,-3.3048,-3.3048,-3.3048,-3.3048,-3.3048,-3.3048,-3.3048,-3.3048,-3.3048,-3.3048,-3.3048,-3.3048,-3.3048,-3.3048,-3.3058,-3.3121,-3.3435,-3.3697,-3.4136,-3.4586,-3.5474,-3.6349,-3.6711,-3.7011,-3.7135,-3.7135,-3.7135,-3.7135,-3.7135,-3.7135,-3.7135,-3.7135,-3.7446,-3.7745,-3.8316,-3.8824,-3.9009,-3.8898,-3.8774,-3.8526,-3.839,-3.8328,-3.7943,-3.7509,-3.7509,-3.7509,-3.7322,-3.7198,-3.7135,-3.7135,-3.7198,-3.7198,-3.7135,-3.7135,-3.7135,-3.7135,-3.7645,-3.7012,-1.8867,-1.8825,-1.8358,-1.8086,-1.8086,-1.8086,-1.8086,-1.8086,-1.8086,-1.8086,-1.8086,-1.8086,-1.8086,-1.8086,-1.8086,-1.8086,-1.8086,-1.8086,-1.8086,-1.8086,-1.8086,-1.8086,-1.8086,-1.8086,-1.8086,-1.8086,-1.8086,-1.8086,-1.8086,-1.8086,-1.8086,-1.8086,-1.8086,-1.8086,-1.8086,-1.8086,-1.8023,-1.797,-1.7748,-1.7595,-1.7427,-1.7561,-1.8013,-1.9273,-2.0251,-2.1413,-2.3581,-2.5559,-2.7248,-2.9243,-3.0861,-3.1863,-3.2868,-3.3299,-3.3362,-3.3247,-3.3372,-3.3372,-3.3362,-3.331,-3.3184,-3.3111,-3.3048,-3.3121,-3.3121,-3.3121,-3.3048,-3.3048,-3.3048,-3.3048,-3.3048,-3.3048,-3.3372,-3.3697,-3.4136,-3.4638,-3.515,-3.59,-3.6587,-3.6898,-3.7135,-3.7135,-3.7135,-3.7135,-3.7135,-3.7135,-3.7135,-3.7198,-3.7384,-3.7869,-3.8316,-3.8898,-3.9319,-3.9504,-3.9517,-3.9578,-3.9257,-3.9084,-3.9022,-3.865,-3.813,-3.7943,-3.7807,-3.7757,-3.7707,-3.7458,-3.7384,-3.752,-3.7583,-3.752,-3.7509,-3.7322,-3.7583,-3.8278,-3.7977,-1.8867,-1.8804,-1.8282,-1.8086,-1.8086,-1.8086,-1.8086,-1.8086,-1.8086,-1.8086,-1.8086,-1.8086,-1.8086,-1.8086,-1.8086,-1.8086,-1.8086,-1.8086,-1.8086,-1.8086,-1.8086,-1.8086,-1.8086,-1.8086,-1.8086,-1.8086,-1.8086,-1.8086,-1.8086,-1.8086,-1.8086,-1.8086,-1.8086,-1.8086,-1.8065,-1.8028,-1.7928,-1.7664,-1.7506,-1.7337,-1.7278,-1.7255,-1.801,-1.9017,-2.017,-2.1783,-2.3819,-2.6282,-2.8016,-2.9839,-3.1736,-3.2744,-3.3383,-3.3989,-3.4178,-3.4115,-3.4126,-3.4115,-3.3989,-3.3875,-3.3697,-3.3498,-3.331,-3.331,-3.3383,-3.3247,-3.3121,-3.3048,-3.3048,-3.3048,-3.3048,-3.3111,-3.3561,-3.3948,-3.4513,-3.5076,-3.5775,-3.6462,-3.6774,-3.7073,-3.7135,-3.7135,-3.7135,-3.7135,-3.7135,-3.7135,-3.7198,-3.7384,-3.7881,-3.8427,-3.9071,-3.9578,-3.9813,-4.006,-4.0307,-4.043,-4.006,-3.9751,-3.9702,-3.9393,-3.8886,-3.8625,-3.8514,-3.839,-3.8216,-3.834,-3.8402,-3.8278,-3.8092,-3.8402,-3.8452,-3.839,-3.8576,-3.9022,-3.8947,-1.8809,-1.8814,-1.8287,-1.8086,-1.8086,-1.8086,-1.8086,-1.8086,-1.8086,-1.8086,-1.8086,-1.8086,-1.8086,-1.8086,-1.8086,-1.8086,-1.8086,-1.8086,-1.8086,-1.8086,-1.8086,-1.8086,-1.8086,-1.8086,-1.8086,-1.8086,-1.8086,-1.8086,-1.8086,-1.8086,-1.8086,-1.8086,-1.8086,-1.8018,-1.797,-1.7843,-1.7627,-1.741,-1.7258,-1.7156,-1.708,-1.6945,-1.7793,-1.8756,-1.9851,-2.1847,-2.4021,-2.6414,-2.8706,-3.0399,-3.224,-3.3498,-3.4136,-3.469,-3.4991,-3.4991,-3.5054,-3.4991,-3.4929,-3.4502,-3.4262,-3.4188,-3.376,-3.376,-3.3634,-3.3435,-3.3048,-3.3048,-3.3048,-3.3048,-3.3048,-3.3372,-3.3885,-3.4461,-3.5087,-3.5713,-3.6326,-3.6824,-3.6886,-3.7135,-3.7135,-3.7135,-3.7135,-3.7135,-3.7135,-3.7198,-3.7446,-3.8005,-3.8564,-3.9306,-3.9875,-4.0245,-4.0492,-4.054,-4.0848,-4.0848,-4.0615,-4.043,-4.0368,-4.0122,-3.9628,-3.9319,-3.9207,-3.9034,-3.8724,-3.8848,-3.9158,-3.8972,-3.865,-3.896,-3.9207,-3.9331,-3.9504,-3.9751,-3.976,-1.8588,-1.8783,-1.8282,-1.8086,-1.8086,-1.8086,-1.8086,-1.8086,-1.8086,-1.8086,-1.8086,-1.8086,-1.8086,-1.8086,-1.8086,-1.8086,-1.8086,-1.8086,-1.8086,-1.8086,-1.8086,-1.8086,-1.8086,-1.8086,-1.8086,-1.8086,-1.8086,-1.8086,-1.8086,-1.8086,-1.8086,-1.8086,-1.8049,-1.788,-1.7701,-1.7547,-1.7326,-1.7141,-1.7051,-1.695,-1.6959,-1.6885,-1.7713,-1.8739,-2.0001,-2.1985,-2.4288,-2.6597,-2.896,-3.1051,-3.2744,-3.3812,-3.4553,-3.4991,-3.4991,-3.5054,-3.5179,-3.5242,-3.5253,-3.519,-3.5003,-3.5076,-3.4513,-3.4136,-3.3948,-3.3624,-3.3247,-3.3121,-3.3048,-3.3048,-3.3121,-3.3624,-3.4136,-3.4826,-3.5525,-3.615,-3.6762,-3.7011,-3.7135,-3.7135,-3.7135,-3.7135,-3.7135,-3.7135,-3.7198,-3.7446,-3.8005,-3.8564,-3.9244,-3.9986,-4.043,-4.0799,-4.0848,-4.0958,-4.0958,-4.0958,-4.0787,-4.0725,-4.0663,-4.0602,-4.0368,-3.9998,-3.9887,-3.9702,-3.9344,-3.9282,-3.9578,-3.9517,-3.9344,-3.9344,-3.9578,-3.9751,-4.0232,-4.0479,-4.0466,-1.8493,-1.8525,-1.8219,-1.8086,-1.8086,-1.8086,-1.8086,-1.8086,-1.8086,-1.8086,-1.8086,-1.8086,-1.8086,-1.8086,-1.8086,-1.8086,-1.8086,-1.8086,-1.8086,-1.8086,-1.8086,-1.8086,-1.8086,-1.8086,-1.8086,-1.8086,-1.8086,-1.8086,-1.8086,-1.8086,-1.8086,-1.8049,-1.7938,-1.7637,-1.741,-1.7236,-1.7061,-1.6908,-1.6975,-1.6846,-1.6923,-1.7274,-1.7862,-1.8974,-2.0453,-2.2306,-2.4728,-2.7162,-2.9541,-3.1692,-3.3446,-3.4826,-3.5588,-3.615,-3.6439,-3.6388,-3.6388,-3.6376,-3.6138,-3.6014,-3.5951,-3.6138,-3.5775,-3.5213,-3.4627,-3.4063,-3.3624,-3.3247,-3.3048,-3.3048,-3.3184,-3.3697,-3.4262,-3.494,-3.5639,-3.6337,-3.6898,-3.7011,-3.7135,-3.7135,-3.7135,-3.7135,-3.7135,-3.7198,-3.7446,-3.8067,-3.8625,-3.9244,-3.9862,-4.0417,-4.0861,-4.091,-4.0958,-4.102,-4.102,-4.102,-4.102,-4.102,-4.0958,-4.0897,-4.0663,-4.0479,-4.0492,-4.0368,-4.0245,-4.0122,-4.0183,-4.0245,-4.0245,-4.0245,-4.0122,-4.0356,-4.0835,-4.0897,-4.0835,-1.8366,-1.8419,-1.8182,-1.8086,-1.8086,-1.8086,-1.8086,-1.8086,-1.8086,-1.8086,-1.8086,-1.8086,-1.8086,-1.8086,-1.8086,-1.8086,-1.8086,-1.8086,-1.8086,-1.8086,-1.8086,-1.8086,-1.8086,-1.8086,-1.8086,-1.8086,-1.8086,-1.8086,-1.8086,-1.8086,-1.8086,-1.8028,-1.7806,-1.7474,-1.7246,-1.6956,-1.6942,-1.6788,-1.6951,-1.7015,-1.7145,-1.7733,-1.858,-1.962,-2.0968,-2.2884,-2.5303,-2.7599,-2.9966,-3.2313,-3.3937,-3.5326,-3.6399,-3.6723,-3.7011,-3.7073,-3.7085,-3.7135,-3.696,-3.6836,-3.6723,-3.6723,-3.6411,-3.5775,-3.5389,-3.4763,-3.4251,-3.3927,-3.3864,-3.3864,-3.3812,-3.4325,-3.4712,-3.5389,-3.594,-3.6649,-3.6898,-3.7073,-3.7135,-3.7135,-3.7135,-3.7135,-3.726,-3.7384,-3.8067,-3.8749,-3.9244,-3.9875,-4.0356,-4.0787,-4.0971,-4.0958,-4.102,-4.102,-4.102,-4.102,-4.102,-4.102,-4.102,-4.102,-4.102,-4.0897,-4.0848,-4.0725,-4.0848,-4.0958,-4.0787,-4.0663,-4.0897,-4.102,-4.0787,-4.0835,-4.0773,-4.0682,-4.0708,-1.8224,-1.847,-1.8182,-1.8086,-1.8086,-1.8086,-1.8086,-1.8086,-1.8086,-1.8086,-1.8086,-1.8086,-1.8086,-1.8086,-1.8086,-1.8086,-1.8086,-1.8086,-1.8086,-1.8086,-1.8086,-1.8086,-1.8086,-1.8086,-1.8086,-1.8086,-1.8086,-1.8086,-1.8086,-1.8086,-1.8086,-1.8023,-1.7748,-1.749,-1.7285,-1.6924,-1.6777,-1.6886,-1.7528,-1.7663,-1.7921,-1.8444,-1.942,-2.0453,-2.1606,-2.3334,-2.575,-2.8044,-3.0326,-3.2555,-3.424,-3.5565,-3.6774,-3.7085,-3.7147,-3.7135,-3.7135,-3.7135,-3.7135,-3.7135,-3.7073,-3.7011,-3.6711,-3.6224,-3.5974,-3.5525,-3.494,-3.4553,-3.4679,-3.4804,-3.5128,-3.5525,-3.5724,-3.615,-3.6575,-3.7073,-3.7073,-3.7135,-3.7135,-3.7135,-3.7135,-3.7198,-3.7384,-3.7757,-3.8625,-3.9244,-3.9813,-4.0294,-4.0712,-4.0958,-4.0958,-4.102,-4.102,-4.102,-4.102,-4.102,-4.102,-4.102,-4.102,-4.102,-4.102,-4.102,-4.102,-4.0958,-4.102,-4.102,-4.102,-4.102,-4.102,-4.102,-4.102,-4.0877,-4.0448,-4.0249,-4.0007,-1.8129,-1.8176,-1.8113,-1.8086,-1.8086,-1.8086,-1.8086,-1.8086,-1.8086,-1.8086,-1.8086,-1.8086,-1.8086,-1.8086,-1.8086,-1.8086,-1.8086,-1.8086,-1.8086,-1.8086,-1.8086,-1.8086,-1.8086,-1.8086,-1.8086,-1.8086,-1.8086,-1.8086,-1.8086,-1.8086,-1.8055,-1.7938,-1.7643,-1.7415,-1.7274,-1.7308,-1.7668,-1.8062,-1.845,-1.845,-1.858,-1.9226,-2.0065,-2.0897,-2.2506,-2.4295,-2.6269,-2.8552,-3.0832,-3.2733,-3.4303,-3.5628,-3.6563,-3.7135,-3.7135,-3.7135,-3.7135,-3.7135,-3.7135,-3.7135,-3.7135,-3.7135,-3.6836,-3.6598,-3.6298,-3.5974,-3.5576,-3.5253,-3.5054,-3.4991,-3.4991,-3.5775,-3.6224,-3.6411,-3.6898,-3.7135,-3.7135,-3.7135,-3.7135,-3.7135,-3.7135,-3.7135,-3.7384,-3.7683,-3.8502,-3.9133,-3.9813,-4.054,-4.0897,-4.102,-4.102,-4.102,-4.102,-4.102,-4.102,-4.102,-4.102,-4.102,-4.102,-4.102,-4.102,-4.102,-4.102,-4.102,-4.102,-4.102,-4.102,-4.102,-4.102,-4.102,-4.0942,-4.0864,-4.0396,-3.9799,-3.9539,-1.8086,-1.8086,-1.8086,-1.8086,-1.8086,-1.8086,-1.8086,-1.8086,-1.8086,-1.8086,-1.8086,-1.8086,-1.8086,-1.8086,-1.8086,-1.8086,-1.8086,-1.8086,-1.8086,-1.8086,-1.8086,-1.8086,-1.8086,-1.8086,-1.8081,-1.8086,-1.8086,-1.8086,-1.8071,-1.8086,-1.8023,-1.7897,-1.7707,-1.7527,-1.769,-1.7944,-1.8344,-1.878,-1.9038,-1.9167,-1.9426,-2.0065,-2.1033,-2.1992,-2.3854,-2.5447,-2.7162,-2.9386,-3.1347,-3.3121,-3.4366,-3.569,-3.6886,-3.7073,-3.7135,-3.7135,-3.7135,-3.7135,-3.7135,-3.7135,-3.7135,-3.7135,-3.7073,-3.696,-3.666,-3.6536,-3.6212,-3.6014,-3.5877,-3.6002,-3.5877,-3.6212,-3.6536,-3.6649,-3.6836,-3.7073,-3.7135,-3.7135,-3.7135,-3.7135,-3.7135,-3.7135,-3.7372,-3.7745,-3.8316,-3.9022,-3.9937,-4.0663,-4.0848,-4.102,-4.102,-4.102,-4.102,-4.102,-4.102,-4.102,-4.102,-4.102,-4.102,-4.102,-4.102,-4.102,-4.102,-4.102,-4.102,-4.102,-4.102,-4.102,-4.102,-4.102,-4.0942,-4.076,-4.0176,-3.9513,-3.9007,-1.8086,-1.8086,-1.8086,-1.8086,-1.8086,-1.8086,-1.8086,-1.8086,-1.8086,-1.8086,-1.8086,-1.8086,-1.8086,-1.8086,-1.8086,-1.8086,-1.8086,-1.8086,-1.8086,-1.8086,-1.8086,-1.8086,-1.8086,-1.8076,-1.8071,-1.8039,-1.8012,-1.7937,-1.8012,-1.8121,-1.7986,-1.7551,-1.8088,-1.8143,-1.8248,-1.8555,-1.8986,-1.9103,-1.9807,-2.0065,-2.0582,-2.1355,-2.2513,-2.3854,-2.5383,-2.7043,-2.8897,-3.0472,-3.2177,-3.3771,-3.4763,-3.5889,-3.6886,-3.7073,-3.7135,-3.7135,-3.7135,-3.7135,-3.7135,-3.7135,-3.7135,-3.7135,-3.7135,-3.7073,-3.696,-3.7085,-3.7085,-3.6886,-3.6688,-3.6824,-3.6949,-3.7135,-3.696,-3.7011,-3.7011,-3.7135,-3.7135,-3.7135,-3.7135,-3.7135,-3.7135,-3.7135,-3.7322,-3.7745,-3.8316,-3.9022,-3.9875,-4.0553,-4.0725,-4.0971,-4.0958,-4.102,-4.102,-4.102,-4.102,-4.102,-4.102,-4.102,-4.102,-4.102,-4.102,-4.102,-4.102,-4.102,-4.102,-4.102,-4.102,-4.102,-4.102,-4.102,-4.0864,-4.0491,-4.0046,-3.95,-3.8851,-1.8086,-1.8086,-1.8086,-1.8086,-1.8086,-1.8086,-1.8086,-1.8086,-1.8086,-1.8086,-1.8086,-1.8086,-1.8086,-1.8086,-1.8086,-1.8086,-1.8086,-1.8086,-1.8086,-1.8086,-1.8086,-1.8086,-1.8076,-1.8055,-1.7986,-1.7764,-1.7923,-1.7807,-1.7979,-1.8421,-1.8839,-1.8663,-1.8686,-1.8725,-1.8845,-1.9269,-1.9678,-1.9743,-2.071,-2.1484,-2.2127,-2.2899,-2.3798,-2.4943,-2.6405,-2.7934,-2.9151,-3.1167,-3.2817,-3.421,-3.515,-3.6138,-3.6949,-3.7135,-3.7135,-3.7135,-3.7135,-3.7135,-3.7135,-3.7135,-3.7135,-3.7135,-3.7135,-3.7135,-3.7135,-3.7135,-3.7135,-3.7135,-3.7135,-3.7135,-3.7135,-3.7135,-3.7135,-3.7135,-3.7135,-3.7135,-3.7135,-3.7135,-3.7135,-3.7135,-3.7135,-3.7135,-3.7322,-3.7757,-3.8316,-3.896,-3.964,-4.0307,-4.0676,-4.0971,-4.0971,-4.102,-4.102,-4.102,-4.102,-4.102,-4.102,-4.102,-4.102,-4.102,-4.102,-4.102,-4.102,-4.102,-4.102,-4.102,-4.102,-4.102,-4.102,-4.102,-4.0929,-4.0427,-3.9921,-3.9493,-3.8884,-1.8086,-1.8086,-1.8086,-1.8086,-1.8086,-1.8086,-1.8086,-1.8086,-1.8086,-1.8086,-1.8086,-1.8086,-1.8086,-1.8086,-1.8086,-1.8086,-1.8086,-1.8086,-1.8086,-1.8086,-1.8086,-1.8086,-1.806,-1.7981,-1.8179,-1.8098,-1.8116,-1.7926,-1.8255,-1.8804,-1.9094,-1.8928,-1.9172,-1.936,-1.9339,-2.0201,-2.0517,-2.0962,-2.1734,-2.2635,-2.3413,-2.4303,-2.5319,-2.6286,-2.7689,-2.9268,-3.0662,-3.2482,-3.3498,-3.4962,-3.5536,-3.6462,-3.696,-3.7135,-3.7135,-3.7135,-3.7135,-3.7135,-3.7135,-3.7135,-3.7135,-3.7135,-3.7135,-3.7135,-3.7135,-3.7135,-3.7135,-3.7135,-3.7135,-3.7135,-3.7135,-3.7135,-3.7135,-3.7135,-3.7135,-3.7135,-3.7135,-3.7135,-3.7135,-3.7135,-3.7135,-3.7135,-3.726,-3.7509,-3.7819,-3.8514,-3.9133,-3.9813,-4.0307,-4.0799,-4.0971,-4.102,-4.102,-4.102,-4.102,-4.102,-4.102,-4.102,-4.102,-4.102,-4.102,-4.102,-4.102,-4.102,-4.102,-4.102,-4.102,-4.102,-4.102,-4.102,-4.102,-4.0297,-3.9649,-3.926,-3.8897,-1.8086,-1.8086,-1.8086,-1.8086,-1.8086,-1.8086,-1.8086,-1.8086,-1.8086,-1.8086,-1.8086,-1.8086,-1.8086,-1.8086,-1.8086,-1.8086,-1.8086,-1.8086,-1.8086,-1.8157,-1.8292,-1.8346,-1.8147,-1.7971,-1.8506,-1.8642,-1.8569,-1.8767,-1.916,-1.9187,-1.9192,-1.9327,-1.9793,-2.0001,-2.0265,-2.1026,-2.1806,-2.212,-2.277,-2.3541,-2.4303,-2.5703,-2.6971,-2.8053,-2.9268,-3.0608,-3.2356,-3.3372,-3.4314,-3.5912,-3.6161,-3.6536,-3.7023,-3.7135,-3.7135,-3.7135,-3.7135,-3.7135,-3.7135,-3.7135,-3.7135,-3.7135,-3.7135,-3.7135,-3.7135,-3.7135,-3.7135,-3.7135,-3.7135,-3.7135,-3.7135,-3.7135,-3.7135,-3.7135,-3.7135,-3.7135,-3.7135,-3.7135,-3.7135,-3.7135,-3.7135,-3.7135,-3.7135,-3.726,-3.7384,-3.8005,-3.8687,-3.9381,-3.9998,-4.0676,-4.0971,-4.0958,-4.102,-4.102,-4.102,-4.102,-4.102,-4.102,-4.102,-4.102,-4.102,-4.102,-4.102,-4.102,-4.102,-4.102,-4.102,-4.102,-4.102,-4.102,-4.102,-4.0336,-3.9506,-3.913,-3.8884,-1.8086,-1.8086,-1.8086,-1.8086,-1.8086,-1.8086,-1.8086,-1.8086,-1.8086,-1.8086,-1.8086,-1.8086,-1.8086,-1.8086,-1.8086,-1.8086,-1.8086,-1.8076,-1.8135,-1.82,-1.8674,-1.8865,-1.8893,-1.9033,-1.9186,-1.911,-1.9062,-1.9464,-2.0116,-2.0259,-2.0317,-2.0324,-2.0453,-2.0833,-2.1284,-2.1734,-2.2506,-2.3277,-2.4118,-2.4879,-2.5894,-2.7361,-2.8833,-2.9703,-3.1357,-3.2366,-3.3372,-3.4513,-3.5588,-3.6161,-3.666,-3.696,-3.7073,-3.7135,-3.7135,-3.7135,-3.7135,-3.7135,-3.7135,-3.7135,-3.7135,-3.7135,-3.7135,-3.7135,-3.7135,-3.7135,-3.7135,-3.7135,-3.7135,-3.7135,-3.7135,-3.7135,-3.7135,-3.7135,-3.7135,-3.7135,-3.7135,-3.7135,-3.7135,-3.7135,-3.7135,-3.7135,-3.7135,-3.7198,-3.7322,-3.7881,-3.844,-3.9071,-3.969,-4.043,-4.0848,-4.091,-4.102,-4.102,-4.102,-4.102,-4.102,-4.102,-4.102,-4.102,-4.102,-4.102,-4.102,-4.102,-4.102,-4.102,-4.102,-4.102,-4.102,-4.102,-4.102,-4.053,-3.9662,-3.9156,-3.8812,-1.8086,-1.8086,-1.8086,-1.8086,-1.8086,-1.8086,-1.8086,-1.8086,-1.8086,-1.8086,-1.8086,-1.8086,-1.8086,-1.8086,-1.8086,-1.8086,-1.8184,-1.8271,-1.8409,-1.8579,-1.9044,-1.9245,-1.9221,-1.9262,-1.9446,-1.967,-1.9809,-2.0251,-2.0788,-2.0839,-2.0768,-2.0839,-2.0839,-2.1162,-2.1741,-2.2442,-2.3413,-2.4439,-2.5711,-2.6724,-2.7552,-2.8688,-3.0282,-3.142,-3.2807,-3.3823,-3.4513,-3.5849,-3.6286,-3.666,-3.696,-3.7073,-3.7135,-3.7135,-3.7135,-3.7135,-3.7135,-3.7135,-3.7135,-3.7135,-3.7135,-3.7135,-3.7135,-3.7135,-3.7135,-3.7135,-3.7135,-3.7135,-3.7135,-3.7135,-3.7135,-3.7135,-3.7135,-3.7135,-3.7135,-3.7135,-3.7135,-3.7135,-3.7135,-3.7135,-3.7135,-3.7135,-3.7135,-3.7198,-3.7322,-3.7707,-3.8204,-3.8824,-3.9455,-4.006,-4.0602,-4.0725,-4.102,-4.102,-4.102,-4.102,-4.102,-4.102,-4.102,-4.102,-4.102,-4.102,-4.102,-4.102,-4.102,-4.102,-4.102,-4.102,-4.102,-4.102,-4.0942,-4.0669,-3.9791,-3.9078,-3.8656,-1.8055,-1.8086,-1.8086,-1.8086,-1.8086,-1.8086,-1.8086,-1.8086,-1.8086,-1.8086,-1.8086,-1.8081,-1.8065,-1.8023,-1.8028,-1.8061,-1.8297,-1.8665,-1.8925,-1.9022,-1.9508,-1.9686,-1.9615,-1.9731,-1.9897,-2.0305,-2.0549,-2.0679,-2.0839,-2.0839,-2.0839,-2.0839,-2.0839,-2.129,-2.2192,-2.3213,-2.4247,-2.5711,-2.7115,-2.8452,-2.9395,-3.0399,-3.1536,-3.3173,-3.4074,-3.4962,-3.5849,-3.6224,-3.6524,-3.7011,-3.7135,-3.7135,-3.7135,-3.7135,-3.7135,-3.7135,-3.7135,-3.7135,-3.7135,-3.7135,-3.7135,-3.7135,-3.7135,-3.7135,-3.7135,-3.7135,-3.7135,-3.7135,-3.7135,-3.7135,-3.7135,-3.7135,-3.7135,-3.7135,-3.7135,-3.7135,-3.7135,-3.7135,-3.7135,-3.7135,-3.7135,-3.7135,-3.7135,-3.7198,-3.726,-3.7446,-3.8005,-3.8564,-3.9195,-3.9813,-4.0356,-4.0725,-4.0958,-4.102,-4.102,-4.102,-4.102,-4.102,-4.102,-4.102,-4.102,-4.102,-4.102,-4.102,-4.102,-4.102,-4.102,-4.102,-4.102,-4.102,-4.0877,-4.0708,-4.0059,-3.935,-3.8838,-1.7917,-1.8086,-1.8086,-1.8081,-1.8086,-1.8081,-1.8086,-1.8086,-1.8086,-1.8076,-1.8081,-1.8086,-1.7954,-1.7838,-1.7801,-1.8023,-1.8443,-1.9026,-1.9353,-1.947,-2.0035,-2.0174,-2.0236,-2.04,-2.0685,-2.0724,-2.0788,-2.0775,-2.0839,-2.0839,-2.0839,-2.0839,-2.0839,-2.1484,-2.2578,-2.3605,-2.5007,-2.7051,-2.8325,-2.9595,-3.124,-3.2104,-3.3111,-3.4502,-3.5338,-3.5974,-3.6224,-3.666,-3.696,-3.7135,-3.7135,-3.7135,-3.7135,-3.7135,-3.7135,-3.7135,-3.7135,-3.7135,-3.7135,-3.7135,-3.7135,-3.7135,-3.7135,-3.7135,-3.7135,-3.7135,-3.7135,-3.7135,-3.7135,-3.7135,-3.7135,-3.7135,-3.7135,-3.7135,-3.7135,-3.7135,-3.7135,-3.7135,-3.7135,-3.7135,-3.7135,-3.7135,-3.7135,-3.7135,-3.7135,-3.726,-3.7819,-3.8378,-3.9009,-3.9628,-4.0232,-4.0663,-4.0897,-4.102,-4.102,-4.102,-4.102,-4.102,-4.102,-4.102,-4.102,-4.102,-4.102,-4.102,-4.102,-4.102,-4.102,-4.102,-4.102,-4.102,-4.0903,-4.0682,-4.0241,-3.9695,-3.9156,-1.7558,-1.7664,-1.7785,-1.7843,-1.7858,-1.8034,-1.8086,-1.8086,-1.8086,-1.8023,-1.7933,-1.7912,-1.7987,-1.8046,-1.8103,-1.8467,-1.8963,-1.9344,-1.9609,-1.9937,-2.0378,-2.0658,-2.066,-2.0829,-2.0926,-2.0872,-2.0839,-2.0839,-2.0839,-2.0839,-2.0839,-2.0839,-2.0839,-2.1612,-2.2835,-2.3983,-2.5639,-2.7743,-2.9341,-3.0861,-3.2376,-3.3247,-3.4199,-3.5463,-3.6275,-3.666,-3.666,-3.696,-3.7073,-3.7135,-3.7135,-3.7135,-3.7135,-3.7135,-3.7135,-3.7135,-3.7135,-3.7135,-3.7135,-3.7135,-3.7135,-3.7135,-3.7135,-3.7135,-3.7135,-3.7135,-3.7135,-3.7135,-3.7135,-3.7135,-3.7135,-3.7135,-3.7135,-3.7135,-3.7135,-3.7135,-3.7135,-3.7135,-3.7135,-3.7135,-3.7135,-3.7135,-3.7135,-3.7135,-3.7135,-3.7135,-3.7633,-3.813,-3.8762,-3.9442,-4.0109,-4.0725,-4.0897,-4.102,-4.102,-4.102,-4.102,-4.102,-4.102,-4.102,-4.102,-4.102,-4.102,-4.102,-4.102,-4.102,-4.102,-4.102,-4.102,-4.102,-4.0929,-4.0669,-4.0379,-3.9944,-3.9456,-1.729,-1.7348,-1.7532,-1.7611,-1.7643,-1.7795,-1.7933,-1.7923,-1.7928,-1.7743,-1.7711,-1.7817,-1.8087,-1.8395,-1.8529,-1.8964,-1.941,-1.9526,-1.9822,-2.0317,-2.0666,-2.0788,-2.0853,-2.0795,-2.0846,-2.0839,-2.0839,-2.0839,-2.0839,-2.0839,-2.0839,-2.0839,-2.0904,-2.1548,-2.2956,-2.4224,-2.5878,-2.7934,-3.0029,-3.1619,-3.2869,-3.3634,-3.4524,-3.565,-3.6462,-3.6898,-3.7073,-3.7135,-3.703,-3.6877,-3.671,-3.6689,-3.6701,-3.6724,-3.6783,-3.6853,-3.6936,-3.7018,-3.7112,-3.7135,-3.7135,-3.7135,-3.7135,-3.7135,-3.7135,-3.7135,-3.7135,-3.7135,-3.7135,-3.7135,-3.7135,-3.7135,-3.7135,-3.7135,-3.7135,-3.7135,-3.7135,-3.7135,-3.7135,-3.7135,-3.7135,-3.7135,-3.7135,-3.7135,-3.7135,-3.7135,-3.7446,-3.7955,-3.8576,-3.9207,-3.9998,-4.0848,-4.0971,-4.102,-4.102,-4.102,-4.102,-4.102,-4.102,-4.102,-4.102,-4.102,-4.102,-4.102,-4.102,-4.102,-4.102,-4.102,-4.102,-4.102,-4.0981,-4.0825,-4.0626,-4.0233,-3.9816,-1.7209,-1.7332,-1.7296,-1.7369,-1.7374,-1.7395,-1.7453,-1.7416,-1.7448,-1.7416,-1.7577,-1.8113,-1.8306,-1.8137,-1.8859,-1.9274,-1.9796,-1.9852,-2.0173,-2.0537,-2.0743,-2.0839,-2.0839,-2.0839,-2.0839,-2.0839,-2.0839,-2.0839,-2.0839,-2.0839,-2.0839,-2.0839,-2.0839,-2.1606,-2.2892,-2.4216,-2.5942,-2.7998,-2.9975,-3.1619,-3.2807,-3.3509,-3.4167,-3.501,-3.5736,-3.6245,-3.6708,-3.6944,-3.6651,-3.5783,-3.5724,-3.5818,-3.5854,-3.5759,-3.5947,-3.6299,-3.6477,-3.6654,-3.7006,-3.7065,-3.71,-3.7135,-3.7135,-3.7135,-3.7135,-3.7135,-3.7135,-3.7135,-3.7135,-3.7135,-3.7135,-3.7135,-3.7135,-3.7135,-3.7135,-3.7135,-3.7135,-3.7135,-3.7135,-3.7135,-3.7135,-3.7135,-3.7135,-3.7135,-3.7135,-3.7135,-3.7633,-3.8142,-3.8762,-3.9381,-4.0122,-4.0861,-4.0971,-4.102,-4.102,-4.102,-4.102,-4.102,-4.102,-4.102,-4.102,-4.102,-4.102,-4.102,-4.102,-4.102,-4.102,-4.102,-4.102,-4.102,-4.102,-4.0968,-4.0973,-4.0675,-4.0719,-1.6898,-1.6998,-1.7141,-1.7199,-1.7215,-1.7274,-1.7332,-1.7332,-1.7327,-1.7465,-1.7743,-1.8127,-1.8583,-1.9076,-1.939,-1.9836,-2.033,-2.0388,-2.0575,-2.0839,-2.0839,-2.0839,-2.0839,-2.0839,-2.0839,-2.0839,-2.0839,-2.0839,-2.0839,-2.0839,-2.0839,-2.0839,-2.0839,-2.1548,-2.2877,-2.4288,-2.5942,-2.7862,-2.9668,-3.1124,-3.2376,-3.2764,-3.3329,-3.3996,-3.4385,-3.4672,-3.5071,-3.5463,-3.5473,-3.5186,-3.5369,-3.5571,-3.5571,-3.5571,-3.5654,-3.5841,-3.5888,-3.6088,-3.6571,-3.6712,-3.683,-3.7065,-3.7135,-3.7135,-3.7135,-3.7135,-3.7135,-3.7135,-3.7135,-3.7135,-3.7135,-3.7135,-3.7135,-3.7135,-3.7135,-3.7135,-3.7135,-3.7135,-3.7135,-3.7135,-3.7135,-3.7135,-3.7135,-3.7135,-3.7135,-3.726,-3.7695,-3.8378,-3.8947,-3.9628,-4.0245,-4.0725,-4.102,-4.102,-4.102,-4.102,-4.102,-4.102,-4.102,-4.102,-4.102,-4.102,-4.102,-4.102,-4.102,-4.102,-4.102,-4.102,-4.102,-4.102,-4.102,-4.1029,-4.134,-4.1309,-4.153,-1.6639,-1.6777,-1.6882,-1.7021,-1.6982,-1.713,-1.7137,-1.7209,-1.7332,-1.7618,-1.8036,-1.8396,-1.9088,-1.9761,-2.0007,-2.0324,-2.071,-2.0768,-2.0839,-2.0839,-2.0839,-2.0839,-2.0839,-2.0839,-2.0839,-2.0839,-2.0839,-2.0839,-2.0839,-2.0839,-2.0839,-2.0839,-2.0754,-2.1284,-2.2484,-2.3654,-2.5284,-2.6869,-2.8577,-3.0009,-3.0875,-3.1239,-3.1843,-3.2506,-3.2668,-3.2874,-3.3197,-3.3802,-3.4012,-3.3645,-3.437,-3.4972,-3.509,-3.5079,-3.5137,-3.5361,-3.536,-3.5631,-3.6017,-3.6252,-3.6548,-3.69,-3.7041,-3.7135,-3.7135,-3.7135,-3.7135,-3.7135,-3.7135,-3.7135,-3.7135,-3.7135,-3.7135,-3.7135,-3.7135,-3.7135,-3.7135,-3.7135,-3.7135,-3.7135,-3.7135,-3.7135,-3.7135,-3.7135,-3.7135,-3.726,-3.7881,-3.8625,-3.9133,-3.9764,-4.0553,-4.091,-4.102,-4.102,-4.102,-4.102,-4.1007,-4.1007,-4.0877,-4.0799,-4.0556,-4.0682,-4.0812,-4.0919,-4.088,-4.1007,-4.102,-4.102,-4.102,-4.102,-4.1143,-4.1437,-4.172,-4.2175,-4.2442,-1.6507,-1.6686,-1.6713,-1.6728,-1.6739,-1.6755,-1.6787,-1.6885,-1.7345,-1.767,-1.8032,-1.9022,-1.9709,-1.9949,-2.0453,-2.0646,-2.0839,-2.0839,-2.0839,-2.0839,-2.08,-2.0787,-2.0773,-2.0747,-2.0727,-2.076,-2.0703,-2.0787,-2.0734,-2.0683,-2.0839,-2.0741,-2.053,-2.0796,-2.1644,-2.2558,-2.3588,-2.473,-2.6856,-2.8108,-2.8344,-2.9414,-3.0075,-3.0167,-3.0702,-3.1194,-3.1671,-3.2249,-3.1998,-3.1069,-3.2368,-3.3498,-3.4014,-3.4082,-3.4387,-3.4832,-3.4856,-3.5138,-3.556,-3.5972,-3.6289,-3.6369,-3.6733,-3.7135,-3.7088,-3.7088,-3.7135,-3.7135,-3.7135,-3.7135,-3.7135,-3.7135,-3.7135,-3.7135,-3.7135,-3.7135,-3.7135,-3.7135,-3.7135,-3.7135,-3.7135,-3.7135,-3.7135,-3.7135,-3.7135,-3.7322,-3.8204,-3.8774,-3.9269,-3.9998,-4.0799,-4.0971,-4.102,-4.102,-4.102,-4.1007,-4.0942,-4.0812,-4.0474,-4.0115,-3.9778,-4.0072,-4.0267,-4.0643,-4.079,-4.0893,-4.102,-4.102,-4.102,-4.1204,-4.1511,-4.1818,-4.2342,-4.3021,-4.3394,-1.5382,-1.5851,-1.6052,-1.6308,-1.6692,-1.6756,-1.6756,-1.6756,-1.701,-1.7598,-1.8386,-1.9038,-1.9614,-2.0388,-2.071,-2.0839,-2.0839,-2.0839,-2.0839,-2.082,-2.0661,-2.0563,-2.0543,-2.0398,-2.0299,-2.0299,-2.0299,-2.0299,-2.0305,-2.0299,-2.0368,-2.0299,-2.0256,-2.0508,-2.1171,-2.1924,-2.2904,-2.3947,-2.5346,-2.6288,-2.6776,-2.7498,-2.8046,-2.8293,-2.8863,-2.9273,-2.9547,-2.9547,-2.9621,-2.9927,-3.072,-3.1996,-3.3257,-3.3428,-3.3669,-3.4177,-3.435,-3.4492,-3.5032,-3.5326,-3.5454,-3.5865,-3.6311,-3.6592,-3.6651,-3.7006,-3.7124,-3.7135,-3.7124,-3.7135,-3.7135,-3.7135,-3.7135,-3.7135,-3.7124,-3.7135,-3.7135,-3.7135,-3.7135,-3.7135,-3.7135,-3.7135,-3.7135,-3.7135,-3.7135,-3.7334,-3.8278,-3.9096,-3.9344,-4.0258,-4.0663,-4.0958,-4.102,-4.102,-4.102,-4.0955,-4.0877,-4.0362,-3.9934,-3.9493,-3.9156,-3.9461,-3.9682,-3.9973,-4.0349,-4.0414,-4.0734,-4.0799,-4.0982,-4.1498,-4.1818,-4.2254,-4.2797,-4.3541,-4.3709,-1.3911,-1.4422,-1.4759,-1.5195,-1.5643,-1.5899,-1.595,-1.6001,-1.6521,-1.7209,-1.8121,-1.865,-1.9491,-2.0324,-2.0517,-2.0646,-2.0755,-2.0195,-1.999,-1.9951,-1.9974,-1.9946,-1.9976,-2.0013,-2.0044,-2.0044,-2.0044,-2.0044,-2.0057,-2.0057,-2.0044,-2.0018,-1.9897,-2.0096,-2.0512,-2.1073,-2.1745,-2.2707,-2.3623,-2.4416,-2.4951,-2.5553,-2.6032,-2.6439,-2.7071,-2.7314,-2.7218,-2.7257,-2.7713,-2.8457,-2.944,-3.0777,-3.2157,-3.2501,-3.2902,-3.36,-3.3702,-3.3934,-3.4469,-3.4715,-3.5008,-3.5302,-3.5783,-3.6041,-3.6135,-3.6442,-3.6607,-3.6642,-3.6818,-3.69,-3.6936,-3.703,-3.7053,-3.6924,-3.69,-3.6924,-3.7088,-3.7135,-3.7135,-3.7135,-3.7135,-3.7135,-3.7135,-3.7135,-3.7198,-3.7509,-3.8402,-3.9207,-3.9455,-4.0368,-4.0971,-4.0958,-4.102,-4.102,-4.0903,-4.0786,-4.0111,-3.9248,-3.9116,-3.8942,-3.8773,-3.8838,-3.8949,-3.9221,-3.961,-3.9968,-4.0327,-4.0539,-4.0749,-4.1143,-4.1705,-4.237,-4.3138,-4.3403,-4.3505,-1.2042,-1.232,-1.2947,-1.3236,-1.3432,-1.3941,-1.4275,-1.4624,-1.5777,-1.6385,-1.6784,-1.8151,-1.8954,-1.9635,-1.9707,-2.0092,-2.022,-1.9011,-1.8384,-1.8372,-1.8813,-1.9098,-1.9085,-1.9547,-1.9767,-1.9774,-1.9881,-1.9943,-1.9965,-1.9952,-1.9958,-1.989,-1.9592,-1.9541,-1.9474,-1.996,-2.0144,-2.0586,-2.1554,-2.2342,-2.2926,-2.3586,-2.4173,-2.4767,-2.5302,-2.5352,-2.4791,-2.59,-2.6492,-2.6832,-2.8273,-2.9892,-3.0871,-3.1331,-3.1802,-3.2799,-3.3096,-3.3383,-3.3955,-3.4445,-3.4726,-3.4879,-3.5255,-3.556,-3.5571,-3.5654,-3.5724,-3.5806,-3.6076,-3.6383,-3.6454,-3.6736,-3.683,-3.6477,-3.6393,-3.6642,-3.6971,-3.7112,-3.7135,-3.7135,-3.7135,-3.7135,-3.7135,-3.7135,-3.7384,-3.7869,-3.8576,-3.9145,-3.9702,-4.0245,-4.0848,-4.0835,-4.0651,-4.0451,-4.0528,-4.0453,-3.9129,-3.8164,-3.8218,-3.8103,-3.7821,-3.775,-3.7814,-3.8045,-3.8429,-3.8998,-3.9354,-3.9918,-4.0197,-4.0699,-4.1334,-4.1992,-4.2267,-4.2436,-4.2734,-0.9367,-0.999,-1.0339,-1.1008,-1.1884,-1.2133,-1.2482,-1.3033,-1.3852,-1.4574,-1.5203,-1.6421,-1.7371,-1.7994,-1.849,-1.8798,-1.8899,-1.8378,-1.8108,-1.8096,-1.8118,-1.8162,-1.8131,-1.8154,-1.8188,-1.8255,-1.8543,-1.8963,-1.9256,-1.9376,-1.9376,-1.9382,-1.923,-1.9171,-1.9224,-1.9316,-1.9617,-1.9971,-2.0442,-2.0965,-2.1619,-2.2206,-2.2852,-2.3321,-2.3262,-2.3028,-2.291,-2.4023,-2.4666,-2.49,-2.6483,-2.7713,-2.8283,-2.9729,-3.0997,-3.1802,-3.2569,-3.3142,-3.3406,-3.3911,-3.4292,-3.4258,-3.4762,-3.5067,-3.5102,-3.5349,-3.5536,-3.5571,-3.5736,-3.5806,-3.5841,-3.5935,-3.6043,-3.5888,-3.6111,-3.6393,-3.6557,-3.6936,-3.7088,-3.7061,-3.7073,-3.7073,-3.7135,-3.7135,-3.7446,-3.8055,-3.8303,-3.87,-3.9195,-3.9566,-3.969,-3.969,-3.9677,-3.9489,-3.8915,-3.8085,-3.6887,-3.6939,-3.704,-3.6682,-3.638,-3.6474,-3.6549,-3.6796,-3.7195,-3.7813,-3.8398,-3.9052,-3.9606,-4.0182,-4.0595,-4.081,-4.1122,-4.1307,-4.116,-0.7291,-0.7844,-0.8164,-0.8812,-0.9673,-1.0164,-1.0568,-1.1117,-1.1979,-1.2759,-1.3565,-1.4575,-1.5694,-1.6677,-1.6255,-1.6051,-1.6051,-1.6301,-1.6423,-1.6407,-1.6692,-1.686,-1.6908,-1.7235,-1.7336,-1.733,-1.762,-1.8035,-1.839,-1.8442,-1.8502,-1.862,-1.8738,-1.8856,-1.9033,-1.9027,-1.9269,-1.9617,-1.9683,-1.9971,-2.0619,-2.109,-2.1442,-2.1854,-2.1494,-2.1384,-2.1611,-2.2558,-2.3086,-2.3086,-2.4666,-2.5541,-2.5842,-2.7771,-2.944,-3.0536,-3.1514,-3.2168,-3.2444,-3.3016,-3.3405,-3.3611,-3.4016,-3.4249,-3.4481,-3.4785,-3.5055,-3.5079,-3.5185,-3.5137,-3.5055,-3.4997,-3.5055,-3.5255,-3.5548,-3.5853,-3.6264,-3.6396,-3.6626,-3.6727,-3.6513,-3.6376,-3.6326,-3.6587,-3.7023,-3.7633,-3.7931,-3.8303,-3.8625,-3.87,-3.8638,-3.844,-3.822,-3.7721,-3.6719,-3.5573,-3.5366,-3.5636,-3.5913,-3.5736,-3.5808,-3.5914,-3.5825,-3.6095,-3.6398,-3.6877,-3.6927,-3.7487,-3.7846,-3.8469,-3.8988,-3.9263,-3.9816,-3.9448,-3.9332,-0.5754,-0.5816,-0.642,-0.6731,-0.6839,-0.7923,-0.8523,-0.8881,-1.01,-1.1097,-1.1829,-1.2648,-1.4093,-1.5426,-1.3352,-1.2395,-1.2583,-1.3202,-1.351,-1.3625,-1.4609,-1.5188,-1.5302,-1.6494,-1.7034,-1.6797,-1.6969,-1.7146,-1.7212,-1.7271,-1.7567,-1.8028,-1.8088,-1.8324,-1.8797,-1.8915,-1.8968,-1.9033,-1.9086,-1.9388,-1.9912,-1.9971,-2.003,-2.0089,-2.003,-2.0324,-2.0854,-2.156,-2.1905,-2.1854,-2.302,-2.3722,-2.3839,-2.5492,-2.7355,-2.9036,-2.9912,-3.0605,-3.1159,-3.1744,-3.2329,-3.2867,-3.3016,-3.328,-3.3887,-3.4002,-3.4083,-3.4035,-3.455,-3.4539,-3.413,-3.4072,-3.4189,-3.4494,-3.4645,-3.5125,-3.5978,-3.5501,-3.5578,-3.5769,-3.5475,-3.513,-3.4987,-3.5543,-3.6165,-3.6824,-3.7366,-3.764,-3.7506,-3.764,-3.7307,-3.6792,-3.6303,-3.5418,-3.3407,-3.3176,-3.3797,-3.4107,-3.4436,-3.5228,-3.5512,-3.5569,-3.5455,-3.5423,-3.5439,-3.5509,-3.5606,-3.5927,-3.6298,-3.6677,-3.717,-3.7272,-3.7424,-3.7417,-3.7171,-0.4441,-0.4441,-0.4621,-0.4979,-0.5395,-0.5752,-0.6188,-0.6754,-0.7539,-0.8279,-0.8909,-0.9997,-1.0843,-1.1194,-1.0634,-1.0889,-1.1668,-1.1906,-1.1966,-1.2025,-1.2378,-1.28,-1.3216,-1.3637,-1.4059,-1.454,-1.5426,-1.5901,-1.6014,-1.6791,-1.7389,-1.7502,-1.7502,-1.7567,-1.7804,-1.8147,-1.839,-1.8383,-1.8797,-1.9151,-1.9263,-1.9322,-1.9322,-1.9322,-1.9322,-1.9388,-1.9624,-2.0206,-2.056,-2.0619,-2.1795,-2.2676,-2.3145,-2.4023,-2.5367,-2.7239,-2.8814,-2.9729,-2.9844,-3.0939,-3.1618,-3.1802,-3.2146,-3.2616,-3.3199,-3.3314,-3.3531,-3.3862,-3.4162,-3.3923,-3.344,-3.3314,-3.3131,-3.2911,-3.3203,-3.3462,-3.3812,-3.4053,-3.4071,-3.4198,-3.4235,-3.4359,-3.4006,-3.4094,-3.4464,-3.4988,-3.4783,-3.4435,-3.4848,-3.4651,-3.4287,-3.4071,-3.4224,-3.3354,-3.1397,-3.1155,-3.1295,-3.1744,-3.2307,-3.2879,-3.3005,-3.3062,-3.3119,-3.3679,-3.3736,-3.3793,-3.4021,-3.4705,-3.5265,-3.533,-3.5411,-3.5452,-3.514,-3.4577,-3.4372,-0.3902,-0.3902,-0.3902,-0.414,-0.4438,-0.4738,-0.5094,-0.5515,-0.6116,-0.6774,-0.7251,-0.7485,-0.7784,-0.8026,-0.8325,-0.8803,-0.952,-0.9755,-0.9874,-0.9931,-1.0408,-1.0889,-1.131,-1.1727,-1.2208,-1.2689,-1.3395,-1.393,-1.4227,-1.4945,-1.5723,-1.6435,-1.6494,-1.6737,-1.7277,-1.7567,-1.7851,-1.8088,-1.8449,-1.862,-1.8679,-1.8915,-1.9027,-1.902,-1.8922,-1.8921,-1.8914,-1.9144,-1.9316,-1.9374,-2.0299,-2.0992,-2.1396,-2.2425,-2.3526,-2.4673,-2.6379,-2.7575,-2.8097,-2.9061,-2.9741,-3.0013,-3.0704,-3.1402,-3.2039,-3.2697,-3.2891,-3.2752,-3.2821,-3.2833,-3.2504,-3.2389,-3.2203,-3.1835,-3.1754,-3.1898,-3.2072,-3.2187,-3.2313,-3.2438,-3.2522,-3.2329,-3.2104,-3.2097,-3.2382,-3.2842,-3.2842,-3.2573,-3.2541,-3.23,-3.1939,-3.1716,-3.1044,-3.0211,-2.9114,-2.8759,-2.9297,-2.995,-3.0526,-3.0939,-3.1342,-3.1353,-3.1457,-3.1791,-3.2135,-3.241,-3.2467,-3.3325,-3.3736,-3.3679,-3.3679,-3.3553,-3.2994,-3.2364,-3.1848,-0.3902,-0.3902,-0.3902,-0.3902,-0.3962,-0.4498,-0.4736,-0.4856,-0.5397,-0.5996,-0.6298,-0.5337,-0.5215,-0.5754,-0.6415,-0.6717,-0.6894,-0.7251,-0.7488,-0.7607,-0.862,-0.9218,-0.9397,-1.0412,-1.1064,-1.1068,-1.1243,-1.1668,-1.2149,-1.2387,-1.328,-1.4822,-1.5059,-1.5658,-1.685,-1.7034,-1.7383,-1.791,-1.7867,-1.7895,-1.8013,-1.8601,-1.8889,-1.8954,-1.8705,-1.8637,-1.8631,-1.838,-1.8292,-1.8292,-1.8869,-1.92,-1.9433,-2.0824,-2.177,-2.2121,-2.3455,-2.4775,-2.5914,-2.6681,-2.7385,-2.7963,-2.8942,-2.9833,-3.0539,-3.1757,-3.1906,-3.0969,-3.0958,-3.1257,-3.1167,-3.1022,-3.0865,-3.0615,-3.0352,-3.0237,-3.0501,-3.0245,-3.0035,-3.051,-3.0057,-2.9634,-2.9634,-2.9837,-3.0068,-3.0608,-3.0797,-3.0786,-3.0458,-3.0168,-2.9868,-2.913,-2.7884,-2.6749,-2.6703,-2.7413,-2.7867,-2.8148,-2.9141,-2.9729,-2.9912,-3.0028,-3.0259,-3.0536,-3.0929,-3.1044,-3.14,-3.1802,-3.1802,-3.1848,-3.1791,-3.1733,-3.1216,-3.0652,-3.0023,-0.3902,-0.3902,-0.3902,-0.3902,-0.3902,-0.4021,-0.4141,-0.4141,-0.4261,-0.4381,-0.4501,-0.4261,-0.4438,-0.5036,-0.5215,-0.5575,-0.6056,-0.6173,-0.6233,-0.6235,-0.6533,-0.6952,-0.7433,-0.767,-0.8026,-0.8501,-0.9513,-1.0054,-1.0292,-1.1187,-1.1902,-1.2378,-1.2855,-1.3756,-1.5015,-1.5539,-1.6079,-1.6655,-1.6345,-1.6543,-1.7406,-1.7634,-1.797,-1.8369,-1.8367,-1.8334,-1.8391,-1.8325,-1.8292,-1.8292,-1.8404,-1.8686,-1.9243,-1.9637,-2.048,-2.1818,-2.2321,-2.3048,-2.4227,-2.5294,-2.6117,-2.6671,-2.7323,-2.8206,-2.9203,-2.9353,-2.9134,-2.8922,-2.9263,-2.9469,-2.9047,-2.8919,-2.8682,-2.8211,-2.8257,-2.8176,-2.7998,-2.8061,-2.795,-2.7421,-2.7633,-2.7614,-2.7403,-2.7941,-2.8443,-2.8253,-2.8,-2.7814,-2.7589,-2.7168,-2.658,-2.6006,-2.5489,-2.5142,-2.5133,-2.5425,-2.5775,-2.6241,-2.7006,-2.7713,-2.8177,-2.8592,-2.8882,-2.9056,-2.9103,-2.9277,-2.9287,-2.9682,-3.0018,-3.0123,-3.0123,-2.996,-2.9834,-2.9277,-2.8735,-0.3182,-0.3422,-0.3422,-0.3602,-0.3902,-0.3902,-0.3902,-0.39,-0.3813,-0.3816,-0.3901,-0.3902,-0.4081,-0.4439,-0.4378,-0.4618,-0.4919,-0.4919,-0.4919,-0.4919,-0.5217,-0.5555,-0.5881,-0.6216,-0.645,-0.6704,-0.7459,-0.8026,-0.8328,-0.8982,-0.946,-0.9752,-1.065,-1.191,-1.3399,-1.4021,-1.4791,-1.5667,-1.5369,-1.5522,-1.6151,-1.688,-1.7508,-1.779,-1.7985,-1.8087,-1.8087,-1.7912,-1.778,-1.7642,-1.7504,-1.7647,-1.797,-1.8115,-1.8689,-1.9783,-2.0342,-2.1039,-2.1895,-2.2749,-2.3629,-2.4569,-2.5393,-2.6002,-2.6275,-2.6033,-2.6165,-2.679,-2.7387,-2.7634,-2.751,-2.7152,-2.6782,-2.6404,-2.6092,-2.582,-2.5576,-2.554,-2.5281,-2.4881,-2.5041,-2.5107,-2.476,-2.5512,-2.6038,-2.5911,-2.5733,-2.5672,-2.5716,-2.5042,-2.4282,-2.3981,-2.3931,-2.3923,-2.3923,-2.4031,-2.4374,-2.4658,-2.5541,-2.625,-2.6608,-2.7199,-2.7664,-2.7964,-2.8012,-2.8138,-2.8418,-2.8708,-2.8882,-2.893,-2.893,-2.8756,-2.8582,-2.8302,-2.8031,-0.2265,-0.2863,-0.2862,-0.3221,-0.3877,-0.3877,-0.3877,-0.3873,-0.3647,-0.3652,-0.3876,-0.3877,-0.3877,-0.3877,-0.3877,-0.3876,-0.3877,-0.3877,-0.3877,-0.3877,-0.441,-0.4613,-0.4558,-0.521,-0.5501,-0.5381,-0.5564,-0.5959,-0.6435,-0.6611,-0.6849,-0.7436,-0.8508,-0.9925,-1.1524,-1.2323,-1.3096,-1.4093,-1.4233,-1.4351,-1.4576,-1.604,-1.6864,-1.7039,-1.7408,-1.7655,-1.7602,-1.7278,-1.7022,-1.6824,-1.6567,-1.6409,-1.6414,-1.6608,-1.6839,-1.7126,-1.8029,-1.8766,-1.9315,-1.9857,-2.0738,-2.2076,-2.3241,-2.3514,-2.2747,-2.2756,-2.3431,-2.4575,-2.5084,-2.5537,-2.578,-2.5232,-2.4791,-2.4673,-2.3982,-2.3397,-2.3158,-2.2942,-2.2778,-2.2747,-2.2665,-2.2762,-2.2923,-2.3347,-2.3764,-2.3747,-2.4165,-2.4295,-2.4346,-2.3564,-2.2945,-2.2934,-2.295,-2.295,-2.3126,-2.3345,-2.3613,-2.373,-2.4732,-2.5485,-2.5659,-2.6117,-2.663,-2.7175,-2.7224,-2.7358,-2.7723,-2.7993,-2.7945,-2.7935,-2.8022,-2.807,-2.778,-2.7617,-2.7617,-0.179,-0.2772,-0.2714,-0.3119,-0.3754,-0.3754,-0.3754,-0.3695,-0.3167,0.0,0.0,-0.3754,-0.3754,-0.3754,-0.3754,-0.3754,-0.3754,-0.3754,-0.3754,-0.3754,-0.387,-0.3863,-0.3853,-0.4036,-0.4037,-0.4026,-0.4614,-0.4909,-0.5082,-0.5597,-0.5886,-0.5999,-0.6748,-0.7268,-0.7726,-0.9654,-1.043,-1.007,-1.1234,-1.2343,-1.3325,-1.4143,-1.4917,-1.5666,-1.6214,-1.6346,-1.6163,-1.6252,-1.6334,-1.6281,-1.6228,-1.604,-1.5754,-1.5779,-1.5956,-1.6278,-1.6229,-1.6467,-1.7064,-1.7574,-1.8399,-1.9608,-2.1063,-2.1491,-2.048,-2.1199,-2.1798,-2.2011,-2.2131,-2.2253,-2.2323,-2.2197,-2.1915,-2.1521,-2.1841,-2.1726,-2.0889,-2.1014,-2.13,-2.1377,-2.1356,-2.153,-2.1938,-2.2488,-2.2944,-2.2992,-2.3369,-2.3797,-2.3557,-2.2878,-2.257,-2.2855,-2.2934,-2.295,-2.295,-2.3051,-2.3227,-2.3631,-2.4055,-2.4576,-2.5039,-2.545,-2.5691,-2.5961,-2.584,-2.5924,-2.5989,-2.6373,-2.6464,-2.6473,-2.6725,-2.7025,-2.7433,-2.7348,-2.7323,0.0114,-0.0973,-0.1259,-0.1889,0.0,-0.2805,-0.2439,-0.1788,-0.1804,-0.2217,-0.2805,-0.2805,-0.2805,-0.2805,-0.2805,-0.2805,-0.2862,-0.3091,-0.3206,-0.3206,-0.355,-0.365,-0.3621,-0.3652,-0.365,-0.3622,-0.3994,-0.418,-0.418,-0.4465,-0.4636,-0.4693,-0.5324,-0.5612,-0.5668,-0.7434,-0.8037,-0.7381,-0.8963,-1.0074,-1.0703,-1.2079,-1.3138,-1.3851,-1.4687,0.0,0.0,0.0,0.0,0.0,0.0,0.0,0.0,-1.465,-1.47,-1.4738,-1.4667,-1.4801,-1.5114,-1.5377,-1.5964,-1.6904,-1.8138,-1.8501,-1.7918,-1.8608,-1.9243,-1.9659,-2.01,-2.0339,-2.0493,-2.0546,-2.0408,-1.9859,-1.9903,-1.9725,-1.9049,-1.9251,-1.9428,-1.9347,-1.9657,-2.0097,-2.0512,-2.1144,-2.1478,-2.1756,-2.2208,-2.2468,-2.2361,-2.2057,-2.2039,-2.2536,-2.2815,-2.2942,-2.2934,-2.2823,-2.2839,-2.3312,-2.3622,-2.4035,-2.4629,-2.5151,-2.5451,-2.5451,-2.5451,-2.5451,-2.547,-2.5608,-2.5708,-2.5783,-2.6147,-2.6561,-2.6835,-2.6756,-2.6789,0.2269,0.1078,0.0567,-0.034,-0.1417,-0.1127,-0.0443,0.0432,-0.011,-0.0777,-0.1461,-0.1574,-0.1574,-0.1461,-0.1462,-0.1405,-0.1349,-0.1968,-0.2305,-0.2418,-0.3102,-0.3477,-0.3494,-0.3604,-0.3607,-0.3511,-0.3608,-0.3633,-0.3688,-0.3688,-0.3633,-0.369,-0.4187,-0.44,-0.4443,0.0,0.0,0.0,-0.7355,-0.8239,-0.8424,-1.0234,-1.1455,-1.1921,-1.3053,0.0,-1.3837,-1.3981,-1.3898,-1.3587,-1.3483,0.0,-1.3491,0.0,0.0,0.0,0.0,0.0,0.0,0.0,0.0,0.0,-1.498,-1.5223,-1.5318,-1.5794,-1.6483,-1.739,-1.8042,-1.8532,-1.8805,-1.8882,-1.8821,-1.8385,-1.7993,-1.7709,-1.7478,-1.7677,-1.7886,-1.7867,-1.838,-1.8976,-1.9508,-1.9857,-2.0274,-2.0673,-2.1051,-2.1233,-2.1193,-2.1366,-2.1597,-2.2054,-2.2418,-2.272,-2.2861,-2.2656,-2.2708,-2.3229,-2.3526,-2.3819,-2.4322,-2.4818,-2.5038,-2.5065,-2.512,-2.5047,-2.5194,-2.5295,-2.535,-2.5341,-2.5747,-2.6024,-2.5754,-2.5771,-2.5896,0.3892,0.2304,0.1755,0.1097,0.0547,0.1913,0.2302,0.2032,0.1932,0.1256,0.0262,-0.021,-0.0157,0.0262,0.0262,0.0525,0.0892,-0.0052,-0.0787,-0.126,-0.2238,-0.3002,-0.348,-0.3485,-0.3509,-0.3501,-0.3509,-0.3511,-0.3513,-0.3513,-0.3511,-0.351,-0.3622,-0.3569,-0.3515,-0.4443,-0.5151,-0.5648,-0.6918,-0.7791,-0.8327,-0.9101,-0.9645,-1.0055,-1.0979,-1.1375,-1.1201,-1.1853,-1.219,-1.2131,-1.2621,-1.2746,-1.2321,-1.28,-1.2665,0.0,-1.159,0.0,0.0,0.0,0.0,0.0,0.0,0.0,0.0,-1.3494,-1.4274,-1.5316,-1.5436,-1.5622,-1.5872,-1.5932,-1.5896,-1.5816,-1.5976,-1.6155,-1.634,-1.6747,-1.7386,-1.8253,-1.8419,-1.8877,-1.964,-1.9821,-1.9955,-2.025,-2.0626,-2.072,-2.0539,-2.0964,-2.1335,-2.147,-2.1739,-2.2096,-2.2571,-2.2667,-2.293,-2.391,-2.3875,-2.3958,-2.4012,-2.3915,-2.3801,-2.3801,-2.3837,-2.3929,-2.4231,-2.4633,-2.4917,-2.4872,-2.5074,-2.4946,-2.404,-2.3967,-2.4374,0.5136,0.3763,0.3285,0.3195,0.3393,0.3744,0.3718,0.3517,0.3214,0.2813,0.2311,0.1659,0.1558,0.1757,0.1808,0.1909,0.2061,0.1306,0.0707,0.0255,-0.1131,-0.2023,-0.2514,-0.3115,-0.3392,-0.3391,-0.3391,-0.3391,-0.3392,-0.3391,-0.3391,-0.3391,-0.3681,-0.3819,-0.3849,-0.4237,-0.4573,-0.476,-0.5374,-0.6008,-0.6623,-0.7421,-0.8078,-0.8546,-0.896,-0.926,-0.952,-0.98,-1.0103,-1.0537,-1.0925,-1.1277,-1.1711,-1.1711,-1.1377,0.0,0.0,0.0,0.0,0.0,0.0,0.0,0.0,0.0,0.0,0.0,-1.2355,-1.3197,-1.394,-1.4448,-1.447,-1.485,-1.5015,-1.4946,-1.5055,-1.5142,-1.5257,-1.5917,-1.6458,-1.6706,-1.7497,-1.8305,-1.889,-1.9262,-1.9642,-1.9939,-2.0121,-2.0204,-2.0101,-2.0291,-2.0655,-2.1019,-2.1147,-2.1461,-2.2105,-2.1888,-2.1892,-2.2494,-2.2323,-2.2181,-2.2509,-2.265,-2.2789,-2.2789,-2.3001,-2.326,-2.3434,-2.3801,-2.4023,-2.3653,-2.2992,-2.2195,-2.1525,-2.176,-2.2173,0.6182,0.5157,0.4618,0.4856,0.5445,0.4966,0.4727,0.4727,0.4296,0.4057,0.3914,0.3488,0.3154,0.3054,0.3197,0.3295,0.3348,0.2782,0.2228,0.1718,0.005,-0.1052,-0.1575,-0.2653,-0.317,-0.3271,-0.3273,-0.3271,-0.3273,-0.3271,-0.3324,-0.3473,-0.3803,-0.408,-0.4238,-0.4345,-0.444,-0.4482,-0.453,-0.4861,-0.54,-0.619,-0.6818,-0.719,-0.7254,-0.7463,-0.7979,-0.8025,-0.8299,-0.8869,-0.9161,-0.9664,-1.0462,-1.0388,0.0,0.0,0.0,0.0,0.0,0.0,0.0,0.0,0.0,-0.9119,-0.9781,0.0,-1.0737,0.0,-1.2632,-1.3493,-1.3458,-1.3978,0.0,0.0,-1.4198,-1.4257,-1.4395,-1.5096,-1.5599,-1.5417,-1.6473,-1.7405,-1.8035,-1.8574,-1.9001,-1.927,-1.9373,-1.9428,-1.9287,-1.935,-1.955,-1.9842,-1.9891,-2.016,-2.0495,-2.0416,-2.0506,-2.096,-2.091,-2.088,-2.1207,-2.1582,-2.1833,-2.1883,-2.2183,-2.2479,-2.2527,-2.2669,-2.2487,-2.1597,-2.0468,-1.9523,-1.9387,-1.9702,-2.0062,0.6745,0.6076,0.5665,0.5571,0.5641,0.5553,0.5509,0.5509,0.5509,0.5242,0.4756,0.4714,0.4404,0.4008,0.4448,0.0,0.5338,0.4493,0.3717,0.3093,0.1273,-0.0048,-0.1058,-0.2103,-0.2762,-0.3155,-0.3156,-0.3157,-0.3106,-0.3155,-0.3353,-0.3838,-0.3607,-0.38,-0.4302,-0.4542,-0.5003,-0.5639,-0.5558,-0.5571,-0.5776,-0.5976,-0.6128,-0.6123,-0.6256,-0.6381,-0.6438,-0.6828,-0.7113,-0.7029,-0.7703,-0.7969,-0.7728,0.0,0.0,0.0,0.0,0.0,0.0,0.0,0.0,0.0,0.0,0.0,0.0,0.0,0.0,-0.9705,-1.1146,0.0,-1.2334,-1.2714,0.0,0.0,0.0,-1.3291,-1.3951,-1.4397,-1.4904,-1.547,0.0,0.0,-1.7555,-1.7768,-1.7824,-1.7893,-1.8162,-1.8266,-1.7749,-1.7976,-1.8045,-1.7747,-1.762,-1.7642,-1.7912,-1.8377,-1.915,-2.0209,-2.1031,-2.0921,-2.074,-2.0738,-2.0839,-2.0796,-2.0954,-2.1031,-2.1442,-2.0964,-2.0239,-1.8312,-1.8287,-1.8488,-1.79,-1.8049,-1.8333,0.6174,0.5376,0.5195,0.5162,0.5159,0.5162,0.5159,0.5199,0.5159,0.5079,0.4877,0.4877,0.4757,0.4555,0.4797,0.0,0.0,0.0,0.4449,0.3958,0.2452,0.1251,0.0271,-0.1231,-0.2151,-0.2517,-0.2792,-0.2884,-0.2838,-0.2884,-0.2842,-0.2835,0.0,-0.3305,-0.4003,-0.4385,-0.4875,-0.5426,-0.5509,-0.5656,-0.5837,-0.5888,-0.588,-0.5812,-0.5543,-0.5403,-0.5409,-0.5685,-0.5899,-0.611,-0.6403,-0.6806,0.0,0.0,0.0,0.0,0.0,0.0,0.0,0.0,0.0,0.0,0.0,-0.6716,-0.6701,0.0,0.0,0.0,-0.9688,-1.073,-1.2032,-1.2285,0.0,0.0,0.0,0.0,0.0,0.0,0.0,-1.4003,-1.4761,-1.5574,-1.63,-1.62,-1.6023,-1.5939,-1.6623,-1.6885,-1.6276,0.0,-1.6575,-1.6606,-1.6303,-1.6326,-1.6844,-1.7063,-1.7373,-1.794,-1.7883,-1.7678,-1.7561,-1.7993,-1.8304,-1.8383,-1.8714,-1.9072,-1.9212,-1.7984,-1.6631,-1.5894,-1.5358,-1.4969,-1.4696,-1.5111,-1.5652,0.5351,0.0,0.0,0.0,0.0,0.4682,0.4716,0.4719,0.4682,0.468,0.4682,0.4682,0.0,0.0,0.0,0.0,0.0,0.0,0.4723,0.4408,0.32,0.2243,0.1441,-0.0337,-0.135,-0.1739,-0.215,-0.2354,-0.2308,-0.216,-0.1962,-0.1765,0.0,0.0,0.0,0.0,-0.446,-0.521,-0.5426,-0.5728,-0.6144,-0.6147,-0.6133,-0.5967,-0.5511,-0.525,-0.5151,-0.52,-0.5235,-0.5306,-0.5336,0.0,0.0,0.0,0.0,0.0,0.0,0.0,0.0,0.0,0.0,0.0,0.0,0.0,0.0,0.0,0.0,0.0,0.0,0.0,-1.1097,-1.1588,-1.1903,0.0,0.0,0.0,0.0,0.0,0.0,0.0,0.0,0.0,-1.4519,-1.4313,-1.4182,0.0,0.0,-1.5126,-1.4611,-1.4478,-1.4561,-1.4896,-1.4518,0.0,-1.5214,-1.527,-1.5294,-1.5525,-1.5407,-1.5358,-1.5488,-1.607,-1.6425,-1.6342,-1.6964,-1.7111,-1.6367,-1.4759,-1.3759,-1.3647,-1.2983,-1.2325,-1.2403,-1.2785,-1.336,0.0,0.0,0.0,0.0,0.4274,0.0,0.0,0.0,0.4307,0.4274,0.0,0.4274,0.0,0.0,0.0,0.0,0.4323,0.4409,0.0,0.0,0.3372,0.2674,0.2172,0.0542,-0.0427,-0.0831,-0.124,-0.1417,-0.1369,-0.078,-0.057,0.0,0.0,0.0,0.0,0.0,-0.3703,-0.5166,-0.5627,-0.6187,-0.6925,-0.6935,-0.6866,-0.6725,-0.6377,-0.6004,-0.5804,-0.5644,-0.5272,-0.4555,-0.4624,0.0,0.0,0.0,0.0,0.0,0.0,0.0,0.0,0.0,0.0,0.0,0.0,0.0,0.0,0.0,0.0,0.0,0.0,0.0,0.0,-1.0443,0.0,0.0,0.0,0.0,0.0,0.0,0.0,0.0,0.0,-1.244,-1.2195,-1.2134,-1.247,-1.3311,0.0,0.0,0.0,0.0,-1.1998,-1.2057,-1.1673,-1.1563,-1.1994,-1.2565,-1.3139,-1.3607,0.0,0.0,-1.5772,-1.5918,-1.5757,-1.5415,-1.5823,-1.5422,-1.262,-1.1848,-1.1599,-1.1599,-1.1509,-1.1575,-1.1781,-1.1656,-1.1834,0.0,0.0,0.0,0.0,0.0,0.0,0.0,0.0,0.0,0.3792,0.3763,0.3763,0.0,0.0,0.0,0.0,0.0,0.0,0.0,0.0,0.3374,0.284,0.2405,0.0876,0.0105,-0.0036,-0.0666,-0.0695,0.0,0.0,0.0,0.0,0.0,0.0,0.0,0.0,-0.3159,-0.4306,-0.5055,-0.5763,-0.6349,-0.6702,-0.6892,-0.6932,-0.6485,-0.594,-0.5339,-0.4973,-0.4438,0.0,0.0,0.0,0.0,0.0,0.0,0.0,0.0,0.0,0.0,0.0,0.0,0.0,0.0,0.0,0.0,0.0,0.0,0.0,0.0,0.0,0.0,0.0,-0.9294,0.0,0.0,0.0,0.0,0.0,0.0,0.0,0.0,0.0,-0.9778,-1.0456,-1.0902,-1.0558,-1.1311,-1.1769,-1.1231,0.0,0.0,0.0,0.0,0.0,0.0,0.0,-1.1759,-1.1926,-1.2269,-1.2467,-1.2286,-1.254,-1.2716,-1.2585,0.0,0.0,-1.1161,-1.0381,-0.996,-1.0165,-0.9622,-0.9212,-0.9294,-0.9415,-0.9671,0.0,0.0,0.0,0.0,0.0,0.0,0.0,0.0,0.0,0.3229,0.3257,0.0,0.0,0.0,0.0,0.0,0.0,0.0,0.0,0.0,0.0,0.0,0.2481,0.1303,0.0,0.0,0.0,0.0,0.0,0.0,0.0,0.0,0.0,0.0,0.0,0.0,-0.2427,-0.3563,-0.4438,-0.5283,-0.6068,-0.6418,-0.6738,-0.7036,-0.6677,-0.6121,-0.5392,0.0,0.0,0.0,0.0,0.0,0.0,0.0,0.0,0.0,0.0,0.0,0.0,0.0,0.0,0.0,0.0,0.0,0.0,0.0,0.0,0.0,0.0,0.0,0.0,0.0,-0.7788,0.0,0.0,0.0,0.0,0.0,0.0,0.0,0.0,0.0,0.0,-0.8803,-0.9152,-0.8671,-0.9609,-1.0163,-0.9911,-1.0073,-1.0339,0.0,0.0,0.0,0.0,0.0,0.0,0.0,0.0,0.0,0.0,0.0,0.0,0.0,-1.0545,-1.0203,-0.9542,-0.8914,-0.8502,-0.8725,0.0,0.0,0.0,0.0,0.0,0.0,0.0,0.0,0.0,0.0,0.0,0.0,0.0,0.0,0.0,0.2737,0.0,0.0,0.2713,0.0,0.0,0.0,0.0,0.0,0.0,0.0,0.0,0.0,0.0,0.0,0.0,0.0,0.0,0.0,0.0,0.0,0.0,0.0,0.0,0.0,0.0,-0.1537,-0.301,-0.3703,-0.474,-0.6059,-0.6187,-0.6431,-0.7093,-0.6868,-0.6499,-0.5933,0.0,0.0,0.0,0.0,0.0,0.0,0.0,0.0,0.0,0.0,0.0,0.0,0.0,0.0,0.0,0.0,0.0,0.0,0.0,0.0,0.0,0.0,0.0,0.0,0.0,0.0,-0.6766,-0.711,-0.7305,0.0,0.0,0.0,0.0,0.0,0.0,0.0,0.0,0.0,-0.7845,-0.7959,-0.8136,-0.8554,-0.8662,-0.8912,-0.912,-0.8939,-0.8891,-0.9125,-0.9591,-0.9857,0.0,0.0,0.0,0.0,0.0,0.0,0.0,0.0,0.0,0.0,0.0,0.0,0.0,0.0,0.0,0.0,0.0,0.0,0.0,0.0,0.0,0.0,0.0,0.0,0.0,0.0,0.0,0.0,0.259,0.2587,0.0,0.0,0.0,0.0,0.0,0.0,0.0,0.0,0.0,0.0,0.0,0.0,0.0,0.0,0.0,0.0,0.0,0.0,0.0,0.0,0.0,0.0,0.0,0.0,-0.0762,-0.1481,-0.2548,-0.3601,-0.4551,-0.4867,-0.5299,-0.5918,-0.5807,-0.5416,0.0,0.0,0.0,0.0,0.0,0.0,0.0,0.0,0.0,0.0,0.0,0.0,0.0,0.0,0.0,0.0,0.0,0.0,0.0,0.0,0.0,0.0,0.0,0.0,0.0,0.0,0.0,0.0,-0.5495,-0.5584,-0.5847,0.0,0.0,0.0,0.0,0.0,0.0,0.0,0.0,0.0,0.0,-0.7872,-0.8343,-0.8471,-0.8609,-0.8933,-0.8943,-0.8823,-0.8623,-0.9011,-0.9173,-0.8584,0.0,0.0,0.0,0.0,0.0,0.0,0.0,0.0,0.0,0.0,0.0,0.0,0.0,0.0,0.0,0.0,0.0,0.0,0.0,0.0,0.0,0.0,0.0,0.0,0.0,0.0,0.0,0.0,0.0,0.0,0.0,0.0,0.0,0.0,0.0,0.0,0.0,0.0,0.0,0.0,0.0,0.0,0.0,0.0,0.0,0.0,0.0,0.0,0.0,0.0,0.0,0.0,0.0,0.0,-0.034,-0.1119,-0.1948,-0.2886,-0.3213,-0.3833,-0.482,-0.4581,-0.4268,0.0,0.0,0.0,0.0,0.0,0.0,0.0,0.0,0.0,0.0,0.0,0.0,0.0,0.0,0.0,0.0,0.0,0.0,0.0,0.0,0.0,0.0,0.0,0.0,0.0,0.0,0.0,0.0,-0.4531,-0.4589,-0.4851,0.0,0.0,0.0,0.0,0.0,0.0,0.0,0.0,0.0,0.0,-0.6973,-0.7602,-0.7837,0.0,0.0,-0.8394,-0.825,-0.7967,-0.8103,-0.8008,-0.741,-0.7112,0.0,0.0,0.0,0.0,0.0,0.0,0.0,0.0,0.0,0.0,0.0,0.0,0.0,0.0,0.0,0.0,0.0,0.0,0.0,0.0,0.0,0.0,0.0,0.0,0.0,0.0,0.0,0.0,0.0,0.0,0.0,0.0,0.0,0.0,0.0,0.0,0.0,0.0,0.0,0.0,0.0,0.0,0.0,0.0,0.0,0.0,0.0,0.0,0.0,0.0,0.0,0.0,0.0637,0.0441,0.044,-0.0114,-0.1261,-0.1393,-0.219,-0.3656,-0.327,-0.3083,0.0,0.0,0.0,0.0,0.0,0.0,0.0,0.0,0.0,0.0,0.0,0.0,0.0,0.0,0.0,0.0,0.0,0.0,0.0,0.0,0.0,0.0,0.0,0.0,0.0,0.0,0.0,0.0,0.0,0.0,0.0,0.0,0.0,0.0,0.0,0.0,0.0,0.0,0.0,0.0,0.0,-0.5667,-0.6419,-0.6958,-0.7346,0.0,-0.7446,-0.721,-0.707,-0.6876,-0.6567,-0.6162,0.0,0.0,0.0,0.0,0.0,0.0,0.0,0.0,0.0,0.0,0.0,0.0,0.0,0.0,0.0,0.0,0.0,0.0,0.0,0.0,0.0,0.0,0.0,0.0,0.0,0.0,0.0,0.0,0.0,0.0,0.0,0.0,0.0,0.0,0.0,0.0,0.0,0.0,0.0,0.0,0.0,0.0,0.0,0.0,0.0,0.0,0.0,0.0,0.0,0.0,0.0,0.0,0.0,0.0,0.0859,0.093,0.0525,-0.0305,-0.0386,-0.0842,-0.182,-0.2224,0.0,0.0,0.0,0.0,0.0,0.0,0.0,0.0,0.0,0.0,0.0,0.0,0.0,0.0,0.0,0.0,0.0,0.0,0.0,0.0,0.0,0.0,0.0,0.0,0.0,0.0,0.0,-0.2496,0.0,0.0,0.0,0.0,0.0,0.0,0.0,0.0,0.0,0.0,0.0,0.0,0.0,0.0,-0.4972,-0.5755,-0.5829,-0.602,0.0,0.0,-0.6036,-0.554,-0.5798,-0.577,0.0,0.0,0.0,0.0,0.0,0.0,0.0,0.0,0.0,0.0,0.0,0.0,0.0,0.0,0.0,0.0,0.0,0.0,0.0,0.0,0.0,0.0,0.0,0.0,0.0,0.0,0.0,0.0,0.0,0.0,0.0,0.0,0.0,0.0,0.0,0.0,0.0,0.0,0.0,0.0,0.0,0.0,0.0,0.0,0.0,0.0,0.0,0.0,0.0,0.0,0.0,0.0,0.0,0.0,0.0803,0.098,0.112,0.088,0.03,0.0266,-0.0113,-0.087,-0.1249,-0.14,0.0,0.0,0.0,0.0,0.0,0.0,0.0,0.0,0.0,0.0,0.0,0.0,0.0,0.0,0.0,0.0,0.0,0.0,0.0,0.0,0.0,0.0,0.0,0.0,0.0,0.0,0.0,0.0,0.0,0.0,0.0,0.0,0.0,0.0,0.0,0.0,0.0,0.0,0.0,0.0,0.0,0.0,-0.4788,-0.4769,0.0,0.0,0.0,-0.4877,-0.4569,0.0,0.0,0.0,0.0,0.0,0.0,0.0,0.0,0.0,0.0,0.0,0.0,0.0,0.0,0.0,0.0,0.0,0.0,0.0,0.0,0.0,0.0,0.0,0.0,0.0,0.0,0.0,0.0,0.0,0.0,0.0,0.0,0.0,0.0,0.0,0.0,0.0,0.0,0.0,0.0,0.0,0.0,0.0,0.0,0.0,0.0,0.0,0.0,0.0,0.0,0.0,0.0,0.0,0.0,0.0,0.0,0.0,0.0913,0.107,0.0969,0.0628,0.0604,0.0224,-0.0497,-0.0566,-0.0682,0.0,0.0,0.0,0.0,0.0,0.0,0.0,0.0,0.0,0.0,0.0,0.0,0.0,0.0,0.0,0.0,0.0,0.0,0.0,0.0,0.0,0.0,0.0,0.0,0.0,0.0,0.0,0.0,0.0,0.0,0.0,0.0,0.0,0.0,0.0,0.0,0.0,0.0,0.0,0.0,0.0,-0.3009,-0.3631,-0.3744,-0.3905,0.0,0.0,-0.3793,-0.385,-0.3375,0.0,0.0,0.0,0.0,0.0,0.0,0.0,0.0,0.0,0.0,0.0,0.0,0.0,0.0,0.0,0.0,0.0,0.0,0.0,0.0,0.0,0.0,0.0,0.0,0.0,0.0,0.0,0.0,0.0,0.0,0.0,0.0,0.0,0.0,0.0,0.0,0.0,0.0,0.0,0.0,0.0,0.0,0.0,0.0,0.0,0.0,0.0,0.0,0.0,0.0,0.0,0.0,0.0,0.0,0.0,0.0,0.0652,0.1,0.0978,0.0605,0.0609,0.0373,-0.0106,-0.0425,-0.0574,0.0,0.0,0.0,0.0,0.0,0.0,0.0,0.0,0.0,0.0,0.0,0.0,0.0,0.0,0.0,0.0,0.0,0.0,0.0,0.0,0.0,0.0,0.0,0.0,0.0,0.0,0.0,0.0,0.0,0.0,0.0,0.0,0.0,0.0,0.0,0.0,0.0,0.0,0.0,0.0,0.0,-0.2411,-0.2736,-0.2887,0.0,0.0,0.0,0.0,-0.2572,-0.2505,0.0,0.0,0.0,0.0,0.0,0.0,0.0,0.0,0.0,0.0,0.0,0.0,0.0,0.0,0.0,0.0,0.0,0.0,0.0,0.0,0.0,0.0,0.0,0.0,0.0,0.0,0.0,0.0,0.0,0.0,0.0,0.0,0.0,0.0,0.0,0.0,0.0,0.0,0.0,0.0,0.0,0.0,0.0,0.0,0.0,0.0,0.0,0.0,0.0,0.0,0.0,0.0,0.0,0.0,0.0,0.0,0.0287,0.048,0.0502,0.0331,0.0298,0.022,0.0,-0.0174,-0.0298,0.0,0.0,0.0,0.0,0.0,0.0,0.0,0.0,0.0,0.0,0.0,0.0,0.0,0.0,0.0,0.0,0.0,0.0,0.0,0.0,0.0,0.0,0.0,0.0,0.0,0.0,0.0,0.0,0.0,0.0,0.0,0.0,0.0,0.0,0.0,0.0,0.0,0.0,0.0,0.0,-0.1714,-0.1932,-0.214,0.0,0.0,0.0,0.0,0.0,0.0,-0.1936,-0.1896,0.0,0.0,0.0,0.0,0.0,0.0,0.0,0.0,0.0,0.0,0.0,0.0,0.0,0.0,0.0,0.0,0.0,0.0,0.0,0.0,0.0,0.0,0.0,0.0,0.0,0.0,0.0,0.0,0.0,0.0,0.0,0.0,0.0,0.0,0.0,0.0,0.0,0.0,0.0,0.0,0.0,0.0,0.0,0.0,0.0,0.0,0.0,0.0,0.0,0.0,0.0,0.0,0.0,0.0,0.0,0.0,0.0,0.0,0.0,0.0,0.0,0.0,0.0,0.0,0.0,0.0,0.0,0.0,0.0,0.0,0.0,0.0,0.0,0.0,0.0,0.0,0.0,0.0,0.0,0.0,0.0,0.0,0.0,0.0,0.0,0.0,0.0,0.0,0.0,0.0,0.0,0.0,0.0,0.0,0.0,0.0,0.0,0.0,0.0,0.0,0.0,0.0,0.0,0.0,-0.142,-0.1566,0.0,0.0,0.0,0.0,0.0,0.0,0.0,0.0,-0.1493,0.0,0.0,0.0,0.0,0.0,0.0,0.0,0.0,0.0,0.0,0.0,0.0,0.0,0.0,0.0,0.0,0.0,0.0,0.0,0.0,0.0,0.0,0.0,0.0,0.0,0.0,0.0,0.0,0.0,0.0,0.0,0.0,0.0,0.0,0.0,0.0,0.0,0.0,0.0,0.0,0.0,0.0,0.0,0.0,0.0,0.0,0.0,0.0,0.0,0.0,0.0,0.0,0.0,0.0,0.0,0.0,0.0,0.0,0.0,0.0,0.0,0.0,0.0,0.0,0.0,0.0,0.0,0.0,0.0,0.0,0.0,0.0,0.0,0.0,0.0,0.0,0.0,0.0,0.0,0.0,0.0,0.0,0.0,0.0,0.0,0.0,0.0,0.0,0.0,0.0,0.0,0.0,0.0,0.0,0.0,0.0,0.0,0.0,0.0,0.0,0.0,0.0,0.0,-0.0995,-0.1232,0.0,0.0,0.0,0.0,0.0,0.0,0.0,0.0,-0.1332,0.0,0.0,0.0,0.0,0.0,0.0,0.0,0.0,0.0,0.0,0.0,0.0,0.0,0.0,0.0,0.0,0.0,0.0,0.0,0.0,0.0,0.0,0.0,0.0,0.0,0.0,0.0,0.0,0.0,0.0,0.0,0.0,0.0,0.0,0.0,0.0,0.0,0.0,0.0,0.0,0.0,0.0,0.0,0.0,0.0,0.0,0.0,0.0,0.0,0.0,0.0,0.0,0.0,0.0,0.0,0.0,0.0,0.0,-0.0135,0.0,0.0,0.0,0.0,0.0,0.0,0.0,0.0,0.0,0.0,0.0,0.0,0.0,0.0,0.0,0.0,0.0,0.0,0.0,0.0,0.0,0.0,0.0,0.0,0.0,0.0,0.0,0.0,0.0,0.0,0.0,0.0,0.0,0.0,0.0,0.0,0.0,0.0,0.0,0.0,0.0,0.0,0.0,0.0,0.0,0.0,0.0,0.0,0.0,0.0,0.0,0.0,0.0,0.0,0.0,0.0,0.0,0.0,0.0,0.0,0.0,0.0,0.0,0.0,0.0,0.0,0.0,0.0,0.0,0.0,0.0,0.0,0.0,0.0,0.0,0.0,0.0,0.0,0.0,0.0,0.0,0.0,0.0,0.0,0.0,0.0,0.0,0.0,0.0,0.0,0.0,0.0,0.0,0.0,0.0,0.0,0.0,0.0,0.0,0.0,0.0,0.0,0.0,0.0,0.0,0.0,0.0,0.0,0.0,0.0,0.0,0.0,0.0,0.0,-0.0263,0.0,0.0,0.0,0.0,0.0,0.0,0.0,0.0,0.0,0.0,0.0,0.0,0.0,0.0,0.0,0.0,0.0,0.0,0.0,0.0,0.0,0.0,0.0,0.0,0.0,0.0,0.0,0.0,0.0,0.0,0.0,0.0,0.0,0.0,0.0,0.0,0.0,0.0,0.0,0.0,0.0,0.0,0.0,0.0,0.0,0.0,0.0,0.0,0.0,0.0,0.0,0.0,0.0,0.0,-0.1184,0.0,0.0,0.0,0.0,0.0,0.0,0.0,0.0,0.0,0.0,0.0,0.0,0.0,0.0,0.0,0.0,0.0,0.0,0.0,0.0,0.0,0.0,0.0,0.0,0.0,0.0,0.0,0.0,0.0,0.0,0.0,0.0,0.0,0.0,0.0,0.0,0.0,0.0,0.0,0.0,0.0,0.0,0.0,0.0,0.0,0.0,0.0,0.0,0.0,0.0,0.0,0.0,0.0,0.0,0.0,0.0,0.0,0.0,0.0,-0.0253,0.0,0.0,0.0,0.0,0.0,0.0,0.0,0.0,0.0,0.0,0.0,0.0,0.0,0.0,0.0,0.0,0.0,0.0,0.0,0.0,0.0,0.0,0.0,0.0,0.0,0.0,0.0,0.0,0.0,0.0,0.0,0.0,0.0,0.0,0.0,0.0,0.0,0.0,0.0,0.0,0.0,0.0,0.0,0.0,0.0,0.0,0.0,0.0,0.0,0.0,0.0,0.0,0.0,0.0,0.0,0.0,0.0,0.0,0.0,0.0,0.0,0.0,0.0,0.0,0.0,0.0,0.0,0.0,0.0,0.0,0.0,0.0,0.0,0.0,0.0,0.0,0.0,0.0,0.0,0.0,0.0,0.0,0.0,0.0,0.0,0.0,0.0,0.0,0.0,0.0,0.0,0.0,0.0,0.0,0.0,0.0,0.0,0.0,0.0,0.0,0.0,0.0,0.0,0.0,0.0,0.0,0.0,0.0,0.0,0.0,0.0,0.0,0.0,0.0,-0.051,-0.0225,-0.0065,0.0,0.0,0.0,0.0,0.0,0.0,0.0,0.0,0.0,0.0,0.0,0.0,0.0,0.0,0.0,0.0,0.0,0.0,0.0,0.0,0.0,0.0,0.0,0.0,0.0,0.0,0.0,0.0,0.0,0.0,0.0,0.0,0.0,0.0,0.0,0.0,0.0,0.0,0.0,0.0,0.0,0.0,0.0,0.0,0.0,0.0,0.0,0.0,0.0,0.0,0.0,0.0,0.0,0.0,0.0,0.0,0.0,0.0,0.0,0.0,0.0,0.0,0.0,0.0,0.0,0.0,0.0,0.0,0.0,0.0,0.0,0.0,0.0,0.0,0.0,0.0,0.0,0.0,0.0,0.0,0.0,0.0,0.0,0.0,0.0,0.0,0.0,0.0,0.0,0.0,0.0,0.0,0.0,0.0,0.0,0.0,0.0,0.0,0.0,0.0,0.0,0.0,0.0,0.0,0.0,0.0,0.0,0.0,0.0,0.0,0.0,0.0,0.0,-0.0374,-0.0061,0.0117,0.0224,0.0135,0.0076,0.0,0.0,0.0,0.0,0.0,0.0,0.0,0.0,0.0,0.0,0.0,0.0,0.0,0.0,0.0,0.0,0.0,0.0,0.0,0.0,0.0,0.0,0.0,0.0,0.0,0.0,0.0,0.0,0.0,0.0,0.0,0.0,0.0,0.0,0.0,0.0,0.0,0.0,0.0,0.0,0.0,0.0,0.0,0.0,0.0,0.0,0.0,0.0,0.0,0.0,0.0,0.0,0.0,0.0,0.0,0.0,0.0,0.0,0.0,0.0,0.0,0.0,0.0,0.0,0.0,0.0,0.0,0.0,0.0,0.0,0.0,0.0,0.0,0.0,0.0,0.0,0.0,0.0,0.0,0.0,0.0,0.0,0.0,0.0,0.0,0.0,0.0,0.0,0.0,0.0,0.0,0.0,0.0,0.0,0.0,0.0,0.0,0.0,0.0,0.0,0.0,0.0,0.0,0.0,0.0,0.0,0.0,0.0,0.0,-0.0413,0.0133,0.0471,0.0702,0.0502,0.0351,0.0,0.0,0.0,0.0,0.0,0.0,0.0,0.0,0.0,0.0,0.0,0.0,0.0,0.0,0.0,0.0,0.0,0.0,0.0,0.0,0.0,0.0,0.0,0.0,0.0,0.0,0.0,0.0,0.0,0.0,0.0,0.0,0.0,0.0,0.0,0.0,0.0,0.0,0.0,0.0,0.0,0.0,0.0,0.0,0.0,0.0,0.0,0.0,0.0,0.0,0.0,0.0,0.0,0.0,0.0,0.0,0.0,0.0,0.0,0.0,0.0,0.0,0.0,0.0,0.0,0.0,0.0,0.0,0.0,0.0,0.0,0.0,0.0,0.0,0.0,0.0,0.0,0.0,0.0,0.0,0.0,0.0,0.0,0.0,0.0,0.0,0.0,0.0,0.0,0.0,0.0,0.0,0.0,0.0,0.0,0.0,0.0,0.0,0.0,0.0,0.0,0.0,0.0,0.0,0.0,0.0,0.0,0.0,0.0,-0.0143,0.0369,0.0693,0.0775,0.0606,0.048,0.0394,0.0,0.0,0.0,0.0,0.0,0.0,0.0,0.0,0.0,0.0,0.0,0.0,0.0,0.0,0.0,0.0,0.0,0.0,0.0,0.0,0.0,0.0,0.0,0.0,0.0,0.0,0.0,0.0,0.0,0.0,0.0,0.0,0.0,0.0,0.0,0.0,0.0,0.0,0.0,0.0,0.0,0.0,0.0,0.0,0.0,0.0,0.0,0.0,0.0,0.0,0.0,0.0,0.0,0.0,0.0,0.0,0.0,0.0,0.0,0.0,0.0,0.0,0.0,0.0,0.0,0.0,0.0,0.0,0.0,0.0,0.0,0.0,0.0,0.0,0.0,0.0,0.0,0.0,0.0,0.0,0.0,0.0,0.0,0.0,0.0,0.0,0.0,0.0,0.0,0.0,0.0,0.0,0.0,0.0,0.0,0.0,0.0,0.0,0.0,0.0,0.0,0.0,0.0,0.0,0.0,0.0,0.0,0.0,0.0107,0.0565,0.0896,0.094,0.0804,0.0596,0.0,0.0,0.0,0.0,0.0,0.0,0.0,0.0,0.0,0.0,0.0,0.0,0.0,0.0,0.0,0.0,0.0,0.0,0.0,0.0,0.0,0.0,0.0,0.0,0.0,0.0,0.0,0.0,0.0,0.0,0.0,0.0,0.0,0.0,0.0,0.0,0.0,0.0,0.0,0.0,0.0,0.0,0.0,0.0,0.0,0.0,0.0,0.0,0.0,0.0,0.0,0.0,0.0,0.0,0.0,0.0,0.0,0.0,0.0,0.0,0.0,0.0,0.0,0.0,0.0,0.0,0.0,0.0,0.0,0.0,0.0,0.0,0.0,0.0,0.0,0.0,0.0,0.0,0.0,0.0,0.0,0.0,0.0,0.0,0.0,0.0,0.0,0.0,0.0,0.0,0.0,0.0,0.0,0.0,0.0,0.0,0.0,0.0,0.0,0.0,0.0,0.0,0.0,0.0,0.0,0.0,0.0,0.0,-0.0261,0.0366,0.0779,0.1092,0.1353,0.1105,0.0842,0.0,0.0,0.0,0.0,0.0,0.0,0.0,0.0,0.0,0.0,0.0,0.0,0.0,0.0,0.0,0.0,0.0,0.0,0.0,0.0,0.0,0.0,0.0,0.0,0.0,0.0,0.0,0.0,0.0,0.0,0.0,0.0,0.0,0.0,0.0,0.0,0.0,0.0,0.0,0.0,0.0,0.0,0.0,0.0,0.0,0.0,0.0,0.0,0.0,0.0,0.0,0.0,0.0,0.0,0.0,0.0,0.0,0.0,0.0,0.0,0.0,0.0,0.0,0.0,0.0,0.0,0.0,0.0,0.0,0.0,0.0,0.0,0.0,0.0,0.0,0.0,0.0,0.0,0.0,0.0,0.0,0.0,0.0,0.0,0.0,0.0,0.0,0.0,0.0,0.0,0.0,0.0,0.0,0.0,0.0,0.0,0.0,0.0,0.0,0.0,0.0,0.0,0.0,0.0,0.0,0.0,0.0,0.0,0.0,0.039,0.0,0.1309,0.1249,0.125,0.1063,0.0,0.0,0.0,0.0,0.0,0.0,0.0,0.0,0.0,0.0,0.0,0.0,0.0,0.0,0.0,0.0,0.0,0.0,0.0,0.0,0.0,0.0,0.0,0.0,0.0,0.0,0.0,0.0,0.0,0.0,0.0,0.0,0.0,0.0,0.0,0.0,0.0,0.0,0.0,0.0,0.0,0.0,0.0,0.0,0.0,0.0,0.0,0.0,0.0,0.0,0.0,0.0,0.0,0.0,0.0,0.0,0.0,0.0,0.0,0.0,0.0,0.0,0.0,0.0,0.0,0.0,0.0,0.0,0.0,0.0,0.0,0.0,0.0,0.0,0.0,0.0,0.0,0.0,0.0,0.0,0.0,0.0,0.0,0.0,0.0,0.0,0.0,0.0,0.0,0.0,0.0,0.0,0.0,0.0,0.0,0.0,0.0,0.0,0.0,0.0,0.0,0.0,0.0,0.0,0.0,0.0,0.0,0.0,0.0,0.0519,0.0969,0.1191,0.1189,0.1244,0.1132,0.0,0.0,0.0,0.0,0.0,0.0,0.0,0.0,0.0,0.0,0.0,0.0,0.0,0.0,0.0,0.0,0.0,0.0,0.0,0.0,0.0,0.0,0.0,0.0,0.0,0.0,0.0,0.0,0.0,0.0,0.0,0.0,0.0,0.0,0.0,0.0,0.0,0.0,0.0,0.0,0.0,0.0,0.0,0.0,0.0,0.0,0.0,0.0,0.0,0.0,0.0,0.0,0.0,0.0,0.0,0.0,0.0,0.0,0.0,0.0,0.0,0.0,0.0,0.0,0.0,0.0,0.0,0.0,0.0,0.0,0.0,0.0,0.0,0.0,0.0,0.0,0.0,0.0,0.0,0.0,0.0,0.0,0.0,0.0,0.0,0.0,0.0,0.0,0.0,0.0,0.0,0.0,0.0,0.0,0.0,0.0,0.0,0.0,0.0,0.0,0.0,0.0,0.0,0.0,0.0,0.0,0.0,0.0,0.0,0.0748,0.0648,0.0772,0.1171,0.1192,0.1053,0.0,0.0,0.0,0.0,0.0,0.0,0.0,0.0,0.0,0.0,0.0,0.0,0.0,0.0,0.0,0.0,0.0,0.0,0.0,0.0,0.0,0.0,0.0,0.0,0.0,0.0,0.0,0.0,0.0,0.0,0.0,0.0,0.0,0.0,0.0,0.0,0.0,0.0,0.0,0.0,0.0,0.0,0.0,0.0,0.0,0.0,0.0,0.0,0.0,0.0,0.0,0.0,0.0,0.0,0.0,0.0,0.0,0.0,0.0,0.0,0.0,0.0,0.0,0.0,0.0,0.0,0.0,0.0,0.0,0.0,0.0,0.0,0.0,0.0,0.0,0.0,0.0,0.0,0.0,0.0,0.0,0.0,0.0,0.0,0.0,0.0,0.0,0.0,0.0,0.0,0.0,0.0,0.0,0.0,0.0,0.0,0.0,0.0,0.0,0.0,0.0,0.0,0.0,0.0,0.0,0.0,0.0,0.0,0.0,0.0,0.0711,0.0856,0.1148,0.1192,0.1043,0.0787,0.0,0.0,0.0,0.0,0.0,0.0,0.0,0.0,0.0,0.0,0.0,0.0,0.0,0.0,0.0,0.0,0.0,0.0,0.0,0.0,0.0,0.0,0.0,0.0,0.0,0.0,0.0,0.0,0.0,0.0,0.0,0.0,0.0,0.0,0.0,0.0,0.0,0.0,0.0,0.0,0.0,0.0,0.0,0.0,0.0,0.0,0.0,0.0,0.0,0.0,0.0,0.0,0.0,0.0,0.0,0.0,0.0,0.0,0.0,0.0,0.0,0.0,0.0,0.0,0.0,0.0,0.0,0.0,0.0,0.0,0.0,0.0,0.0,0.0,0.0,0.0,0.0,0.0,0.0,0.0,0.0,0.0,0.0,0.0,0.0,0.0,0.0,0.0,0.0,0.0,0.0,0.0,0.0,0.0,0.0,0.0,0.0,0.0,0.0,0.0,0.0,0.0,0.0,0.0,0.0,0.0,0.0,0.0,0.0,0.0,0.0793,0.1008,0.0994,0.0942,0.0,0.0,0.0,0.0,0.0,0.0,0.0,0.0,0.0,0.0,0.0,0.0,0.0,0.0,0.0,0.0,0.0,0.0,0.0,0.0,0.0,0.0,0.0,0.0,0.0,0.0,0.0,0.0,0.0,0.0,0.0,0.0,0.0,0.0,0.0,0.0,0.0,0.0,0.0,0.0,0.0,0.0,0.0,0.0,0.0,0.0,0.0,0.0,0.0,0.0,0.0,0.0,0.0,0.0,0.0,0.0,0.0,0.0,0.0,0.0,0.0,0.0,0.0,0.0,0.0,0.0,0.0,0.0,0.0,0.0,0.0,0.0,0.0,0.0,0.0,0.0,0.0,0.0,0.0,0.0,0.0,0.0,0.0,0.0,0.0,0.0,0.0,0.0,0.0,0.0,0.0,0.0,0.0,0.0,0.0,0.0,0.0,0.0,0.0,0.0,0.0,0.0,0.0,0.0,0.0,0.0,0.0,0.0,0.0,0.0,0.0,0.0657,0.0766,0.0778,0.0,0.0772,0.0,0.0,0.0,0.0,0.0,0.0,0.0,0.0,0.0,0.0,0.0,0.0,0.0,0.0,0.0,0.0,0.0,0.0,0.0,0.0,0.0,0.0,0.0,0.0,0.0,0.0,0.0,0.0,0.0,0.0,0.0,0.0,0.0,0.0,0.0,0.0,0.0,0.0,0.0,0.0,0.0,0.0,0.0,0.0,0.0,0.0,0.0,0.0,0.0,0.0,0.0,0.0,0.0,0.0,0.0,0.0,0.0,0.0,0.0,0.0,0.0,0.0,0.0,0.0,0.0,0.0,0.0,0.0,0.0,0.0,0.0,0.0,0.0,0.0,0.0,0.0,0.0,0.0,0.0,0.0,0.0,0.0,0.0,0.0,0.0,0.0,0.0,0.0,0.0,0.0,0.0,0.0,0.0,0.0,0.0,0.0,0.0,0.0,0.0,0.0,0.0,0.0,0.0,0.0,0.0,0.0,0.0,0.0,0.0,0.0,0.0,0.0,0.0774,0.0768,0.0777,0.0,0.0,0.0,0.0,0.0,0.0,0.0,0.0,0.0,0.0,0.0,0.0,0.0,0.0,0.0,0.0,0.0,0.0,0.0,0.0,0.0,0.0,0.0,0.0,0.0,0.0,0.0,0.0,0.0,0.0,0.0,0.0,0.0,0.0,0.0,0.0,0.0,0.0,0.0,0.0,0.0,0.0,0.0,0.0,0.0,0.0,0.0,0.0,0.0,0.0,0.0,0.0,0.0,0.0,0.0,0.0,0.0,0.0,0.0,0.0,0.0,0.0,0.0,0.0,0.0,0.0,0.0,0.0,0.0,0.0,0.0,0.0,0.0,0.0,0.0,0.0,0.0,0.0,0.0,0.0,0.0,0.0,0.0,0.0,0.0,0.0,0.0,0.0,0.0,0.0,0.0,0.0,0.0,0.0,0.0,0.0,0.0,0.0,0.0,0.0,0.0,0.0,0.0,0.0,0.0,0.0,0.0,0.0,0.0,0.0,0.0767,0.0767,0.0767,0.0767,0.0767,0.0,0.0,0.0,0.0,0.0,0.0,0.0,0.0,0.0,0.0,0.0,0.0,0.0,0.0,0.0,0.0,0.0,0.0,0.0,0.0,0.0,0.0,0.0,0.0,0.0,0.0,0.0,0.0,0.0,0.0,0.0,0.0,0.0,0.0,0.0,0.0,0.0,0.0,0.0,0.0,0.0,0.0,0.0,0.0,0.0,0.0,0.0,0.0,0.0,0.0,0.0,0.0,0.0,0.0,0.0,0.0,0.0,0.0,0.0,0.0,0.0,0.0,0.0,0.0,0.0,0.0,0.0,0.0,0.0,0.0,0.0,0.0,0.0,0.0,0.0,0.0,0.0,0.0,0.0,0.0,0.0,0.0,0.0,0.0,0.0,0.0,0.0,0.0,0.0,0.0,0.0,0.0,0.0,0.0,0.0,0.0,0.0,0.0,0.0,0.0,0.0,0.0,0.0,0.0,0.0,0.0,0.0,0.0,0.0,0.0,0.0,0.0,0.0,0.0,0.081,0.0,0.0,0.0,0.0,0.0,0.0,0.0,0.0,0.0,0.0,0.0,0.0,0.0,0.0,0.0,0.0,0.0,0.0,0.0,0.0,0.0,0.0,0.0,0.0,0.0,0.0,0.0,0.0,0.0,0.0,0.0,0.0,0.0,0.0,0.0,0.0,0.0,0.0,0.0,0.0,0.0,0.0,0.0,0.0,0.0,0.0,0.0,0.0,0.0,0.0,0.0,0.0,0.0,0.0,0.0,0.0,0.0,0.0,0.0,0.0,0.0,0.0,0.0,0.0,0.0,0.0,0.0,0.0,0.0,0.0,0.0,0.0,0.0,0.0,0.0,0.0,0.0,0.0,0.0,0.0,0.0,0.0,0.0,0.0,0.0,0.0,0.0,0.0,0.0,0.0,0.0,0.0,0.0,0.0,0.0,0.0,0.0,0.0,0.0,0.0,0.0,0.0,0.0,0.0,0.0,0.0,0.0,0.0,0.0,0.0,0.0,0.0,0.0,0.0,0.0,0.0,0.0,0.0,0.0,0.0,0.0,0.0,0.0,0.0,0.0,0.0,0.0,0.0,0.0,0.0,0.0,0.0,0.0,0.0,0.0,0.0,0.0,0.0,0.0,0.0,0.0,0.0,0.0,0.0,0.0,0.0,0.0,0.0,0.0,0.0,0.0,0.0,0.0,0.0,0.0,0.0,0.0,0.0,0.0,0.0,0.0,0.0,0.0,0.0,0.0,0.0,0.0,0.0,0.0,0.0,0.0,0.0,0.0,0.0,0.0,0.0,0.0,0.0,0.0,0.0,0.0,0.0,0.0,0.0,0.0,0.0,0.0,0.0,0.0,0.0,0.0,0.0,0.0,0.0,0.0,0.0,0.0,0.0,0.0,0.0,0.0,0.0,0.0,0.0,0.0,0.0,0.0,0.0,0.0,0.0,0.0,0.0,0.0,0.0,0.0,0.0,0.0,0.0,0.0,0.0,0.0,0.0,0.0,0.0,0.0,0.0,0.0,0.0,0.0,0.0,0.0,0.0,0.0,0.0,0.0,0.0,0.0,0.0,0.0,0.0,0.0,0.0,0.0,0.0,0.0,0.0,0.0,0.0,0.0,0.0,0.0,0.0,0.0,0.0,0.0,0.0,0.0,0.0,0.0,0.0,0.0,0.0,0.0,0.0,0.0,0.0,0.0,0.0,0.0,0.0,0.0,0.0,0.0,0.0,0.0,0.0,0.0,0.0,0.0,0.0,0.0,0.0,0.0,0.0,0.0,0.0,0.0,0.0,0.0,0.0,0.0,0.0,0.0,0.0,0.0,0.0,0.0,0.0,0.0,0.0,0.0,0.0,0.0,0.0,0.0,0.0,0.0,0.0,0.0,0.0,0.0,0.0,0.0,0.0,0.0,0.0,0.0,0.0,0.0,0.0,0.0,0.0,0.0,0.0,0.0,0.0,0.0,0.0,0.0,0.0,0.0,0.0,0.0,0.0,0.0,0.0,0.0,0.0,0.0,0.0,0.0,0.0,0.0,0.0,0.0,0.0,0.0,0.0,0.0,0.0,0.0,0.0,0.0,0.0,0.0,0.0,0.0,0.0,0.0,0.0,0.0,0.0,0.0,0.0,0.0,0.0,0.0,0.0,0.0,0.0,0.0,0.0,0.0,0.0,0.0,0.0,0.0,0.0,0.0,0.0,0.0,0.0,0.0,0.0,0.0,0.0,0.0,0.0,0.0,0.0,0.0,0.0,0.0,0.0,0.0,0.0,0.0,0.0,0.0,0.0,0.0,0.0,0.0,0.0,0.0,0.0,0.0,0.0,0.0,0.0,0.0,0.0,0.0,0.0,0.0,0.0,0.0,0.0,0.0,0.0,0.0,0.0,0.0,0.0,0.0,0.0,0.0,0.0,0.0,0.0,0.0,0.0,0.0,0.0,0.0,0.0,0.0,0.0,0.0,0.0,0.0,0.0,0.0,0.0,0.0,0.0,0.0,0.0,0.0,0.0,0.0,0.0,0.0,0.0,0.0,0.0,0.0,0.0,0.0,0.0,0.0,0.0,0.0,0.0,0.0,0.0,0.0,0.0,0.0,0.0,0.0,0.0,0.0,0.0,0.0,0.0,0.0,0.0,0.0,0.0,0.0,0.0,0.0,0.0,0.0,0.0,0.0,0.0,0.0,0.0,0.0,0.0,0.0,0.0,0.0,0.0,0.0,0.0,0.0,0.0,0.0,0.0,0.0,0.0,0.0,0.0,0.0,0.0,0.0,0.0,0.0,0.0,0.0,0.0,0.0,0.0,0.0,0.0,0.0,0.0,0.0,0.0,0.0,0.0,0.0,0.0,0.0,0.0,0.0,0.0,0.0,0.0,0.0,0.0,0.0,0.0,0.0,0.0,0.0,0.0,0.0,0.0,0.0,0.0,0.0,0.0,0.0,0.0,0.0,0.0,0.0,0.0,0.0,0.0,0.0,0.0,0.0,0.0,0.0,0.0,0.0,0.0,0.0,0.0,0.0,0.0,0.0,0.0,0.0,0.0,0.0,0.0,0.0,0.0,0.0,0.0,0.0,0.0,0.0,0.0,0.0,0.0,0.0,0.0,0.0,0.0,0.0,0.0,0.0,0.0,0.0,0.0,0.0,0.0,0.0,0.0,0.0,0.0,0.0,0.0,0.0,0.0,0.0,0.0,0.0,0.0,0.0,0.0,0.0,0.0,0.0,0.0,0.0,0.0,0.0,0.0,0.0,0.0,0.0,0.0,0.0,0.0,0.0,0.0,0.0,0.0,0.0,0.0,0.0,0.0,0.0,0.0,0.0,0.0,0.0,0.0,0.0,0.0,0.0,0.0,0.0,0.0,0.0,0.0,0.0,0.0,0.0,0.0,0.0,0.0,0.0,0.0,0.0,0.0,0.0,0.0,0.0,0.0,0.0,0.0,0.0,0.0,0.0,0.0,0.0,0.0,0.0,0.0,0.0,0.0,0.0,0.0,0.0,0.0,0.0,0.0,0.0,0.0,0.0,0.0,0.0,0.0,0.0,0.0,0.0,0.0,0.0,0.0,0.0,0.0,0.0,0.0,0.0,0.0,0.0,0.0,0.0,0.0,0.0,0.0,0.0,0.0,0.0,0.0,0.0,0.0,0.0,0.0,0.0,0.0,0.0,0.0,0.0,0.0,0.0,0.0,0.0,0.0,0.0,0.0,0.0,0.0,0.0,0.0,0.0,0.0,0.0,0.0,0.0,0.0,0.0,0.0,0.0,0.0,0.0,0.0,0.0,0.0,0.0,0.0,0.0,0.0,0.0,0.0,0.0,0.0,0.0,0.0,0.0,0.0,0.0,0.0,0.0,0.0,0.0,0.0,0.0,0.0,0.0,0.0,0.0,0.0,0.0,0.0,0.0,0.0,0.0,0.0,0.0,0.0,0.0,0.0,0.0,0.0,0.0,0.0,0.0,0.0,0.0,0.0,0.0,0.0,0.0,0.0,0.0,0.0,0.0,0.0,0.0,0.0,0.0,0.0,0.0,0.0,0.0,0.0,0.0,0.0,0.0,0.0,0.0,0.0,0.0,0.0,0.0,0.0,0.0,0.0,0.0,0.0,0.0,0.0,0.0,0.0,0.0,0.0,0.0,0.0,0.0,0.0,0.0,0.0,0.0,0.0,0.0,0.0,0.0,0.0,0.0,0.0,0.0,0.0,0.0,0.0,0.0,0.0,0.0,0.0,0.0,0.0,0.0,0.0,0.0,0.0,0.0,0.0,0.0,0.0,0.0,0.0,0.0,0.0,0.0,0.0,0.0,0.0,0.0,0.0,0.0,0.0,0.0,0.0,0.0,0.0,0.0,0.0,0.0,0.0,0.0,0.0,0.0,0.0,0.0,0.0,0.0,0.0,0.0,0.0,0.0,0.0,0.0,0.0,0.0,0.0,0.0,0.0,0.0,0.0,0.0,0.0,0.0,0.0,0.0,0.0,0.0,0.0,0.0,0.0,0.0,0.0,0.0,0.0,0.0,0.0,0.0,0.0,0.0,0.0,0.0,0.0,0.0,0.0,0.0,0.0,0.0,0.0,0.0,0.0,0.0,0.0,0.0,0.0,0.0,0.0,0.0,0.0,0.0,0.0,0.0,0.0,0.0,0.0,0.0,0.0,0.0,0.0,0.0,0.0,0.0,0.0,0.0,0.0,0.0,0.0,0.0,0.0,0.0,0.0,0.0,0.0,0.0,0.0,0.0,0.0,0.0,0.0,0.0,0.0,0.0,0.0,0.0,0.0,0.0,0.0,0.0,0.0,0.0,0.0,0.0,0.0,0.0,0.0,0.0,0.0,0.0,0.0,0.0,0.0,0.0,0.0,0.0,0.0,0.0,0.0,0.0,0.0,0.0,0.0]}],[{"header":{"parameterUnit":"kt","parameterCategory":2,"dx":1,"dy":1,"la1":29.587661999999998,"la2":31.0,"lo1":-88.76705300000003,"lo2":-86.6583820000003,"nx":115,"ny":88,"refTime":"2022-10-25T18:00:00:Z","depth":0,"parameterNumber":2,"parameterNumberName":"V-component_of_WINDS"},"data":[13.4379,13.1549,12.9519,12.8692,12.8692,12.8692,12.8692,12.8692,12.8692,12.8692,12.8692,12.8692,12.8692,12.8692,12.8692,12.8692,12.8692,12.8692,12.8692,12.8692,12.8692,12.8692,12.8692,12.8692,12.8692,12.8692,12.8692,12.8692,12.8692,12.8692,12.8692,12.8692,12.8692,12.8692,12.8692,12.8692,12.8692,12.8692,12.8692,12.8692,12.8692,12.8692,12.8692,12.8396,12.8249,12.7934,12.7569,12.7196,12.6771,12.5957,12.424,12.2138,12.0279,11.8606,11.7074,11.587,11.5323,11.5323,11.5341,11.5323,11.5341,11.5341,11.5431,11.5519,11.5608,11.5658,11.5658,11.5624,11.5571,11.5376,11.5323,11.5269,11.5251,11.5251,11.5233,11.5179,11.5049,11.4993,11.4899,11.4785,11.4614,11.4478,11.4412,11.4372,11.4256,11.4236,11.4136,11.4136,11.4079,11.4079,11.4079,11.4079,11.4079,11.4079,11.4059,11.4059,11.4039,11.4059,11.4079,11.4079,11.4079,11.4079,11.4079,11.4079,11.4079,11.4079,11.4079,11.4079,11.4079,11.4079,11.4079,11.4079,11.4079,11.4007,11.3646,13.497,13.308,13.0007,12.8692,12.8692,12.8692,12.8692,12.8692,12.8692,12.8692,12.8692,12.8692,12.8692,12.8692,12.8692,12.8692,12.8692,12.8692,12.8692,12.8692,12.8692,12.8692,12.8692,12.8692,12.8692,12.8692,12.8692,12.8692,12.8692,12.8692,12.8692,12.8692,12.8692,12.8692,12.8692,12.8692,12.8692,12.8692,12.8692,12.8692,12.8616,12.8654,12.8341,12.7799,12.7168,12.6217,12.5363,12.4494,12.3204,12.2547,12.2114,12.0475,11.899,11.8116,11.6765,11.578,11.5251,11.5251,11.5251,11.5251,11.5251,11.5251,11.5269,11.5287,11.5341,11.5377,11.5377,11.5323,11.5323,11.5269,11.5269,11.5251,11.5251,11.5251,11.5215,11.5215,11.4975,11.4765,11.4667,11.4567,11.4376,11.42,11.414,11.414,11.41,11.41,11.4079,11.4079,11.4079,11.4079,11.4039,11.4018,11.3937,11.4014,11.4075,11.4054,11.4014,11.3978,11.3998,11.4039,11.4079,11.4079,11.4079,11.4079,11.4079,11.4079,11.4079,11.4079,11.4079,11.4079,11.4079,11.4079,11.4079,11.3935,11.3466,13.4369,13.3354,13.012,12.8692,12.8692,12.8692,12.8692,12.8692,12.8692,12.8692,12.8692,12.8692,12.8692,12.8692,12.8692,12.8692,12.8692,12.8692,12.8692,12.8692,12.8692,12.8692,12.8692,12.8692,12.8692,12.8692,12.8692,12.8692,12.8692,12.8692,12.8692,12.8692,12.8692,12.8692,12.8692,12.8692,12.8692,12.8654,12.8692,12.8128,12.731,12.7103,12.6988,12.5842,12.503,12.4565,12.3722,12.3169,12.2243,12.1699,12.0959,11.9603,11.8225,11.7678,11.682,11.5798,11.5251,11.5251,11.5251,11.5251,11.5251,11.5251,11.5251,11.5269,11.5251,11.5251,11.5251,11.5251,11.5251,11.5251,11.5251,11.5251,11.5251,11.5233,11.5197,11.5105,11.4955,11.4725,11.453,11.4428,11.4236,11.4079,11.4079,11.4079,11.4079,11.4079,11.4079,11.4079,11.4079,11.4079,11.3998,11.3916,11.373,11.3745,11.3864,11.3885,11.387,11.3875,11.3875,11.3937,11.4018,11.4059,11.4079,11.4079,11.4079,11.4079,11.4079,11.4079,11.4079,11.4079,11.4079,11.4079,11.4079,11.4007,11.276,13.3719,13.3381,13.0083,12.8692,12.8692,12.8692,12.8692,12.8692,12.8692,12.8692,12.8692,12.8692,12.8692,12.8692,12.8692,12.8692,12.8692,12.8692,12.8692,12.8692,12.8692,12.8692,12.8692,12.8692,12.8692,12.8692,12.8692,12.8692,12.8692,12.8692,12.8692,12.8692,12.8692,12.8692,12.8692,12.8692,12.8654,12.8616,12.8165,12.716,12.5994,12.5496,12.5202,12.4112,12.2817,12.2564,12.1982,12.1419,12.0692,12.0384,11.9903,11.891,11.7404,11.7203,11.6455,11.5579,11.5251,11.5251,11.5251,11.5251,11.5251,11.5251,11.5251,11.5251,11.5251,11.5251,11.5251,11.5251,11.5251,11.5251,11.5251,11.5287,11.5269,11.5179,11.5142,11.5012,11.4918,11.4686,11.4412,11.4256,11.412,11.4079,11.4079,11.4079,11.4079,11.4079,11.4079,11.4079,11.4079,11.3978,11.3839,11.3688,11.3556,11.3492,11.3571,11.3613,11.3697,11.3703,11.3724,11.3813,11.3957,11.3957,11.3957,11.4018,11.4059,11.4079,11.4079,11.4059,11.4059,11.4079,11.4079,11.4079,11.4079,11.3952,11.2242,13.3719,13.3418,13.011,12.8692,12.8692,12.8692,12.8692,12.8692,12.8692,12.8692,12.8692,12.8692,12.8692,12.8692,12.8692,12.8692,12.8692,12.8692,12.8692,12.8692,12.8692,12.8692,12.8692,12.8692,12.8692,12.8692,12.8692,12.8692,12.8692,12.8692,12.8692,12.8692,12.8692,12.8692,12.8692,12.8692,12.824,12.7864,12.6784,12.5694,12.449,12.3973,12.3755,12.2988,12.1831,12.0668,11.9915,11.8654,11.7148,11.6744,11.6445,11.6371,11.5815,11.5653,11.5634,11.5233,11.5197,11.5197,11.516,11.5215,11.5251,11.5233,11.5251,11.5269,11.5269,11.5269,11.5251,11.5251,11.5251,11.5251,11.5251,11.5251,11.5197,11.5142,11.5012,11.4862,11.4746,11.4514,11.4296,11.4196,11.4079,11.4079,11.4079,11.4079,11.4079,11.4079,11.4079,11.4059,11.3998,11.3798,11.3688,11.3571,11.3386,11.3321,11.3357,11.3335,11.3407,11.3507,11.3528,11.3655,11.3751,11.3813,11.3818,11.3875,11.3932,11.4014,11.3998,11.3993,11.3973,11.3993,11.3957,11.4018,11.3973,11.3781,11.248,13.3719,13.3268,13.0083,12.8692,12.8692,12.8692,12.8692,12.8692,12.8692,12.8692,12.8692,12.8692,12.8692,12.8692,12.8692,12.8692,12.8692,12.8692,12.8692,12.8692,12.8692,12.8692,12.8692,12.8692,12.8692,12.8692,12.8692,12.8692,12.8692,12.8692,12.8692,12.8692,12.8692,12.8692,12.8541,12.8278,12.7564,12.6182,12.5054,12.3851,12.2939,12.2291,12.1414,12.0492,11.9727,11.8981,11.8396,11.7641,11.6693,11.6162,11.5658,11.5377,11.5233,11.4977,11.4921,11.494,11.4976,11.494,11.4977,11.505,11.5142,11.516,11.5215,11.5215,11.5233,11.5233,11.5269,11.5251,11.5251,11.5251,11.5251,11.5233,11.5142,11.5068,11.49,11.4729,11.4553,11.4336,11.4236,11.41,11.4079,11.4079,11.4079,11.4079,11.4079,11.4079,11.4059,11.3998,11.3834,11.3611,11.3471,11.3335,11.3213,11.3126,11.3038,11.2994,11.3126,11.3235,11.3292,11.34,11.3535,11.3583,11.3661,11.3703,11.3802,11.376,11.3739,11.3781,11.3844,11.3739,11.3682,11.3703,11.364,11.3528,11.2711,13.3306,13.3343,13.012,12.8692,12.8692,12.8692,12.8692,12.8692,12.8692,12.8692,12.8692,12.8692,12.8692,12.8692,12.8692,12.8692,12.8692,12.8692,12.8692,12.8692,12.8692,12.8692,12.8692,12.8692,12.8692,12.8692,12.8692,12.8692,12.8692,12.8692,12.8692,12.8692,12.8692,12.8203,12.7864,12.7461,12.5421,12.3879,12.3287,12.2075,12.105,12.0571,11.995,11.9265,11.8626,11.8236,11.7736,11.7028,11.6486,11.5978,11.5519,11.516,11.5012,11.4807,11.4676,11.4676,11.4657,11.4676,11.4695,11.4864,11.4975,11.4957,11.5123,11.5123,11.516,11.5179,11.5251,11.5251,11.5251,11.5251,11.5251,11.5197,11.5087,11.4955,11.4765,11.4572,11.434,11.418,11.416,11.4079,11.4079,11.4079,11.4079,11.4079,11.4079,11.4059,11.3978,11.3792,11.3605,11.335,11.3191,11.306,11.2972,11.2914,11.2803,11.2803,11.2928,11.2994,11.3016,11.3104,11.3278,11.3386,11.3464,11.3564,11.367,11.3628,11.3522,11.3585,11.3655,11.355,11.3464,11.3421,11.3321,11.3235,11.2668,13.2263,13.3118,13.0083,12.8692,12.8692,12.8692,12.8692,12.8692,12.8692,12.8692,12.8692,12.8692,12.8692,12.8692,12.8692,12.8692,12.8692,12.8692,12.8692,12.8692,12.8692,12.8692,12.8692,12.8692,12.8692,12.8692,12.8692,12.8692,12.8692,12.8692,12.8692,12.8692,12.8428,12.7225,12.5947,12.4857,12.3278,12.1962,12.1323,12.0608,11.9725,11.9199,11.8964,11.873,11.8331,11.7901,11.741,11.6947,11.6424,11.5883,11.5377,11.5069,11.4808,11.4676,11.4676,11.4657,11.4618,11.4599,11.4635,11.4655,11.4712,11.4729,11.49,11.5012,11.5068,11.5124,11.5233,11.5269,11.5251,11.5251,11.5269,11.5124,11.5012,11.4805,11.4631,11.4435,11.42,11.412,11.4079,11.4079,11.4079,11.4079,11.4079,11.4079,11.4059,11.3978,11.3792,11.3605,11.3371,11.3112,11.2994,11.2861,11.2803,11.2723,11.2723,11.2723,11.2825,11.2848,11.287,11.2892,11.3016,11.3148,11.3227,11.3292,11.3457,11.3479,11.3335,11.3357,11.3457,11.3457,11.3335,11.3235,11.3024,11.2936,11.2901,13.1587,13.1812,12.9632,12.8692,12.8692,12.8692,12.8692,12.8692,12.8692,12.8692,12.8692,12.8692,12.8692,12.8692,12.8692,12.8692,12.8692,12.8692,12.8692,12.8692,12.8692,12.8692,12.8692,12.8692,12.8692,12.8692,12.8692,12.8692,12.8692,12.8692,12.8692,12.8428,12.7639,12.5994,12.3879,12.2639,12.1398,12.0308,11.9838,11.9396,11.9002,11.8683,11.8634,11.8538,11.8254,11.7841,11.7279,11.6778,11.6317,11.5749,11.5215,11.4805,11.4611,11.4435,11.4264,11.432,11.432,11.4284,11.4399,11.4438,11.4458,11.4399,11.4553,11.4727,11.4826,11.4995,11.5124,11.5233,11.5251,11.5251,11.5251,11.5142,11.4975,11.4731,11.4556,11.4376,11.4196,11.412,11.4079,11.4079,11.4079,11.4079,11.4079,11.4059,11.3978,11.3772,11.3583,11.3371,11.3155,11.2958,11.2839,11.2781,11.2723,11.2701,11.2701,11.2701,11.2701,11.2701,11.2723,11.2745,11.287,11.2936,11.2972,11.3016,11.306,11.3104,11.3082,11.306,11.306,11.306,11.3104,11.298,11.2768,11.2745,11.2768,13.0684,13.106,12.9368,12.8692,12.8692,12.8692,12.8692,12.8692,12.8692,12.8692,12.8692,12.8692,12.8692,12.8692,12.8692,12.8692,12.8692,12.8692,12.8692,12.8692,12.8692,12.8692,12.8692,12.8692,12.8692,12.8692,12.8692,12.8692,12.8692,12.8692,12.8692,12.8278,12.7197,12.4829,12.2714,12.0646,12.0073,11.8983,11.873,11.872,11.8702,11.8654,11.8562,11.8433,11.8163,11.773,11.7156,11.6637,11.613,11.5538,11.5032,11.4652,11.4356,11.4293,11.412,11.41,11.4136,11.4079,11.4176,11.4216,11.4293,11.4293,11.4392,11.4553,11.4633,11.4824,11.4939,11.4995,11.5014,11.5014,11.5069,11.4956,11.488,11.4633,11.4422,11.4276,11.4196,11.41,11.4079,11.4079,11.4079,11.4079,11.4039,11.3998,11.3772,11.3541,11.3371,11.3191,11.298,11.2825,11.2759,11.2723,11.2701,11.2701,11.2701,11.2701,11.2701,11.2701,11.2701,11.2701,11.2701,11.2745,11.2803,11.2848,11.2803,11.2723,11.2825,11.287,11.2745,11.2701,11.2825,11.2768,11.2023,11.1773,11.1844,12.9669,13.09,12.9368,12.8692,12.8692,12.8692,12.8692,12.8692,12.8692,12.8692,12.8692,12.8692,12.8692,12.8692,12.8692,12.8692,12.8692,12.8692,12.8692,12.8692,12.8692,12.8692,12.8692,12.8692,12.8692,12.8692,12.8692,12.8692,12.8692,12.8692,12.8692,12.824,12.6784,12.4942,12.3475,12.042,11.8907,11.8739,11.8607,11.8626,11.8587,11.8545,11.8428,11.8254,11.801,11.7642,11.7059,11.6531,11.5957,11.5431,11.4902,11.4539,11.4236,11.4136,11.4115,11.4079,11.4079,11.4079,11.4079,11.4079,11.41,11.412,11.4256,11.4452,11.453,11.4631,11.4731,11.4808,11.4771,11.4733,11.4674,11.4631,11.4609,11.4435,11.426,11.41,11.41,11.4079,11.4079,11.4079,11.4079,11.4059,11.3998,11.3875,11.3583,11.3371,11.3213,11.3002,11.2812,11.2723,11.2723,11.2701,11.2701,11.2701,11.2701,11.2701,11.2701,11.2701,11.2701,11.2701,11.2701,11.2701,11.2701,11.2723,11.2701,11.2701,11.2701,11.2701,11.2701,11.2701,11.2701,11.2308,11.1131,11.0395,10.9918,12.8992,12.9331,12.888,12.8692,12.8692,12.8692,12.8692,12.8692,12.8692,12.8692,12.8692,12.8692,12.8692,12.8692,12.8692,12.8692,12.8692,12.8692,12.8692,12.8692,12.8692,12.8692,12.8692,12.8692,12.8692,12.8692,12.8692,12.8692,12.8692,12.8692,12.8466,12.7639,12.6032,12.3917,12.1943,11.9829,11.8663,11.8642,11.8583,11.8583,11.8562,11.8459,11.832,11.8137,11.7841,11.7447,11.6982,11.6407,11.5824,11.5341,11.4884,11.4519,11.4224,11.4079,11.4079,11.4079,11.4079,11.4079,11.4079,11.4079,11.4079,11.4079,11.4216,11.4333,11.4468,11.453,11.4575,11.4635,11.4657,11.4676,11.4676,11.4553,11.4452,11.4392,11.4196,11.4079,11.4079,11.4079,11.4079,11.4079,11.4079,11.4079,11.3998,11.386,11.3626,11.345,11.3213,11.2914,11.2745,11.2701,11.2701,11.2701,11.2701,11.2701,11.2701,11.2701,11.2701,11.2701,11.2701,11.2701,11.2701,11.2701,11.2701,11.2701,11.2701,11.2701,11.2701,11.2701,11.2701,11.2701,11.2486,11.2272,11.0988,10.9347,10.8633,12.8692,12.8692,12.8692,12.8692,12.8692,12.8692,12.8692,12.8692,12.8692,12.8692,12.8692,12.8692,12.8692,12.8692,12.8692,12.8692,12.8692,12.8692,12.8692,12.8692,12.8692,12.8692,12.8692,12.8692,12.8654,12.8692,12.8692,12.8692,12.8579,12.8692,12.824,12.6341,12.4029,12.2291,12.1078,11.962,11.8753,11.8569,11.8528,11.8507,11.8465,11.832,11.8152,11.7939,11.7576,11.7203,11.6778,11.6238,11.5725,11.5269,11.4865,11.45,11.416,11.41,11.4079,11.4079,11.4079,11.4079,11.4079,11.4079,11.4079,11.4079,11.41,11.4176,11.4313,11.4352,11.4416,11.4438,11.4441,11.4402,11.4441,11.4416,11.4352,11.4276,11.4216,11.41,11.4079,11.4079,11.4079,11.4079,11.4079,11.4079,11.3962,11.3839,11.3688,11.3528,11.3169,11.287,11.2803,11.2701,11.2701,11.2701,11.2701,11.2701,11.2701,11.2701,11.2701,11.2701,11.2701,11.2701,11.2701,11.2701,11.2701,11.2701,11.2701,11.2701,11.2701,11.2701,11.2701,11.2701,11.2486,11.1987,11.0382,10.8562,10.7171,12.8692,12.8692,12.8692,12.8692,12.8692,12.8692,12.8692,12.8692,12.8692,12.8692,12.8692,12.8692,12.8692,12.8692,12.8692,12.8692,12.8692,12.8692,12.8692,12.8692,12.8692,12.8692,12.8692,12.8616,12.8579,12.8353,12.8165,12.8137,12.8165,12.7421,12.5983,12.3898,12.2401,12.1395,12.0304,11.9258,11.8613,11.8518,11.8363,11.832,11.8231,11.8094,11.7879,11.7576,11.7217,11.6845,11.6439,11.5998,11.5536,11.516,11.4824,11.4478,11.416,11.41,11.4079,11.4079,11.4079,11.4079,11.4079,11.4079,11.4079,11.4079,11.4079,11.41,11.4176,11.4136,11.4136,11.416,11.4184,11.418,11.414,11.4079,11.4176,11.412,11.412,11.4079,11.4079,11.4079,11.4079,11.4079,11.4079,11.4079,11.4018,11.3839,11.3688,11.3528,11.3191,11.295,11.2848,11.2759,11.2723,11.2701,11.2701,11.2701,11.2701,11.2701,11.2701,11.2701,11.2701,11.2701,11.2701,11.2701,11.2701,11.2701,11.2701,11.2701,11.2701,11.2701,11.2701,11.2701,11.2272,11.1438,11.0025,10.8526,10.6743,12.8692,12.8692,12.8692,12.8692,12.8692,12.8692,12.8692,12.8692,12.8692,12.8692,12.8692,12.8692,12.8692,12.8692,12.8692,12.8692,12.8692,12.8692,12.8692,12.8692,12.8692,12.8692,12.8616,12.8466,12.7977,12.6897,12.7028,12.6201,12.5447,12.4654,12.3747,12.17,12.0966,12.0346,11.9405,11.8722,11.8385,11.8374,11.8209,11.8071,11.7952,11.7804,11.7626,11.735,11.6991,11.6635,11.6376,11.5813,11.5396,11.503,11.4746,11.4399,11.414,11.4079,11.4079,11.4079,11.4079,11.4079,11.4079,11.4079,11.4079,11.4079,11.4079,11.4079,11.4079,11.4079,11.4079,11.4079,11.4079,11.4079,11.4079,11.4079,11.4079,11.4079,11.4079,11.4079,11.4079,11.4079,11.4079,11.4079,11.4079,11.4079,11.4018,11.3875,11.3688,11.355,11.3314,11.3038,11.2906,11.2759,11.2759,11.2701,11.2701,11.2701,11.2701,11.2701,11.2701,11.2701,11.2701,11.2701,11.2701,11.2701,11.2701,11.2701,11.2701,11.2701,11.2701,11.2701,11.2701,11.2701,11.2451,11.126,10.9868,10.8691,10.7014,12.8692,12.8692,12.8692,12.8692,12.8692,12.8692,12.8692,12.8692,12.8692,12.8692,12.8692,12.8692,12.8692,12.8692,12.8692,12.8692,12.8692,12.8692,12.8692,12.8692,12.8692,12.8692,12.8504,12.794,12.7336,12.6274,12.5428,12.4113,12.2146,12.1294,12.098,11.993,11.9776,11.9284,11.8749,11.8335,11.8243,11.8126,11.7986,11.7817,11.7703,11.7484,11.723,11.7056,11.6732,11.6307,11.5948,11.5412,11.516,11.4804,11.4667,11.4336,11.4176,11.4079,11.4079,11.4079,11.4079,11.4079,11.4079,11.4079,11.4079,11.4079,11.4079,11.4079,11.4079,11.4079,11.4079,11.4079,11.4079,11.4079,11.4079,11.4079,11.4079,11.4079,11.4079,11.4079,11.4079,11.4079,11.4079,11.4079,11.4079,11.4079,11.4039,11.3957,11.3854,11.3661,11.345,11.3213,11.3038,11.2861,11.2759,11.2701,11.2701,11.2701,11.2701,11.2701,11.2701,11.2701,11.2701,11.2701,11.2701,11.2701,11.2701,11.2701,11.2701,11.2701,11.2701,11.2701,11.2701,11.2701,11.2701,11.0903,10.9119,10.8048,10.7049,12.8692,12.8692,12.8692,12.8692,12.8692,12.8692,12.8692,12.8692,12.8692,12.8692,12.8692,12.8692,12.8692,12.8692,12.8692,12.8692,12.8692,12.8692,12.8692,12.8682,12.8624,12.8502,12.8108,12.6867,12.6177,12.4736,12.3788,12.1492,11.9701,11.9042,11.8657,11.8674,11.8674,11.8331,11.8324,11.8114,11.8012,11.7914,11.7829,11.7678,11.7484,11.7147,11.6823,11.6567,11.6307,11.6001,11.5447,11.5197,11.492,11.455,11.4471,11.4352,11.4156,11.4079,11.4079,11.4079,11.4079,11.4079,11.4079,11.4079,11.4079,11.4079,11.4079,11.4079,11.4079,11.4079,11.4079,11.4079,11.4079,11.4079,11.4079,11.4079,11.4079,11.4079,11.4079,11.4079,11.4079,11.4079,11.4079,11.4079,11.4079,11.4079,11.4079,11.4039,11.3998,11.3792,11.3562,11.3364,11.3148,11.2906,11.2759,11.2723,11.2701,11.2701,11.2701,11.2701,11.2701,11.2701,11.2701,11.2701,11.2701,11.2701,11.2701,11.2701,11.2701,11.2701,11.2701,11.2701,11.2701,11.2701,11.2701,11.101,10.8726,10.7692,10.7014,12.8692,12.8692,12.8692,12.8692,12.8692,12.8692,12.8692,12.8692,12.8692,12.8692,12.8692,12.8692,12.8692,12.8692,12.8692,12.8692,12.8692,12.8616,12.8531,12.8484,12.8301,12.7659,12.6887,12.5945,12.4654,12.2822,12.1638,12.0344,11.8619,11.8287,11.8239,11.8276,11.8254,11.8149,11.8068,11.7986,11.7841,11.7692,11.7561,11.7363,11.7105,11.6771,11.6455,11.6158,11.5762,11.5484,11.5197,11.49,11.4611,11.4471,11.4313,11.4176,11.41,11.4079,11.4079,11.4079,11.4079,11.4079,11.4079,11.4079,11.4079,11.4079,11.4079,11.4079,11.4079,11.4079,11.4079,11.4079,11.4079,11.4079,11.4079,11.4079,11.4079,11.4079,11.4079,11.4079,11.4079,11.4079,11.4079,11.4079,11.4079,11.4079,11.4079,11.4059,11.4018,11.3834,11.3647,11.3471,11.3256,11.2994,11.2803,11.2781,11.2701,11.2701,11.2701,11.2701,11.2701,11.2701,11.2701,11.2701,11.2701,11.2701,11.2701,11.2701,11.2701,11.2701,11.2701,11.2701,11.2701,11.2701,11.2701,11.1545,10.9155,10.7763,10.6636,12.8692,12.8692,12.8692,12.8692,12.8692,12.8692,12.8692,12.8692,12.8692,12.8692,12.8692,12.8692,12.8692,12.8692,12.8692,12.8692,12.8371,12.7975,12.7457,12.7164,12.6481,12.549,12.4879,12.3797,12.2346,12.1195,11.998,11.902,11.8272,11.8186,11.816,11.8186,11.8186,11.8129,11.8024,11.7854,11.7703,11.7495,11.7184,11.6918,11.6726,11.6413,11.6047,11.5745,11.5359,11.5105,11.49,11.457,11.4432,11.4313,11.4176,11.41,11.4079,11.4079,11.4079,11.4079,11.4079,11.4079,11.4079,11.4079,11.4079,11.4079,11.4079,11.4079,11.4079,11.4079,11.4079,11.4079,11.4079,11.4079,11.4079,11.4079,11.4079,11.4079,11.4079,11.4079,11.4079,11.4079,11.4079,11.4079,11.4079,11.4079,11.4079,11.4059,11.4018,11.3932,11.3766,11.3556,11.3378,11.3126,11.2892,11.2848,11.2701,11.2701,11.2701,11.2701,11.2701,11.2701,11.2701,11.2701,11.2701,11.2701,11.2701,11.2701,11.2701,11.2701,11.2701,11.2701,11.2701,11.2701,11.2486,11.1737,10.9511,10.7549,10.6208,12.8466,12.8692,12.8692,12.8692,12.8692,12.8692,12.8692,12.8692,12.8692,12.8692,12.8692,12.8654,12.8541,12.824,12.8278,12.8005,12.7166,12.6307,12.5692,12.5409,12.4489,12.3423,12.2973,12.1993,12.0927,12.0128,11.92,11.8407,11.8186,11.8186,11.8186,11.8186,11.8186,11.8106,11.794,11.7704,11.7534,11.7184,11.6867,11.6549,11.6275,11.5978,11.5674,11.5215,11.5031,11.4804,11.457,11.4452,11.4316,11.412,11.4079,11.4079,11.4079,11.4079,11.4079,11.4079,11.4079,11.4079,11.4079,11.4079,11.4079,11.4079,11.4079,11.4079,11.4079,11.4079,11.4079,11.4079,11.4079,11.4079,11.4079,11.4079,11.4079,11.4079,11.4079,11.4079,11.4079,11.4079,11.4079,11.4079,11.4079,11.4079,11.4079,11.4059,11.4039,11.3978,11.3792,11.3605,11.3428,11.3213,11.298,11.2848,11.2723,11.2701,11.2701,11.2701,11.2701,11.2701,11.2701,11.2701,11.2701,11.2701,11.2701,11.2701,11.2701,11.2701,11.2701,11.2701,11.2701,11.2701,11.2308,11.1844,11.0061,10.8298,10.6707,12.7489,12.8692,12.8692,12.8654,12.8692,12.8654,12.8692,12.8692,12.8692,12.8616,12.8654,12.8692,12.7752,12.6925,12.6661,12.5748,12.4804,12.4064,12.3937,12.3803,12.302,12.219,12.1333,12.0689,11.9986,11.8669,11.8272,11.8197,11.8186,11.8186,11.8186,11.8186,11.8186,11.8071,11.7866,11.7665,11.7336,11.6882,11.658,11.6264,11.5832,11.5517,11.5233,11.4864,11.4689,11.453,11.4452,11.4313,11.4176,11.4079,11.4079,11.4079,11.4079,11.4079,11.4079,11.4079,11.4079,11.4079,11.4079,11.4079,11.4079,11.4079,11.4079,11.4079,11.4079,11.4079,11.4079,11.4079,11.4079,11.4079,11.4079,11.4079,11.4079,11.4079,11.4079,11.4079,11.4079,11.4079,11.4079,11.4079,11.4079,11.4079,11.4079,11.4079,11.4079,11.4039,11.3854,11.3667,11.3492,11.3278,11.3024,11.287,11.2745,11.2701,11.2701,11.2701,11.2701,11.2701,11.2701,11.2701,11.2701,11.2701,11.2701,11.2701,11.2701,11.2701,11.2701,11.2701,11.2701,11.2701,11.2379,11.1773,11.056,10.9062,10.7399,12.543,12.6182,12.7047,12.7461,12.7573,12.8316,12.8692,12.8692,12.8692,12.824,12.7601,12.7451,12.6482,12.4939,12.4854,12.4494,12.3651,12.3438,12.2935,12.1998,12.0962,12.0222,11.9451,11.9267,11.9058,11.8373,11.8186,11.8186,11.8186,11.8186,11.8186,11.8186,11.8186,11.8047,11.7817,11.755,11.7161,11.668,11.6328,11.5934,11.552,11.5233,11.4994,11.465,11.4396,11.4313,11.4313,11.4176,11.41,11.4079,11.4079,11.4079,11.4079,11.4079,11.4079,11.4079,11.4079,11.4079,11.4079,11.4079,11.4079,11.4079,11.4079,11.4079,11.4079,11.4079,11.4079,11.4079,11.4079,11.4079,11.4079,11.4079,11.4079,11.4079,11.4079,11.4079,11.4079,11.4079,11.4079,11.4079,11.4079,11.4079,11.4079,11.4079,11.4079,11.4079,11.3916,11.3751,11.3577,11.3343,11.3068,11.2848,11.2745,11.2701,11.2701,11.2701,11.2701,11.2701,11.2701,11.2701,11.2701,11.2701,11.2701,11.2701,11.2701,11.2701,11.2701,11.2701,11.2701,11.2701,11.2451,11.1737,11.0752,10.9375,10.7856,12.3513,12.3926,12.5242,12.5806,12.6032,12.7122,12.7601,12.7526,12.7564,12.6746,12.6022,12.5777,12.4741,12.3084,12.3064,12.2767,12.2121,12.1987,12.1709,12.0203,11.8718,11.8272,11.8261,11.831,11.8224,11.8186,11.8186,11.8186,11.8186,11.8186,11.8186,11.8186,11.8175,11.8059,11.7755,11.7423,11.7031,11.6635,11.6113,11.573,11.5341,11.516,11.4936,11.4592,11.4336,11.4196,11.41,11.4079,11.3754,11.3285,11.298,11.2707,11.2744,11.2816,11.2996,11.3213,11.3466,11.3718,11.4007,11.4079,11.4079,11.4079,11.4079,11.4079,11.4079,11.4079,11.4079,11.4079,11.4079,11.4079,11.4079,11.4079,11.4079,11.4079,11.4079,11.4079,11.4079,11.4079,11.4079,11.4079,11.4079,11.4079,11.4079,11.4079,11.4079,11.4079,11.3978,11.3849,11.364,11.3464,11.3148,11.2803,11.2759,11.2701,11.2701,11.2701,11.2701,11.2701,11.2701,11.2701,11.2701,11.2701,11.2701,11.2701,11.2701,11.2701,11.2701,11.2701,11.2701,11.2701,11.2594,11.2165,11.143,10.9795,10.829,12.2451,12.3814,12.4049,12.4077,12.4114,12.4265,12.4678,12.4415,12.4641,12.4415,12.4086,12.397,12.2944,12.1357,12.1209,12.0413,11.9097,11.9434,11.8956,11.874,11.8396,11.8186,11.8186,11.8186,11.8186,11.8186,11.8186,11.8186,11.8186,11.8186,11.8186,11.8186,11.8186,11.801,11.7767,11.7386,11.7016,11.662,11.6166,11.573,11.5359,11.5197,11.4885,11.4511,11.4207,11.4086,11.3819,11.3702,11.28,11.0128,10.9947,11.0236,11.0144,11.0056,11.0633,11.1716,11.2058,11.2599,11.3682,11.3863,11.3971,11.4079,11.4079,11.4079,11.4079,11.4079,11.4079,11.4079,11.4079,11.4079,11.4079,11.4079,11.4079,11.4079,11.4079,11.4079,11.4079,11.4079,11.4079,11.4079,11.4079,11.4079,11.4079,11.4079,11.4079,11.4079,11.3916,11.3787,11.3577,11.3364,11.3104,11.2839,11.2759,11.2701,11.2701,11.2701,11.2701,11.2701,11.2701,11.2701,11.2701,11.2701,11.2701,11.2701,11.2701,11.2701,11.2701,11.2701,11.2701,11.2701,11.2701,11.2558,11.2192,11.0441,10.9089,12.0232,12.0947,12.1962,12.2375,12.2488,12.34,12.3814,12.3814,12.3776,12.3296,12.2374,12.2203,12.1174,11.9599,11.9471,11.8936,11.8313,11.8265,11.8194,11.8186,11.8186,11.8186,11.8186,11.8186,11.8186,11.8186,11.8186,11.8186,11.8186,11.8186,11.8186,11.8186,11.8186,11.8059,11.7693,11.741,11.7016,11.6613,11.6284,11.5903,11.552,11.545,11.4814,11.3628,11.3352,11.2748,11.1869,11.1626,11.1025,10.9921,10.9464,10.9478,10.9478,10.9478,10.9731,11.0308,11.0453,11.1067,11.2346,11.278,11.3141,11.3863,11.4079,11.4079,11.4079,11.4079,11.4079,11.4079,11.4079,11.4079,11.4079,11.4079,11.4079,11.4079,11.4079,11.4079,11.4079,11.4079,11.4079,11.4079,11.4079,11.4079,11.4079,11.4079,11.4079,11.4039,11.3896,11.3667,11.3514,11.3278,11.306,11.2848,11.2701,11.2701,11.2701,11.2701,11.2701,11.2701,11.2701,11.2701,11.2701,11.2701,11.2701,11.2701,11.2701,11.2701,11.2701,11.2701,11.2701,11.2701,11.2701,11.2535,11.2057,11.0854,10.9798,11.839,11.8907,12.012,12.0637,12.0834,12.1887,12.2422,12.2451,12.2357,12.151,12.0681,12.0396,11.9674,11.8487,11.8368,11.8276,11.8209,11.816,11.8186,11.8186,11.8186,11.8186,11.8186,11.8186,11.8186,11.8186,11.8186,11.8186,11.8186,11.8186,11.8186,11.8186,11.77,11.7335,11.7034,11.6261,11.584,11.5521,11.515,11.4745,11.4476,11.4338,11.3619,11.2207,11.208,11.1427,11.03,10.9918,10.9535,10.8774,10.8388,10.8235,10.7997,10.7961,10.8142,10.8628,10.8828,10.9458,11.085,11.1572,11.2274,11.3357,11.3791,11.4079,11.4079,11.4079,11.4079,11.4079,11.4079,11.4079,11.4079,11.4079,11.4079,11.4079,11.4079,11.4079,11.4079,11.4079,11.4079,11.4079,11.4079,11.4079,11.4079,11.4079,11.4079,11.4039,11.3834,11.3583,11.345,11.327,11.295,11.2781,11.2701,11.2701,11.2701,11.2701,11.2665,11.2665,11.2308,11.2094,11.1617,11.1773,11.213,11.2616,11.2509,11.2665,11.2701,11.2701,11.2701,11.2701,11.2656,11.2507,11.1957,11.1502,11.0385,11.745,11.8729,11.8917,11.9029,11.9105,11.9217,11.9443,11.9199,11.9171,11.9124,11.8877,11.8838,11.8572,11.8417,11.8254,11.822,11.8186,11.8186,11.8186,11.8186,11.7962,11.7887,11.7812,11.7663,11.7551,11.7737,11.7786,11.7887,11.7588,11.7674,11.8186,11.7625,11.6429,11.5726,11.5377,11.3731,11.3096,11.3007,11.2404,11.2214,11.2116,11.1722,11.1271,11.1128,11.0942,11.0607,10.9998,10.975,10.8677,10.6377,10.587,10.5638,10.5074,10.4892,10.5831,10.7004,10.7076,10.7942,10.9442,11.0505,11.148,11.1933,11.3052,11.4079,11.3935,11.3935,11.4079,11.4079,11.4079,11.4079,11.4079,11.4079,11.4079,11.4079,11.4079,11.4079,11.4079,11.4079,11.4079,11.4079,11.4079,11.4079,11.4079,11.4079,11.4079,11.4018,11.3766,11.3613,11.3443,11.3148,11.2861,11.2759,11.2701,11.2701,11.2701,11.2665,11.2486,11.213,11.1202,11.0403,10.9476,11.0096,11.0631,11.1666,11.2259,11.2544,11.2701,11.2701,11.2701,11.2633,11.252,11.2407,11.2129,11.1708,11.0871,11.6837,11.7426,11.8433,11.8858,11.8766,11.8757,11.8757,11.8757,11.8683,11.8635,11.8593,11.8528,11.8396,11.8265,11.8209,11.8186,11.8186,11.8186,11.8186,11.8074,11.7177,11.6616,11.6504,11.5681,11.512,11.512,11.512,11.512,11.5158,11.512,11.5147,11.512,11.4511,11.4119,11.3882,11.3121,11.2578,11.236,11.2014,11.1914,11.1798,11.1584,11.0938,10.9896,10.963,10.901,10.7913,10.7913,10.7263,10.6113,10.5609,10.5269,10.4878,10.4823,10.4985,10.538,10.5523,10.6156,10.7617,10.852,10.9117,11.038,11.1753,11.2619,11.28,11.3682,11.4043,11.4079,11.4043,11.4079,11.4079,11.4079,11.4079,11.4079,11.4043,11.4079,11.4079,11.4079,11.4079,11.4079,11.4079,11.4079,11.4079,11.4079,11.4079,11.4054,11.3781,11.3543,11.3457,11.3096,11.287,11.2723,11.2701,11.2701,11.2701,11.2522,11.2308,11.1081,10.9904,10.8691,10.7763,10.8419,10.9026,11.0011,11.1046,11.1224,11.1916,11.2094,11.2027,11.2485,11.2407,11.2081,11.1672,11.1425,11.1318,11.5377,11.5888,11.7032,11.7398,11.7339,11.7304,11.768,11.8057,11.8023,11.8232,11.8595,11.859,11.8455,11.8276,11.8243,11.822,11.8085,11.7142,11.6715,11.6491,11.5485,11.4951,11.4753,11.386,11.3315,11.3315,11.3315,11.3315,11.3389,11.3389,11.3315,11.3165,11.284,11.2534,11.2382,11.166,11.1222,11.099,11.0838,11.0705,11.0547,11.0409,10.9751,10.856,10.8325,10.7795,10.6683,10.6595,10.6438,10.6202,10.5934,10.5592,10.5181,10.5075,10.495,10.4768,10.4696,10.5219,10.6084,10.6643,10.7545,10.8647,11.0128,11.0922,11.1211,11.1949,11.2455,11.2563,11.3105,11.3357,11.3466,11.3754,11.3827,11.343,11.3357,11.343,11.3935,11.4079,11.4079,11.4079,11.4079,11.4079,11.4079,11.4079,11.4059,11.3957,11.3739,11.3464,11.3378,11.3016,11.2759,11.2723,11.2701,11.2701,11.2379,11.2058,11.0768,10.8941,10.802,10.6992,10.6529,10.6707,10.7192,10.7941,10.9012,10.9811,11.0609,11.0815,11.0455,11.0592,11.0625,11.0738,11.093,11.1071,11.1153,11.28,11.4221,11.419,11.4501,11.4555,11.457,11.5218,11.6475,11.6401,11.7046,11.8025,11.836,11.8003,11.8123,11.7764,11.8084,11.7292,11.5148,11.4057,11.3982,11.3564,11.3363,11.3288,11.3016,11.2824,11.2861,11.3112,11.3101,11.2866,11.2791,11.2829,11.2802,11.1467,11.0821,11.0794,10.9357,10.8358,10.8429,10.8357,10.8003,10.757,10.7778,10.7647,10.7278,10.7193,10.7142,10.7117,10.6854,10.6748,10.6624,10.6212,10.5768,10.5486,10.535,10.5249,10.5022,10.4968,10.4878,10.4893,10.6011,10.6679,10.7148,10.8503,10.9442,10.9478,10.9731,10.9947,11.02,11.103,11.1769,11.1985,11.2852,11.3141,11.2058,11.2005,11.2563,11.3574,11.4007,11.4079,11.4079,11.4079,11.4079,11.4079,11.4079,11.3998,11.3798,11.364,11.3486,11.3292,11.306,11.2803,11.2768,11.2834,11.2664,11.2111,11.1331,10.8984,10.703,10.6447,10.5762,10.5339,10.5324,10.5865,10.6146,10.7218,10.8062,10.8862,10.9304,10.8959,10.8853,10.8207,10.8157,10.8865,10.9655,11.0068,11.1263,11.2772,11.3884,11.4317,11.4268,11.4241,11.4548,11.4945,11.4887,11.5066,11.5482,11.5469,11.5368,11.5234,11.5117,11.5029,11.4858,11.402,11.3525,11.345,11.2408,11.1901,11.1714,11.071,11.0166,11.0193,11.0068,10.9996,10.9907,10.9886,10.9886,10.9923,10.941,10.9074,10.9026,10.8508,10.8146,10.8081,10.7993,10.7854,10.7763,10.7644,10.7509,10.7408,10.7421,10.7471,10.7496,10.7253,10.7107,10.7053,10.6711,10.6438,10.6248,10.5853,10.5489,10.5249,10.5093,10.4914,10.495,10.5147,10.5343,10.5434,10.6787,10.7726,10.7834,10.8792,10.9369,10.9478,10.9983,11.02,11.0308,11.0597,11.0722,11.0453,11.1139,11.2005,11.2511,11.3466,11.3935,11.4063,11.41,11.41,11.4079,11.4079,11.3978,11.3736,11.3652,11.3598,11.3428,11.3299,11.3256,11.3256,11.322,11.2683,11.1436,10.9634,10.7317,10.6335,10.5696,10.4856,10.4359,10.4446,10.4661,10.4816,10.54,10.6229,10.6947,10.7477,10.772,10.783,10.7148,10.666,10.7476,10.8136,10.8639,11.0315,11.1305,11.2348,11.2756,11.2685,11.2642,11.2986,11.3506,11.338,11.3638,11.408,11.4071,11.3922,11.3706,11.2539,11.1993,11.1993,11.1995,11.1978,11.1865,11.0863,11.0338,11.0254,10.9204,10.8688,10.8651,10.8566,10.8498,10.8438,10.8391,10.8381,10.836,10.834,10.8319,10.8288,10.8251,10.8247,10.8146,10.8172,10.8081,10.7959,10.7868,10.7799,10.7716,10.775,10.781,10.7726,10.7571,10.7459,10.7459,10.7107,10.6902,10.6868,10.6423,10.5934,10.5623,10.5335,10.5217,10.5092,10.4914,10.4751,10.4805,10.5671,10.6195,10.6319,10.7059,10.7689,10.7762,10.8087,10.8142,10.7889,10.7709,10.7889,10.8503,10.9406,11.0344,11.1608,11.2643,11.3566,11.4092,11.428,11.4284,11.434,11.4296,11.4156,11.3916,11.3777,11.3652,11.3583,11.3598,11.3619,11.3647,11.32,11.2126,11.0139,10.7879,10.6468,10.5737,10.5042,10.434,10.3994,10.4118,10.4229,10.4457,10.4594,10.5231,10.5374,10.5861,10.5773,10.5872,10.5682,10.5539,10.667,10.6928,10.7335,10.9798,10.9833,10.9875,11.0047,10.985,10.9853,11.0608,11.2065,11.1923,11.2668,11.3739,11.3765,11.3749,11.3346,11.0741,10.9324,10.9379,10.9497,10.9536,10.9484,10.9127,10.8933,10.8878,10.8743,10.8698,10.8735,10.867,10.8642,10.867,10.866,10.8613,10.846,10.845,10.8411,10.833,10.8309,10.8261,10.8288,10.8241,10.8226,10.8092,10.8081,10.807,10.8059,10.807,10.8015,10.7914,10.7775,10.7667,10.7716,10.7434,10.7281,10.7255,10.6952,10.6491,10.6045,10.5841,10.5643,10.5401,10.5266,10.5128,10.504,10.5113,10.495,10.4876,10.5038,10.5091,10.4748,10.6137,10.63,10.5236,10.5254,10.5616,10.6754,10.7024,10.8505,11.1142,11.1534,11.2625,11.3878,11.4249,11.4236,11.4439,11.4466,11.3833,11.3542,11.3524,11.3314,11.3118,11.3314,11.3344,11.3233,11.2354,11.0644,10.8212,10.7052,10.618,10.5363,10.4816,10.4152,10.4056,10.4036,10.4075,10.4166,10.4401,10.4418,10.4144,10.4154,10.4307,10.4295,10.4241,10.4527,10.5682,10.5845,10.6254,10.9973,10.9973,10.9965,10.9912,10.9816,10.976,11.004,11.0425,11.0413,11.0588,11.0882,11.0789,11.071,11.056,10.9814,10.9332,10.9289,10.9264,10.9257,10.9251,10.9173,10.9163,10.9113,10.9099,10.9084,10.9059,10.8899,10.8831,10.8776,10.8697,10.8641,10.8585,10.8585,10.8613,10.8574,10.8441,10.8438,10.8401,10.833,10.8268,10.8209,10.8199,10.8199,10.8199,10.8199,10.8226,10.8183,10.8037,10.797,10.7959,10.7728,10.7546,10.7446,10.7253,10.6943,10.6521,10.6145,10.5853,10.582,10.5506,10.5264,10.5249,10.5144,10.5039,10.4896,10.486,10.4751,10.4604,10.4946,10.5183,10.4859,10.486,10.5077,10.5584,10.6725,10.7559,10.8683,10.988,11.1225,11.2735,11.308,11.3043,11.2991,11.2171,11.1422,11.1179,11.1164,11.1113,11.0945,11.1165,11.1278,11.1225,11.086,10.9737,10.8378,10.7104,10.6074,10.5266,10.5055,10.4877,10.4878,10.486,10.4842,10.4623,10.4605,10.4587,10.4513,10.4288,10.426,10.4078,10.413,10.4437,10.5023,10.505,10.5396,11.0031,11.0031,11.0031,10.9946,10.9897,10.9884,10.9792,10.981,10.9816,10.9778,10.9709,10.9617,10.9596,10.9617,10.9595,10.9557,10.9497,10.9439,10.9428,10.9385,10.934,10.9332,10.9327,10.9283,10.9269,10.9252,10.9091,10.9024,10.8986,10.8928,10.8857,10.8752,10.8743,10.8744,10.8698,10.8613,10.849,10.845,10.8428,10.836,10.835,10.8309,10.8251,10.8214,10.7653,10.7306,10.7269,10.6534,10.6155,10.6145,10.5972,10.5837,10.5756,10.5503,10.5302,10.5039,10.4585,10.4276,10.4176,10.3911,10.3719,10.3601,10.4071,10.4338,10.4184,10.4696,10.4317,10.3285,10.3503,10.3937,10.408,10.4712,10.5127,10.5358,10.6135,10.7043,10.7625,10.8661,10.9969,11.1515,11.1807,11.1823,11.173,11.1021,11.0424,11.0209,11.0209,11.0407,11.0298,11.0369,11.0474,11.038,10.9387,10.8478,10.7716,10.6632,10.6091,10.5751,10.5586,10.5506,10.5387,10.5423,10.5352,10.5213,10.5108,10.4984,10.4966,10.4697,10.4605,10.4623,10.4623,10.4624,10.4842,10.5038,10.5195,11.0031,11.0031,11.0031,11.0031,11.0029,10.9894,10.9846,10.9841,10.9854,10.9823,10.9844,10.9857,10.9825,10.9798,10.9799,10.9819,10.977,10.9709,10.9655,10.9647,10.9534,10.9485,10.947,10.9378,10.9276,10.9314,10.9258,10.9289,10.9275,10.9248,10.9143,10.8907,10.8874,10.8828,10.8688,10.8698,10.8604,10.848,10.8218,10.8021,10.8001,10.7901,10.7813,10.784,10.6419,10.5698,10.5661,10.424,10.3408,10.3408,10.3381,10.3281,10.3277,10.2928,10.2693,10.2695,10.236,10.197,10.1804,10.1567,10.1537,10.1261,10.2406,10.2981,10.2892,10.3873,10.3351,10.1494,10.1855,10.2637,10.2744,10.3897,10.4617,10.4611,10.5202,10.6104,10.7252,10.7916,10.8763,11.0483,11.0725,11.0839,11.0839,11.0627,11.0525,10.9904,10.9654,10.9618,10.9828,10.9947,11.0029,10.9912,10.855,10.7036,10.6852,10.6476,10.6319,10.6206,10.5977,10.5853,10.5841,10.5808,10.5742,10.5623,10.5469,10.5435,10.537,10.5249,10.5249,10.5195,10.5213,10.523,10.5384,10.5589,10.5573,11.0031,11.0031,11.0031,11.0031,11.0031,10.9989,10.9984,10.9984,10.998,10.9975,10.997,10.998,10.9897,10.9833,10.9825,10.9807,10.982,10.9775,10.9772,10.981,10.9754,10.9728,10.9735,10.9681,10.9617,10.9543,10.9422,10.9412,10.9389,10.9302,10.9226,10.9173,10.9118,10.9084,10.8995,10.8845,10.8805,10.8603,10.6192,10.4817,10.4715,10.4677,10.4581,10.4512,10.4165,10.3978,10.3968,10.3595,10.3408,10.3408,10.3388,10.3337,10.3196,10.3122,10.2958,10.2644,10.2536,10.2375,10.2141,10.1921,10.1674,10.153,10.175,10.1706,10.1424,10.1736,10.1602,10.107,10.1011,10.1308,10.1508,10.19,10.2125,10.2374,10.3424,10.4469,10.4949,10.6111,10.7592,10.9216,10.9555,10.9481,10.9651,10.9516,10.8758,10.7788,10.754,10.7549,10.7646,10.7714,10.7861,10.7805,10.746,10.7035,10.6998,10.6929,10.6846,10.6732,10.658,10.6438,10.6316,10.6244,10.6166,10.6118,10.6066,10.6018,10.6055,10.5906,10.5771,10.5702,10.5702,10.5788,10.5784,10.6018,10.5852,11.0054,11.0047,11.0047,11.0041,11.0031,11.0031,11.0031,10.9955,10.9199,10.9274,10.9993,11.0031,10.9987,10.9935,10.9899,10.9889,10.9914,10.9914,10.9914,10.9914,10.9863,10.9428,10.8803,10.9468,10.9379,10.8641,10.9239,10.9617,10.9633,10.9543,10.9503,10.9401,10.9355,10.9301,10.9129,10.8323,10.78,10.7637,10.5187,10.3859,10.3802,10.3647,10.3582,10.3534,10.2652,10.2249,10.2249,10.1585,10.0838,10.0053,9.9267,9.8818,9.876,9.8038,9.7853,9.8335,9.8337,9.819,9.8003,9.7808,9.7951,9.8541,9.9077,9.8762,9.6999,9.6947,9.7226,9.7843,9.8545,9.9225,10.0047,10.0892,10.1501,10.1639,10.2503,10.3081,10.3299,10.4128,10.5051,10.5926,10.6084,10.6107,10.6189,10.6011,10.5413,10.4897,10.541,10.6167,10.686,10.7137,10.7311,10.734,10.739,10.7353,10.7353,10.729,10.7174,10.707,10.6902,10.6769,10.6719,10.6609,10.649,10.6451,10.6399,10.6405,10.6291,10.6213,10.6166,10.6114,10.6114,10.6161,10.6208,10.6322,10.5765,10.928,10.9341,10.9304,10.9332,10.931,10.931,10.931,10.9196,10.7799,10.795,10.9272,10.931,10.931,10.931,10.931,10.9272,10.931,10.931,10.931,10.931,10.9214,10.837,10.708,10.8457,10.8366,10.7156,10.8439,10.9141,10.9113,10.9065,10.905,10.8898,10.8857,10.8661,10.8503,10.7116,10.6183,10.571,10.4159,10.3338,10.3306,10.3089,10.2842,10.2505,10.098,10.0127,9.9828,9.8305,9.6846,9.5416,9.3958,9.3061,9.279,9.156,9.1131,9.2121,9.1948,9.1723,9.1609,9.1454,9.2115,9.3755,9.5428,9.497,9.1874,9.1911,9.2682,9.3759,9.5274,9.6568,9.7918,9.9353,10.0129,10.0354,10.1107,10.1594,10.1571,10.2165,10.2746,10.287,10.2499,10.2672,10.2869,10.2657,10.2678,10.2604,10.3638,10.4972,10.6246,10.7121,10.7372,10.7608,10.7682,10.7682,10.7644,10.7519,10.7344,10.7318,10.6858,10.6408,10.6366,10.5981,10.5579,10.5793,10.5506,10.5549,10.5533,10.5854,10.5906,10.5869,10.62,10.6383,10.6459,10.5835,10.5129,10.5871,10.585,10.5851,10.5878,10.5858,10.5858,10.5858,10.5822,10.5535,0.0,0.0,10.5858,10.5858,10.5858,10.5858,10.5858,10.5858,10.5858,10.5858,10.5858,10.5853,10.5664,10.5398,10.5657,10.5695,10.5392,10.5672,10.581,10.5802,10.57,10.5684,10.564,10.5595,10.5598,10.5528,10.5064,10.415,10.2813,10.1049,10.0078,9.9952,9.984,9.9075,9.7536,9.7216,9.6385,9.4992,9.3358,9.2342,9.2042,9.1743,9.0967,8.963,8.9201,8.8514,8.7297,8.5993,8.5213,8.5057,8.4953,8.6098,8.8905,9.1691,9.1942,8.8708,9.0919,9.2572,9.2795,9.3078,9.3362,9.3657,9.4038,9.4221,9.439,9.677,9.8507,9.8805,10.1028,10.2404,10.2775,10.2392,10.2666,10.2385,10.2227,10.2437,10.2387,10.2497,10.3333,10.4906,10.5367,10.59,10.7236,10.7608,10.7682,10.7682,10.7583,10.7545,10.7146,10.6039,10.514,10.4797,10.376,10.2801,10.2928,10.2685,10.2781,10.2804,10.3842,10.4681,10.4718,10.5712,10.6654,10.6314,10.4336,10.2418,10.4937,10.4932,10.4929,10.4958,0.0,10.4937,10.3997,10.2454,10.3327,10.4192,10.4937,10.4937,10.4937,10.4937,10.4937,10.4937,10.4936,10.4929,10.4926,10.4926,10.4953,10.4532,10.3697,10.457,10.4532,10.3735,10.4557,10.493,10.493,10.488,10.4873,10.487,10.4878,10.4901,10.486,10.4673,10.2115,9.7178,9.6968,9.6859,9.6754,9.663,9.6147,9.5164,9.5077,0.0,0.0,0.0,0.0,0.0,0.0,0.0,0.0,8.3617,8.2838,8.1249,8.1108,8.035,7.8669,7.8424,7.9353,8.1718,8.398,8.4989,8.4299,8.5704,8.6575,8.6442,8.7938,8.9208,9.0107,9.173,9.2772,9.293,9.4395,9.5092,9.4687,9.6506,9.767,9.699,9.7431,9.8232,9.8884,9.8944,9.9183,9.9939,10.0695,10.1609,10.2449,10.267,10.3684,10.6023,10.7051,10.7645,10.7608,10.7088,10.6308,10.5972,10.4658,10.359,10.3333,10.2543,10.1843,10.1843,10.1843,10.1843,10.1917,10.2469,10.3109,10.3169,10.3665,10.4108,10.3998,10.2764,10.1303,10.4001,10.3982,10.4024,10.4025,10.394,10.3298,10.1481,9.9051,10.0419,10.1783,10.3028,10.3065,10.3065,10.3028,10.3066,10.3067,10.303,10.3058,10.3051,10.3086,10.3372,10.279,10.165,10.3204,10.3279,10.2143,10.3317,10.4038,10.3998,10.3998,10.4038,10.4036,10.3676,10.3363,10.3057,0.0,0.0,0.0,9.3448,9.4175,9.4501,9.4399,9.4144,9.3703,9.3246,0.0,9.056,8.9539,8.7131,8.3143,8.139,0.0,7.7499,0.0,0.0,0.0,0.0,0.0,0.0,0.0,0.0,0.0,7.4671,7.5668,7.7894,7.8729,7.9247,7.9674,8.2019,8.4244,8.5933,8.8596,9.0239,9.0367,9.0717,9.0579,8.9657,9.1205,9.2015,9.0858,9.1879,9.3269,9.4826,9.4948,9.5636,9.7259,9.877,9.9624,9.9439,9.9984,10.1332,10.3758,10.5466,10.6605,10.6692,10.5454,10.4588,10.4241,10.2928,10.1652,10.1064,10.0709,10.042,10.0296,10.0517,10.0457,10.0812,10.1217,10.1438,10.1401,10.1612,10.1541,10.0944,10.0783,10.0359,10.0458,10.0583,10.0556,10.0527,10.0304,9.7401,9.5912,9.55,9.573,9.5969,9.6129,9.6129,9.6167,9.6167,9.6167,9.6165,9.6163,9.6167,9.6164,9.6235,9.7698,9.8247,9.8117,9.9789,10.0472,10.0244,10.0472,10.0548,10.0586,10.0586,10.0548,10.051,9.9062,9.762,9.6141,9.4658,9.3405,9.235,9.2415,9.3146,9.4586,9.4515,9.3736,9.228,9.0645,8.9027,8.7289,8.3024,8.0365,7.9683,7.803,7.5662,7.2654,7.3766,7.1824,0.0,6.573,0.0,0.0,0.0,0.0,0.0,0.0,0.0,0.0,7.0861,7.365,7.6346,7.6942,7.7873,7.9565,8.0095,8.0373,8.0427,8.1712,8.3108,8.4309,8.717,8.9443,9.0472,9.0786,9.1507,9.2899,9.3248,9.388,9.5525,9.7036,9.7482,9.6628,9.8362,10.0107,10.0738,10.2273,10.34,10.3414,10.3043,10.2635,10.2294,10.0898,9.9551,9.7897,9.6591,9.5681,9.5681,9.5828,9.6197,9.7413,9.8799,9.9707,9.9757,10.0567,10.0521,9.8476,9.7713,9.7533,9.698,9.7119,9.7098,9.6,9.4208,9.2712,9.2068,9.2075,9.2049,9.2062,9.2076,9.2166,9.2129,9.205,9.2049,9.2085,9.2157,9.2095,9.2557,9.3471,9.4262,9.5082,9.602,9.6762,9.7133,9.7095,9.7095,9.7095,9.7133,9.7095,9.7095,9.7095,9.6362,9.3317,8.8148,8.7218,8.6365,8.548,8.6319,8.7989,9.0458,9.051,9.0073,8.9267,8.7547,8.5416,8.2751,8.0539,7.8052,7.5273,7.3376,7.1709,7.0216,6.9985,6.7307,0.0,0.0,0.0,0.0,0.0,0.0,0.0,0.0,0.0,0.0,0.0,6.6865,6.9101,7.0891,7.2222,7.2953,7.4658,7.6135,7.7116,7.7907,7.8586,7.9182,8.1413,8.2739,8.2573,8.4814,8.705,8.8633,9.0378,9.2161,9.3805,9.466,9.4797,9.4314,9.5206,9.6914,9.8622,9.9487,10.0429,10.2349,10.1076,9.952,9.8413,9.6933,9.5602,9.4667,9.3891,9.335,9.335,9.3337,9.3507,9.4207,9.5681,9.6799,9.689,9.6932,9.6378,9.5129,9.4725,9.4629,9.3533,9.3519,9.1951,8.9847,8.7455,8.7446,8.7459,8.7459,8.7443,8.7455,8.7461,8.7555,8.7568,8.7457,8.7452,8.7525,8.7637,8.7922,8.8774,9.0,9.0776,9.1833,9.3116,9.351,9.3721,9.368,9.3718,9.368,9.3718,9.368,9.3716,9.3597,9.1684,8.7948,8.258,8.1206,8.0517,8.0476,8.1348,8.3193,8.5975,8.6492,8.6635,8.6529,8.4504,8.2199,7.9671,7.8407,7.5782,7.1587,6.9292,6.769,6.6764,6.5584,0.0,0.0,0.0,0.0,0.0,0.0,0.0,0.0,0.0,5.1554,5.5293,0.0,5.975,0.0,6.4609,6.707,6.7465,7.0071,0.0,0.0,7.3471,7.3344,7.3626,7.5035,7.5824,7.5357,7.8551,8.1885,8.4623,8.7148,8.9153,9.0416,9.0898,9.1158,9.1227,9.1524,9.2724,9.4874,9.5368,9.6397,9.8267,9.7352,9.5703,9.4788,9.3594,9.2511,9.2086,9.1882,9.1823,9.1811,9.1739,9.1862,9.228,9.3301,9.3891,9.2853,9.2564,9.2341,9.2448,9.2691,9.2886,9.0106,8.9697,8.3636,8.0941,8.067,8.0676,8.0679,8.0679,8.0679,8.0659,8.0651,8.0691,8.0671,8.0691,8.0668,0.0,8.0767,8.2301,8.3062,8.3353,8.6438,8.7928,8.815,8.965,9.0392,9.0341,9.0379,9.0417,9.0343,9.0341,9.0372,9.0163,8.261,8.0017,8.2083,7.7735,7.7631,8.1926,8.0752,8.0941,8.2601,8.4148,8.4974,8.4898,8.1767,7.9967,7.9582,7.5204,7.1821,6.9807,6.6642,6.3474,6.0481,0.0,0.0,0.0,0.0,0.0,0.0,0.0,0.0,0.0,0.0,0.0,0.0,0.0,0.0,5.2683,5.8361,0.0,6.401,6.5792,0.0,0.0,0.0,6.5329,6.6705,6.828,7.0307,7.3175,0.0,0.0,8.259,8.3593,8.3853,8.3955,8.5217,8.6165,8.6273,8.7622,8.8693,8.9218,8.9088,8.92,9.0307,9.0834,9.1566,9.2349,9.271,9.1528,9.0285,9.0051,9.0262,9.0077,9.0313,9.0646,9.2188,9.2181,9.1526,8.732,8.8644,9.0618,9.0503,9.1519,9.243,8.1278,7.7491,7.4878,7.3815,7.3777,7.3815,7.3777,7.3774,7.3777,7.3782,7.3796,7.3796,7.3804,7.3817,7.3801,0.0,0.0,0.0,7.6866,7.7957,8.026,8.1882,8.2916,8.3553,8.3876,8.3866,8.3896,8.3892,8.3894,8.3892,8.1387,7.641,0.0,7.2097,7.3316,7.2344,7.3758,7.7602,7.8167,7.9641,8.2178,8.2898,8.2784,8.1838,8.0524,7.787,7.3873,7.2748,7.0064,6.5319,6.1895,5.9446,0.0,0.0,0.0,0.0,0.0,0.0,0.0,0.0,0.0,0.0,0.0,3.8331,3.8372,0.0,0.0,0.0,5.1334,5.5851,6.0316,6.0381,0.0,0.0,0.0,0.0,0.0,0.0,0.0,6.5879,6.9444,7.3269,7.6686,7.725,7.8101,8.0132,8.2628,8.3931,8.3007,0.0,8.5772,8.6694,8.6906,8.7288,8.8195,8.8037,8.7589,8.7203,8.5509,8.3845,8.3288,8.3972,8.4527,8.4665,8.5292,8.6029,8.666,8.6225,8.5065,8.3467,8.3374,8.3561,8.3609,8.4885,8.6022,7.2012,0.0,0.0,0.0,0.0,6.696,6.6919,6.6957,6.696,6.6922,6.696,6.696,0.0,0.0,0.0,0.0,0.0,0.0,7.0876,7.2076,7.423,7.6126,7.7702,7.7297,7.7324,7.7734,7.7268,7.7034,7.6922,7.4685,7.0513,6.4707,0.0,0.0,0.0,0.0,6.979,7.3926,7.5813,7.8228,8.1471,8.1509,8.0748,7.9124,7.8205,7.5673,7.1418,7.05,6.7452,6.1809,5.7384,0.0,0.0,0.0,0.0,0.0,0.0,0.0,0.0,0.0,0.0,0.0,0.0,0.0,0.0,0.0,0.0,0.0,0.0,0.0,5.4695,5.5408,5.6001,0.0,0.0,0.0,0.0,0.0,0.0,0.0,0.0,0.0,6.9612,7.0352,7.212,0.0,0.0,7.9671,7.9073,8.0062,8.1281,8.2378,8.26,0.0,8.4134,8.3661,8.2769,8.1528,8.0197,7.924,7.9215,8.0106,8.0731,8.0322,8.1783,8.249,8.0898,7.9393,7.8532,7.8397,7.7586,7.7001,7.7489,7.8773,8.0102,0.0,0.0,0.0,0.0,6.0176,0.0,0.0,0.0,6.0173,6.0176,0.0,6.0176,0.0,0.0,0.0,0.0,6.0401,6.3554,0.0,0.0,6.8635,7.1021,7.2368,7.0994,7.1146,7.2548,7.1061,7.0222,6.9691,6.2145,5.8085,0.0,0.0,0.0,0.0,0.0,6.5842,7.2178,7.4085,7.6479,7.9655,7.9769,7.8974,7.7348,7.4291,7.3218,7.4262,6.8371,6.345,5.9965,5.3522,0.0,0.0,0.0,0.0,0.0,0.0,0.0,0.0,0.0,0.0,0.0,0.0,0.0,0.0,0.0,0.0,0.0,0.0,0.0,0.0,5.1186,0.0,0.0,0.0,0.0,0.0,0.0,0.0,0.0,0.0,5.9807,6.1484,6.3159,6.5877,7.0741,0.0,0.0,0.0,0.0,7.4439,7.4545,7.4491,7.4585,7.467,7.5847,7.6713,7.6438,0.0,0.0,8.0668,8.0717,8.0129,7.8843,8.0929,8.147,7.5414,7.3002,7.1965,7.1965,7.1903,7.2315,7.3859,7.5185,7.6886,0.0,0.0,0.0,0.0,0.0,0.0,0.0,0.0,0.0,5.3397,5.3399,5.3399,0.0,0.0,0.0,0.0,0.0,0.0,0.0,0.0,6.1792,6.4251,6.5788,6.4232,6.4352,6.5794,6.4272,6.0665,0.0,0.0,0.0,0.0,0.0,0.0,0.0,0.0,6.2906,7.0409,7.3442,7.5865,7.7951,7.8074,7.8286,7.874,7.4587,7.1013,6.832,6.4997,6.0164,0.0,0.0,0.0,0.0,0.0,0.0,0.0,0.0,0.0,0.0,0.0,0.0,0.0,0.0,0.0,0.0,0.0,0.0,0.0,0.0,0.0,0.0,0.0,4.9245,0.0,0.0,0.0,0.0,0.0,0.0,0.0,0.0,0.0,5.5101,5.9299,6.3036,6.4826,6.8743,7.1284,7.0909,0.0,0.0,0.0,0.0,0.0,0.0,0.0,7.4246,7.1989,7.2586,7.2552,7.0349,7.1807,7.3048,7.2532,0.0,0.0,6.8767,6.7199,6.7148,6.8269,6.7657,6.714,6.7741,6.9181,7.0487,0.0,0.0,0.0,0.0,0.0,0.0,0.0,0.0,0.0,4.6548,4.6584,0.0,0.0,0.0,0.0,0.0,0.0,0.0,0.0,0.0,0.0,0.0,5.982,5.8263,0.0,0.0,0.0,0.0,0.0,0.0,0.0,0.0,0.0,0.0,0.0,0.0,6.0924,6.7979,7.2569,7.5557,7.7098,7.7755,7.7995,7.7968,7.537,7.1303,6.5764,0.0,0.0,0.0,0.0,0.0,0.0,0.0,0.0,0.0,0.0,0.0,0.0,0.0,0.0,0.0,0.0,0.0,0.0,0.0,0.0,0.0,0.0,0.0,0.0,0.0,4.431,0.0,0.0,0.0,0.0,0.0,0.0,0.0,0.0,0.0,0.0,5.4803,5.84,6.0737,6.4782,6.7501,6.7577,7.0009,7.1582,0.0,0.0,0.0,0.0,0.0,0.0,0.0,0.0,0.0,0.0,0.0,0.0,0.0,6.8019,6.7764,6.3372,6.2198,6.2217,6.3336,0.0,0.0,0.0,0.0,0.0,0.0,0.0,0.0,0.0,0.0,0.0,0.0,0.0,0.0,0.0,3.977,0.0,0.0,3.9733,0.0,0.0,0.0,0.0,0.0,0.0,0.0,0.0,0.0,0.0,0.0,0.0,0.0,0.0,0.0,0.0,0.0,0.0,0.0,0.0,0.0,0.0,5.9928,6.4889,7.1393,7.5479,7.6984,7.8612,7.7906,7.4951,7.6116,7.3823,6.7394,0.0,0.0,0.0,0.0,0.0,0.0,0.0,0.0,0.0,0.0,0.0,0.0,0.0,0.0,0.0,0.0,0.0,0.0,0.0,0.0,0.0,0.0,0.0,0.0,0.0,0.0,3.9632,4.0844,4.1697,0.0,0.0,0.0,0.0,0.0,0.0,0.0,0.0,0.0,5.836,5.9455,6.0772,6.3896,6.5796,6.6567,6.4891,6.5951,6.6417,6.4929,6.5897,6.6204,0.0,0.0,0.0,0.0,0.0,0.0,0.0,0.0,0.0,0.0,0.0,0.0,0.0,0.0,0.0,0.0,0.0,0.0,0.0,0.0,0.0,0.0,0.0,0.0,0.0,0.0,0.0,0.0,3.6469,3.6431,0.0,0.0,0.0,0.0,0.0,0.0,0.0,0.0,0.0,0.0,0.0,0.0,0.0,0.0,0.0,0.0,0.0,0.0,0.0,0.0,0.0,0.0,0.0,0.0,5.8196,6.3157,6.9696,7.3299,7.3741,7.4253,7.4604,7.4672,7.1786,6.9304,0.0,0.0,0.0,0.0,0.0,0.0,0.0,0.0,0.0,0.0,0.0,0.0,0.0,0.0,0.0,0.0,0.0,0.0,0.0,0.0,0.0,0.0,0.0,0.0,0.0,0.0,0.0,0.0,3.8947,3.8512,3.855,0.0,0.0,0.0,0.0,0.0,0.0,0.0,0.0,0.0,0.0,6.1611,6.2583,6.517,6.6799,6.6181,6.6525,6.6732,6.6337,6.7588,6.7681,6.4926,0.0,0.0,0.0,0.0,0.0,0.0,0.0,0.0,0.0,0.0,0.0,0.0,0.0,0.0,0.0,0.0,0.0,0.0,0.0,0.0,0.0,0.0,0.0,0.0,0.0,0.0,0.0,0.0,0.0,0.0,0.0,0.0,0.0,0.0,0.0,0.0,0.0,0.0,0.0,0.0,0.0,0.0,0.0,0.0,0.0,0.0,0.0,0.0,0.0,0.0,0.0,0.0,0.0,5.6797,6.2339,6.8367,7.1425,7.1469,7.2671,7.3135,7.2925,6.9897,6.7368,0.0,0.0,0.0,0.0,0.0,0.0,0.0,0.0,0.0,0.0,0.0,0.0,0.0,0.0,0.0,0.0,0.0,0.0,0.0,0.0,0.0,0.0,0.0,0.0,0.0,0.0,0.0,0.0,3.6088,3.6233,3.6238,0.0,0.0,0.0,0.0,0.0,0.0,0.0,0.0,0.0,0.0,6.0611,6.1913,6.4408,0.0,0.0,6.5984,6.6002,6.6075,6.69,6.6414,6.3197,6.1818,0.0,0.0,0.0,0.0,0.0,0.0,0.0,0.0,0.0,0.0,0.0,0.0,0.0,0.0,0.0,0.0,0.0,0.0,0.0,0.0,0.0,0.0,0.0,0.0,0.0,0.0,0.0,0.0,0.0,0.0,0.0,0.0,0.0,0.0,0.0,0.0,0.0,0.0,0.0,0.0,0.0,0.0,0.0,0.0,0.0,0.0,0.0,0.0,0.0,0.0,0.0,0.0,5.5578,6.2148,6.7236,6.9857,7.0073,7.2957,7.2975,6.9761,6.9666,6.7242,0.0,0.0,0.0,0.0,0.0,0.0,0.0,0.0,0.0,0.0,0.0,0.0,0.0,0.0,0.0,0.0,0.0,0.0,0.0,0.0,0.0,0.0,0.0,0.0,0.0,0.0,0.0,0.0,0.0,0.0,0.0,0.0,0.0,0.0,0.0,0.0,0.0,0.0,0.0,0.0,0.0,5.8192,6.1397,6.3211,6.416,0.0,6.4111,6.4214,6.423,6.4403,6.3481,6.0203,0.0,0.0,0.0,0.0,0.0,0.0,0.0,0.0,0.0,0.0,0.0,0.0,0.0,0.0,0.0,0.0,0.0,0.0,0.0,0.0,0.0,0.0,0.0,0.0,0.0,0.0,0.0,0.0,0.0,0.0,0.0,0.0,0.0,0.0,0.0,0.0,0.0,0.0,0.0,0.0,0.0,0.0,0.0,0.0,0.0,0.0,0.0,0.0,0.0,0.0,0.0,0.0,0.0,0.0,6.0587,6.556,6.8716,6.9932,7.0805,7.0193,6.8086,6.682,0.0,0.0,0.0,0.0,0.0,0.0,0.0,0.0,0.0,0.0,0.0,0.0,0.0,0.0,0.0,0.0,0.0,0.0,0.0,0.0,0.0,0.0,0.0,0.0,0.0,0.0,0.0,2.52,0.0,0.0,0.0,0.0,0.0,0.0,0.0,0.0,0.0,0.0,0.0,0.0,0.0,0.0,5.6121,5.8107,5.9854,6.0446,0.0,0.0,6.094,6.1026,6.3099,6.3559,0.0,0.0,0.0,0.0,0.0,0.0,0.0,0.0,0.0,0.0,0.0,0.0,0.0,0.0,0.0,0.0,0.0,0.0,0.0,0.0,0.0,0.0,0.0,0.0,0.0,0.0,0.0,0.0,0.0,0.0,0.0,0.0,0.0,0.0,0.0,0.0,0.0,0.0,0.0,0.0,0.0,0.0,0.0,0.0,0.0,0.0,0.0,0.0,0.0,0.0,0.0,0.0,0.0,0.0,5.2576,5.9902,6.419,6.7193,6.8831,6.959,6.8832,6.6434,6.5403,6.259,0.0,0.0,0.0,0.0,0.0,0.0,0.0,0.0,0.0,0.0,0.0,0.0,0.0,0.0,0.0,0.0,0.0,0.0,0.0,0.0,0.0,0.0,0.0,0.0,0.0,0.0,0.0,0.0,0.0,0.0,0.0,0.0,0.0,0.0,0.0,0.0,0.0,0.0,0.0,0.0,0.0,0.0,5.8004,5.9758,0.0,0.0,0.0,6.112,6.1943,0.0,0.0,0.0,0.0,0.0,0.0,0.0,0.0,0.0,0.0,0.0,0.0,0.0,0.0,0.0,0.0,0.0,0.0,0.0,0.0,0.0,0.0,0.0,0.0,0.0,0.0,0.0,0.0,0.0,0.0,0.0,0.0,0.0,0.0,0.0,0.0,0.0,0.0,0.0,0.0,0.0,0.0,0.0,0.0,0.0,0.0,0.0,0.0,0.0,0.0,0.0,0.0,0.0,0.0,0.0,0.0,0.0,5.9789,6.328,6.5825,6.7728,6.9209,6.8338,6.5033,6.4881,6.2488,0.0,0.0,0.0,0.0,0.0,0.0,0.0,0.0,0.0,0.0,0.0,0.0,0.0,0.0,0.0,0.0,0.0,0.0,0.0,0.0,0.0,0.0,0.0,0.0,0.0,0.0,0.0,0.0,0.0,0.0,0.0,0.0,0.0,0.0,0.0,0.0,0.0,0.0,0.0,0.0,0.0,5.512,5.8316,6.0135,6.1646,0.0,0.0,6.1463,6.2943,5.9434,0.0,0.0,0.0,0.0,0.0,0.0,0.0,0.0,0.0,0.0,0.0,0.0,0.0,0.0,0.0,0.0,0.0,0.0,0.0,0.0,0.0,0.0,0.0,0.0,0.0,0.0,0.0,0.0,0.0,0.0,0.0,0.0,0.0,0.0,0.0,0.0,0.0,0.0,0.0,0.0,0.0,0.0,0.0,0.0,0.0,0.0,0.0,0.0,0.0,0.0,0.0,0.0,0.0,0.0,0.0,0.0,5.9754,6.3243,6.6395,6.9323,6.9816,6.8375,6.5073,6.4882,6.1957,0.0,0.0,0.0,0.0,0.0,0.0,0.0,0.0,0.0,0.0,0.0,0.0,0.0,0.0,0.0,0.0,0.0,0.0,0.0,0.0,0.0,0.0,0.0,0.0,0.0,0.0,0.0,0.0,0.0,0.0,0.0,0.0,0.0,0.0,0.0,0.0,0.0,0.0,0.0,0.0,0.0,4.9638,5.1675,5.3416,0.0,0.0,0.0,0.0,5.2938,5.2143,0.0,0.0,0.0,0.0,0.0,0.0,0.0,0.0,0.0,0.0,0.0,0.0,0.0,0.0,0.0,0.0,0.0,0.0,0.0,0.0,0.0,0.0,0.0,0.0,0.0,0.0,0.0,0.0,0.0,0.0,0.0,0.0,0.0,0.0,0.0,0.0,0.0,0.0,0.0,0.0,0.0,0.0,0.0,0.0,0.0,0.0,0.0,0.0,0.0,0.0,0.0,0.0,0.0,0.0,0.0,0.0,5.8542,6.2869,6.5793,6.7502,6.8337,6.7161,6.3934,6.3782,6.0668,0.0,0.0,0.0,0.0,0.0,0.0,0.0,0.0,0.0,0.0,0.0,0.0,0.0,0.0,0.0,0.0,0.0,0.0,0.0,0.0,0.0,0.0,0.0,0.0,0.0,0.0,0.0,0.0,0.0,0.0,0.0,0.0,0.0,0.0,0.0,0.0,0.0,0.0,0.0,0.0,4.3019,4.5974,4.8397,0.0,0.0,0.0,0.0,0.0,0.0,4.8595,4.6963,0.0,0.0,0.0,0.0,0.0,0.0,0.0,0.0,0.0,0.0,0.0,0.0,0.0,0.0,0.0,0.0,0.0,0.0,0.0,0.0,0.0,0.0,0.0,0.0,0.0,0.0,0.0,0.0,0.0,0.0,0.0,0.0,0.0,0.0,0.0,0.0,0.0,0.0,0.0,0.0,0.0,0.0,0.0,0.0,0.0,0.0,0.0,0.0,0.0,0.0,0.0,0.0,0.0,0.0,0.0,5.7442,6.215,6.4693,6.4921,6.6592,6.5908,6.2757,6.2302,5.8999,5.2317,0.0,0.0,0.0,0.0,0.0,0.0,0.0,0.0,0.0,0.0,0.0,0.0,0.0,0.0,0.0,0.0,0.0,0.0,0.0,0.0,0.0,0.0,0.0,0.0,0.0,0.0,0.0,0.0,0.0,0.0,0.0,0.0,0.0,0.0,0.0,0.0,0.0,0.0,0.0,3.9421,4.2835,0.0,0.0,0.0,0.0,0.0,0.0,0.0,0.0,4.2761,0.0,0.0,0.0,0.0,0.0,0.0,0.0,0.0,0.0,0.0,0.0,0.0,0.0,0.0,0.0,0.0,0.0,0.0,0.0,0.0,0.0,0.0,0.0,0.0,0.0,0.0,0.0,0.0,0.0,0.0,0.0,0.0,0.0,0.0,0.0,0.0,0.0,0.0,0.0,0.0,0.0,0.0,0.0,0.0,0.0,0.0,0.0,0.0,0.0,0.0,0.0,0.0,0.0,0.0,0.0,0.0,6.1087,6.3592,6.4921,6.6554,6.5908,6.2719,6.1239,5.729,5.057,0.0,0.0,0.0,0.0,0.0,0.0,0.0,0.0,0.0,0.0,0.0,0.0,0.0,0.0,0.0,0.0,0.0,0.0,0.0,0.0,0.0,0.0,0.0,0.0,0.0,0.0,0.0,0.0,0.0,0.0,0.0,0.0,0.0,0.0,0.0,0.0,0.0,0.0,3.0394,3.5287,0.0,0.0,0.0,0.0,0.0,0.0,0.0,0.0,3.874,0.0,0.0,0.0,0.0,0.0,0.0,0.0,0.0,0.0,0.0,0.0,0.0,0.0,0.0,0.0,0.0,0.0,0.0,0.0,0.0,0.0,0.0,0.0,0.0,0.0,0.0,0.0,0.0,0.0,0.0,0.0,0.0,0.0,0.0,0.0,0.0,0.0,0.0,0.0,0.0,0.0,0.0,0.0,0.0,0.0,0.0,0.0,0.0,0.0,0.0,0.0,0.0,0.0,0.0,0.0,0.0,0.0,0.0,6.2036,6.363,6.4466,6.4162,6.2567,5.9226,5.5012,0.0,0.0,0.0,0.0,0.0,0.0,0.0,0.0,0.0,0.0,0.0,0.0,0.0,0.0,0.0,0.0,0.0,0.0,0.0,0.0,0.0,0.0,0.0,0.0,0.0,0.0,0.0,0.0,0.0,0.0,0.0,0.0,0.0,0.0,0.0,0.0,0.0,0.0,0.0,0.0,0.0,0.0,0.0,0.0,0.0,0.0,0.0,0.0,0.0,0.0,0.0,0.0,0.0,0.0,0.0,0.0,0.0,0.0,0.0,0.0,0.0,0.0,0.0,0.0,0.0,0.0,0.0,0.0,0.0,0.0,0.0,0.0,0.0,0.0,0.0,0.0,0.0,0.0,0.0,0.0,0.0,0.0,0.0,0.0,0.0,0.0,0.0,0.0,0.0,0.0,0.0,0.0,0.0,0.0,0.0,0.0,0.0,0.0,0.0,0.0,0.0,0.0,0.0,0.0,0.0,0.0,0.0,0.0,6.0175,6.1466,6.2226,6.2415,6.2036,5.7138,5.2734,0.0,0.0,0.0,0.0,0.0,0.0,0.0,0.0,0.0,0.0,0.0,0.0,0.0,0.0,0.0,0.0,0.0,0.0,0.0,0.0,0.0,0.0,0.0,0.0,0.0,0.0,0.0,0.0,0.0,0.0,0.0,0.0,0.0,0.0,0.0,0.0,0.0,0.0,0.0,0.0,0.0,0.0,0.0,0.0,0.0,0.0,0.0,0.0,3.4452,0.0,0.0,0.0,0.0,0.0,0.0,0.0,0.0,0.0,0.0,0.0,0.0,0.0,0.0,0.0,0.0,0.0,0.0,0.0,0.0,0.0,0.0,0.0,0.0,0.0,0.0,0.0,0.0,0.0,0.0,0.0,0.0,0.0,0.0,0.0,0.0,0.0,0.0,0.0,0.0,0.0,0.0,0.0,0.0,0.0,0.0,0.0,0.0,0.0,0.0,0.0,0.0,0.0,0.0,0.0,0.0,0.0,0.0,0.0,5.7897,5.8087,6.1011,6.1846,6.0289,5.543,5.0494,0.0,0.0,0.0,0.0,0.0,0.0,0.0,0.0,0.0,0.0,0.0,0.0,0.0,0.0,0.0,0.0,0.0,0.0,0.0,0.0,0.0,0.0,0.0,0.0,0.0,0.0,0.0,0.0,0.0,0.0,0.0,0.0,0.0,0.0,0.0,0.0,0.0,0.0,0.0,0.0,0.0,0.0,0.0,0.0,0.0,0.0,0.0,0.0,0.0,0.0,0.0,0.0,0.0,0.0,0.0,0.0,0.0,0.0,0.0,0.0,0.0,0.0,0.0,0.0,0.0,0.0,0.0,0.0,0.0,0.0,0.0,0.0,0.0,0.0,0.0,0.0,0.0,0.0,0.0,0.0,0.0,0.0,0.0,0.0,0.0,0.0,0.0,0.0,0.0,0.0,0.0,0.0,0.0,0.0,0.0,0.0,0.0,0.0,0.0,0.0,0.0,0.0,0.0,0.0,0.0,0.0,0.0,0.0,5.5048,5.8922,5.9454,5.8391,5.5696,5.2658,4.871,0.0,0.0,0.0,0.0,0.0,0.0,0.0,0.0,0.0,0.0,0.0,0.0,0.0,0.0,0.0,0.0,0.0,0.0,0.0,0.0,0.0,0.0,0.0,0.0,0.0,0.0,0.0,0.0,0.0,0.0,0.0,0.0,0.0,0.0,0.0,0.0,0.0,0.0,0.0,0.0,0.0,0.0,0.0,0.0,0.0,0.0,0.0,0.0,0.0,0.0,0.0,0.0,0.0,0.0,0.0,0.0,0.0,0.0,0.0,0.0,0.0,0.0,0.0,0.0,0.0,0.0,0.0,0.0,0.0,0.0,0.0,0.0,0.0,0.0,0.0,0.0,0.0,0.0,0.0,0.0,0.0,0.0,0.0,0.0,0.0,0.0,0.0,0.0,0.0,0.0,0.0,0.0,0.0,0.0,0.0,0.0,0.0,0.0,0.0,0.0,0.0,0.0,0.0,0.0,0.0,0.0,0.0,0.0,0.0,5.7099,5.5771,5.3721,5.1253,4.9545,4.6318,0.0,0.0,0.0,0.0,0.0,0.0,0.0,0.0,0.0,0.0,0.0,0.0,0.0,0.0,0.0,0.0,0.0,0.0,0.0,0.0,0.0,0.0,0.0,0.0,0.0,0.0,0.0,0.0,0.0,0.0,0.0,0.0,0.0,0.0,0.0,0.0,0.0,0.0,0.0,0.0,0.0,0.0,0.0,0.0,0.0,0.0,0.0,0.0,0.0,0.0,0.0,0.0,0.0,0.0,0.0,0.0,0.0,0.0,0.0,0.0,0.0,0.0,0.0,0.0,0.0,0.0,0.0,0.0,0.0,0.0,0.0,0.0,0.0,0.0,0.0,0.0,0.0,0.0,0.0,0.0,0.0,0.0,0.0,0.0,0.0,0.0,0.0,0.0,0.0,0.0,0.0,0.0,0.0,0.0,0.0,0.0,0.0,0.0,0.0,0.0,0.0,0.0,0.0,0.0,0.0,0.0,0.0,0.0,0.0,5.0493,4.8862,4.7948,4.768,4.605,4.2862,0.0,0.0,0.0,0.0,0.0,0.0,0.0,0.0,0.0,0.0,0.0,0.0,0.0,0.0,0.0,0.0,0.0,0.0,0.0,0.0,0.0,0.0,0.0,0.0,0.0,0.0,0.0,0.0,0.0,0.0,0.0,0.0,0.0,0.0,0.0,0.0,0.0,0.0,0.0,0.0,0.0,0.0,0.0,0.0,0.0,0.0,0.0,0.0,0.0,0.0,0.0,0.0,0.0,0.0,0.0,0.0,0.0,0.0,0.0,0.0,0.0,0.0,0.0,0.0,0.0,0.0,0.0,0.0,0.0,0.0,0.0,0.0,0.0,0.0,0.0,0.0,0.0,0.0,0.0,0.0,0.0,0.0,0.0,0.0,0.0,0.0,0.0,0.0,0.0,0.0,0.0,0.0,0.0,0.0,0.0,0.0,0.0,0.0,0.0,0.0,0.0,0.0,0.0,0.0,0.0,0.0,0.0,0.0,0.0,4.3812,4.5102,4.5364,4.4375,4.2745,4.0013,3.6103,0.0,0.0,0.0,0.0,0.0,0.0,0.0,0.0,0.0,0.0,0.0,0.0,0.0,0.0,0.0,0.0,0.0,0.0,0.0,0.0,0.0,0.0,0.0,0.0,0.0,0.0,0.0,0.0,0.0,0.0,0.0,0.0,0.0,0.0,0.0,0.0,0.0,0.0,0.0,0.0,0.0,0.0,0.0,0.0,0.0,0.0,0.0,0.0,0.0,0.0,0.0,0.0,0.0,0.0,0.0,0.0,0.0,0.0,0.0,0.0,0.0,0.0,0.0,0.0,0.0,0.0,0.0,0.0,0.0,0.0,0.0,0.0,0.0,0.0,0.0,0.0,0.0,0.0,0.0,0.0,0.0,0.0,0.0,0.0,0.0,0.0,0.0,0.0,0.0,0.0,0.0,0.0,0.0,0.0,0.0,0.0,0.0,0.0,0.0,0.0,0.0,0.0,0.0,0.0,0.0,0.0,0.0,0.0,3.9256,4.1455,4.2094,4.103,3.9856,3.7657,0.0,0.0,0.0,0.0,0.0,0.0,0.0,0.0,0.0,0.0,0.0,0.0,0.0,0.0,0.0,0.0,0.0,0.0,0.0,0.0,0.0,0.0,0.0,0.0,0.0,0.0,0.0,0.0,0.0,0.0,0.0,0.0,0.0,0.0,0.0,0.0,0.0,0.0,0.0,0.0,0.0,0.0,0.0,0.0,0.0,0.0,0.0,0.0,0.0,0.0,0.0,0.0,0.0,0.0,0.0,0.0,0.0,0.0,0.0,0.0,0.0,0.0,0.0,0.0,0.0,0.0,0.0,0.0,0.0,0.0,0.0,0.0,0.0,0.0,0.0,0.0,0.0,0.0,0.0,0.0,0.0,0.0,0.0,0.0,0.0,0.0,0.0,0.0,0.0,0.0,0.0,0.0,0.0,0.0,0.0,0.0,0.0,0.0,0.0,0.0,0.0,0.0,0.0,0.0,0.0,0.0,0.0,0.0,3.4168,3.7318,3.7578,3.776,3.7562,3.7494,3.5906,0.0,0.0,0.0,0.0,0.0,0.0,0.0,0.0,0.0,0.0,0.0,0.0,0.0,0.0,0.0,0.0,0.0,0.0,0.0,0.0,0.0,0.0,0.0,0.0,0.0,0.0,0.0,0.0,0.0,0.0,0.0,0.0,0.0,0.0,0.0,0.0,0.0,0.0,0.0,0.0,0.0,0.0,0.0,0.0,0.0,0.0,0.0,0.0,0.0,0.0,0.0,0.0,0.0,0.0,0.0,0.0,0.0,0.0,0.0,0.0,0.0,0.0,0.0,0.0,0.0,0.0,0.0,0.0,0.0,0.0,0.0,0.0,0.0,0.0,0.0,0.0,0.0,0.0,0.0,0.0,0.0,0.0,0.0,0.0,0.0,0.0,0.0,0.0,0.0,0.0,0.0,0.0,0.0,0.0,0.0,0.0,0.0,0.0,0.0,0.0,0.0,0.0,0.0,0.0,0.0,0.0,0.0,0.0,0.0,3.4015,0.0,3.5816,3.578,3.4716,3.3583,0.0,0.0,0.0,0.0,0.0,0.0,0.0,0.0,0.0,0.0,0.0,0.0,0.0,0.0,0.0,0.0,0.0,0.0,0.0,0.0,0.0,0.0,0.0,0.0,0.0,0.0,0.0,0.0,0.0,0.0,0.0,0.0,0.0,0.0,0.0,0.0,0.0,0.0,0.0,0.0,0.0,0.0,0.0,0.0,0.0,0.0,0.0,0.0,0.0,0.0,0.0,0.0,0.0,0.0,0.0,0.0,0.0,0.0,0.0,0.0,0.0,0.0,0.0,0.0,0.0,0.0,0.0,0.0,0.0,0.0,0.0,0.0,0.0,0.0,0.0,0.0,0.0,0.0,0.0,0.0,0.0,0.0,0.0,0.0,0.0,0.0,0.0,0.0,0.0,0.0,0.0,0.0,0.0,0.0,0.0,0.0,0.0,0.0,0.0,0.0,0.0,0.0,0.0,0.0,0.0,0.0,0.0,0.0,0.0,3.071,3.2902,3.411,3.4034,3.3045,3.1909,0.0,0.0,0.0,0.0,0.0,0.0,0.0,0.0,0.0,0.0,0.0,0.0,0.0,0.0,0.0,0.0,0.0,0.0,0.0,0.0,0.0,0.0,0.0,0.0,0.0,0.0,0.0,0.0,0.0,0.0,0.0,0.0,0.0,0.0,0.0,0.0,0.0,0.0,0.0,0.0,0.0,0.0,0.0,0.0,0.0,0.0,0.0,0.0,0.0,0.0,0.0,0.0,0.0,0.0,0.0,0.0,0.0,0.0,0.0,0.0,0.0,0.0,0.0,0.0,0.0,0.0,0.0,0.0,0.0,0.0,0.0,0.0,0.0,0.0,0.0,0.0,0.0,0.0,0.0,0.0,0.0,0.0,0.0,0.0,0.0,0.0,0.0,0.0,0.0,0.0,0.0,0.0,0.0,0.0,0.0,0.0,0.0,0.0,0.0,0.0,0.0,0.0,0.0,0.0,0.0,0.0,0.0,0.0,0.0,2.7439,3.0442,3.2148,3.2022,3.2135,3.062,0.0,0.0,0.0,0.0,0.0,0.0,0.0,0.0,0.0,0.0,0.0,0.0,0.0,0.0,0.0,0.0,0.0,0.0,0.0,0.0,0.0,0.0,0.0,0.0,0.0,0.0,0.0,0.0,0.0,0.0,0.0,0.0,0.0,0.0,0.0,0.0,0.0,0.0,0.0,0.0,0.0,0.0,0.0,0.0,0.0,0.0,0.0,0.0,0.0,0.0,0.0,0.0,0.0,0.0,0.0,0.0,0.0,0.0,0.0,0.0,0.0,0.0,0.0,0.0,0.0,0.0,0.0,0.0,0.0,0.0,0.0,0.0,0.0,0.0,0.0,0.0,0.0,0.0,0.0,0.0,0.0,0.0,0.0,0.0,0.0,0.0,0.0,0.0,0.0,0.0,0.0,0.0,0.0,0.0,0.0,0.0,0.0,0.0,0.0,0.0,0.0,0.0,0.0,0.0,0.0,0.0,0.0,0.0,0.0,0.0,2.6604,2.7056,2.6969,2.6967,2.6555,2.5767,0.0,0.0,0.0,0.0,0.0,0.0,0.0,0.0,0.0,0.0,0.0,0.0,0.0,0.0,0.0,0.0,0.0,0.0,0.0,0.0,0.0,0.0,0.0,0.0,0.0,0.0,0.0,0.0,0.0,0.0,0.0,0.0,0.0,0.0,0.0,0.0,0.0,0.0,0.0,0.0,0.0,0.0,0.0,0.0,0.0,0.0,0.0,0.0,0.0,0.0,0.0,0.0,0.0,0.0,0.0,0.0,0.0,0.0,0.0,0.0,0.0,0.0,0.0,0.0,0.0,0.0,0.0,0.0,0.0,0.0,0.0,0.0,0.0,0.0,0.0,0.0,0.0,0.0,0.0,0.0,0.0,0.0,0.0,0.0,0.0,0.0,0.0,0.0,0.0,0.0,0.0,0.0,0.0,0.0,0.0,0.0,0.0,0.0,0.0,0.0,0.0,0.0,0.0,0.0,0.0,0.0,0.0,0.0,0.0,0.0,2.5045,2.4961,2.4962,2.466,0.0,0.0,0.0,0.0,0.0,0.0,0.0,0.0,0.0,0.0,0.0,0.0,0.0,0.0,0.0,0.0,0.0,0.0,0.0,0.0,0.0,0.0,0.0,0.0,0.0,0.0,0.0,0.0,0.0,0.0,0.0,0.0,0.0,0.0,0.0,0.0,0.0,0.0,0.0,0.0,0.0,0.0,0.0,0.0,0.0,0.0,0.0,0.0,0.0,0.0,0.0,0.0,0.0,0.0,0.0,0.0,0.0,0.0,0.0,0.0,0.0,0.0,0.0,0.0,0.0,0.0,0.0,0.0,0.0,0.0,0.0,0.0,0.0,0.0,0.0,0.0,0.0,0.0,0.0,0.0,0.0,0.0,0.0,0.0,0.0,0.0,0.0,0.0,0.0,0.0,0.0,0.0,0.0,0.0,0.0,0.0,0.0,0.0,0.0,0.0,0.0,0.0,0.0,0.0,0.0,0.0,0.0,0.0,0.0,0.0,0.0,2.4593,2.4628,2.4589,0.0,2.2462,0.0,0.0,0.0,0.0,0.0,0.0,0.0,0.0,0.0,0.0,0.0,0.0,0.0,0.0,0.0,0.0,0.0,0.0,0.0,0.0,0.0,0.0,0.0,0.0,0.0,0.0,0.0,0.0,0.0,0.0,0.0,0.0,0.0,0.0,0.0,0.0,0.0,0.0,0.0,0.0,0.0,0.0,0.0,0.0,0.0,0.0,0.0,0.0,0.0,0.0,0.0,0.0,0.0,0.0,0.0,0.0,0.0,0.0,0.0,0.0,0.0,0.0,0.0,0.0,0.0,0.0,0.0,0.0,0.0,0.0,0.0,0.0,0.0,0.0,0.0,0.0,0.0,0.0,0.0,0.0,0.0,0.0,0.0,0.0,0.0,0.0,0.0,0.0,0.0,0.0,0.0,0.0,0.0,0.0,0.0,0.0,0.0,0.0,0.0,0.0,0.0,0.0,0.0,0.0,0.0,0.0,0.0,0.0,0.0,0.0,0.0,0.0,2.1171,2.1019,2.0639,0.0,0.0,0.0,0.0,0.0,0.0,0.0,0.0,0.0,0.0,0.0,0.0,0.0,0.0,0.0,0.0,0.0,0.0,0.0,0.0,0.0,0.0,0.0,0.0,0.0,0.0,0.0,0.0,0.0,0.0,0.0,0.0,0.0,0.0,0.0,0.0,0.0,0.0,0.0,0.0,0.0,0.0,0.0,0.0,0.0,0.0,0.0,0.0,0.0,0.0,0.0,0.0,0.0,0.0,0.0,0.0,0.0,0.0,0.0,0.0,0.0,0.0,0.0,0.0,0.0,0.0,0.0,0.0,0.0,0.0,0.0,0.0,0.0,0.0,0.0,0.0,0.0,0.0,0.0,0.0,0.0,0.0,0.0,0.0,0.0,0.0,0.0,0.0,0.0,0.0,0.0,0.0,0.0,0.0,0.0,0.0,0.0,0.0,0.0,0.0,0.0,0.0,0.0,0.0,0.0,0.0,0.0,0.0,0.0,0.0,2.0069,2.0069,2.0069,2.0069,2.0069,0.0,0.0,0.0,0.0,0.0,0.0,0.0,0.0,0.0,0.0,0.0,0.0,0.0,0.0,0.0,0.0,0.0,0.0,0.0,0.0,0.0,0.0,0.0,0.0,0.0,0.0,0.0,0.0,0.0,0.0,0.0,0.0,0.0,0.0,0.0,0.0,0.0,0.0,0.0,0.0,0.0,0.0,0.0,0.0,0.0,0.0,0.0,0.0,0.0,0.0,0.0,0.0,0.0,0.0,0.0,0.0,0.0,0.0,0.0,0.0,0.0,0.0,0.0,0.0,0.0,0.0,0.0,0.0,0.0,0.0,0.0,0.0,0.0,0.0,0.0,0.0,0.0,0.0,0.0,0.0,0.0,0.0,0.0,0.0,0.0,0.0,0.0,0.0,0.0,0.0,0.0,0.0,0.0,0.0,0.0,0.0,0.0,0.0,0.0,0.0,0.0,0.0,0.0,0.0,0.0,0.0,0.0,0.0,0.0,0.0,0.0,0.0,0.0,0.0,2.0067,0.0,0.0,0.0,0.0,0.0,0.0,0.0,0.0,0.0,0.0,0.0,0.0,0.0,0.0,0.0,0.0,0.0,0.0,0.0,0.0,0.0,0.0,0.0,0.0,0.0,0.0,0.0,0.0,0.0,0.0,0.0,0.0,0.0,0.0,0.0,0.0,0.0,0.0,0.0,0.0,0.0,0.0,0.0,0.0,0.0,0.0,0.0,0.0,0.0,0.0,0.0,0.0,0.0,0.0,0.0,0.0,0.0,0.0,0.0,0.0,0.0,0.0,0.0,0.0,0.0,0.0,0.0,0.0,0.0,0.0,0.0,0.0,0.0,0.0,0.0,0.0,0.0,0.0,0.0,0.0,0.0,0.0,0.0,0.0,0.0,0.0,0.0,0.0,0.0,0.0,0.0,0.0,0.0,0.0,0.0,0.0,0.0,0.0,0.0,0.0,0.0,0.0,0.0,0.0,0.0,0.0,0.0,0.0,0.0,0.0,0.0,0.0,0.0,0.0,0.0,0.0,0.0,0.0,0.0,0.0,0.0,0.0,0.0,0.0,0.0,0.0,0.0,0.0,0.0,0.0,0.0,0.0,0.0,0.0,0.0,0.0,0.0,0.0,0.0,0.0,0.0,0.0,0.0,0.0,0.0,0.0,0.0,0.0,0.0,0.0,0.0,0.0,0.0,0.0,0.0,0.0,0.0,0.0,0.0,0.0,0.0,0.0,0.0,0.0,0.0,0.0,0.0,0.0,0.0,0.0,0.0,0.0,0.0,0.0,0.0,0.0,0.0,0.0,0.0,0.0,0.0,0.0,0.0,0.0,0.0,0.0,0.0,0.0,0.0,0.0,0.0,0.0,0.0,0.0,0.0,0.0,0.0,0.0,0.0,0.0,0.0,0.0,0.0,0.0,0.0,0.0,0.0,0.0,0.0,0.0,0.0,0.0,0.0,0.0,0.0,0.0,0.0,0.0,0.0,0.0,0.0,0.0,0.0,0.0,0.0,0.0,0.0,0.0,0.0,0.0,0.0,0.0,0.0,0.0,0.0,0.0,0.0,0.0,0.0,0.0,0.0,0.0,0.0,0.0,0.0,0.0,0.0,0.0,0.0,0.0,0.0,0.0,0.0,0.0,0.0,0.0,0.0,0.0,0.0,0.0,0.0,0.0,0.0,0.0,0.0,0.0,0.0,0.0,0.0,0.0,0.0,0.0,0.0,0.0,0.0,0.0,0.0,0.0,0.0,0.0,0.0,0.0,0.0,0.0,0.0,0.0,0.0,0.0,0.0,0.0,0.0,0.0,0.0,0.0,0.0,0.0,0.0,0.0,0.0,0.0,0.0,0.0,0.0,0.0,0.0,0.0,0.0,0.0,0.0,0.0,0.0,0.0,0.0,0.0,0.0,0.0,0.0,0.0,0.0,0.0,0.0,0.0,0.0,0.0,0.0,0.0,0.0,0.0,0.0,0.0,0.0,0.0,0.0,0.0,0.0,0.0,0.0,0.0,0.0,0.0,0.0,0.0,0.0,0.0,0.0,0.0,0.0,0.0,0.0,0.0,0.0,0.0,0.0,0.0,0.0,0.0,0.0,0.0,0.0,0.0,0.0,0.0,0.0,0.0,0.0,0.0,0.0,0.0,0.0,0.0,0.0,0.0,0.0,0.0,0.0,0.0,0.0,0.0,0.0,0.0,0.0,0.0,0.0,0.0,0.0,0.0,0.0,0.0,0.0,0.0,0.0,0.0,0.0,0.0,0.0,0.0,0.0,0.0,0.0,0.0,0.0,0.0,0.0,0.0,0.0,0.0,0.0,0.0,0.0,0.0,0.0,0.0,0.0,0.0,0.0,0.0,0.0,0.0,0.0,0.0,0.0,0.0,0.0,0.0,0.0,0.0,0.0,0.0,0.0,0.0,0.0,0.0,0.0,0.0,0.0,0.0,0.0,0.0,0.0,0.0,0.0,0.0,0.0,0.0,0.0,0.0,0.0,0.0,0.0,0.0,0.0,0.0,0.0,0.0,0.0,0.0,0.0,0.0,0.0,0.0,0.0,0.0,0.0,0.0,0.0,0.0,0.0,0.0,0.0,0.0,0.0,0.0,0.0,0.0,0.0,0.0,0.0,0.0,0.0,0.0,0.0,0.0,0.0,0.0,0.0,0.0,0.0,0.0,0.0,0.0,0.0,0.0,0.0,0.0,0.0,0.0,0.0,0.0,0.0,0.0,0.0,0.0,0.0,0.0,0.0,0.0,0.0,0.0,0.0,0.0,0.0,0.0,0.0,0.0,0.0,0.0,0.0,0.0,0.0,0.0,0.0,0.0,0.0,0.0,0.0,0.0,0.0,0.0,0.0,0.0,0.0,0.0,0.0,0.0,0.0,0.0,0.0,0.0,0.0,0.0,0.0,0.0,0.0,0.0,0.0,0.0,0.0,0.0,0.0,0.0,0.0,0.0,0.0,0.0,0.0,0.0,0.0,0.0,0.0,0.0,0.0,0.0,0.0,0.0,0.0,0.0,0.0,0.0,0.0,0.0,0.0,0.0,0.0,0.0,0.0,0.0,0.0,0.0,0.0,0.0,0.0,0.0,0.0,0.0,0.0,0.0,0.0,0.0,0.0,0.0,0.0,0.0,0.0,0.0,0.0,0.0,0.0,0.0,0.0,0.0,0.0,0.0,0.0,0.0,0.0,0.0,0.0,0.0,0.0,0.0,0.0,0.0,0.0,0.0,0.0,0.0,0.0,0.0,0.0,0.0,0.0,0.0,0.0,0.0,0.0,0.0,0.0,0.0,0.0,0.0,0.0,0.0,0.0,0.0,0.0,0.0,0.0,0.0,0.0,0.0,0.0,0.0,0.0,0.0,0.0,0.0,0.0,0.0,0.0,0.0,0.0,0.0,0.0,0.0,0.0,0.0,0.0,0.0,0.0,0.0,0.0,0.0,0.0,0.0,0.0,0.0,0.0,0.0,0.0,0.0,0.0,0.0,0.0,0.0,0.0,0.0,0.0,0.0,0.0,0.0,0.0,0.0,0.0,0.0,0.0,0.0,0.0,0.0,0.0,0.0,0.0,0.0,0.0,0.0,0.0,0.0,0.0,0.0,0.0,0.0,0.0,0.0,0.0,0.0,0.0,0.0,0.0,0.0,0.0,0.0,0.0,0.0,0.0,0.0,0.0,0.0,0.0,0.0,0.0,0.0,0.0,0.0,0.0,0.0,0.0,0.0,0.0,0.0,0.0,0.0,0.0,0.0,0.0,0.0,0.0,0.0,0.0,0.0,0.0,0.0,0.0,0.0,0.0,0.0,0.0,0.0,0.0,0.0,0.0,0.0,0.0,0.0,0.0,0.0,0.0,0.0,0.0,0.0,0.0,0.0,0.0,0.0,0.0,0.0,0.0,0.0,0.0,0.0,0.0,0.0,0.0,0.0,0.0,0.0,0.0,0.0,0.0,0.0,0.0,0.0,0.0,0.0,0.0,0.0,0.0,0.0,0.0,0.0,0.0,0.0,0.0,0.0,0.0,0.0,0.0,0.0,0.0,0.0,0.0,0.0,0.0,0.0,0.0,0.0,0.0,0.0,0.0,0.0,0.0,0.0,0.0,0.0,0.0,0.0,0.0,0.0,0.0,0.0,0.0,0.0,0.0,0.0,0.0,0.0,0.0,0.0,0.0,0.0,0.0,0.0,0.0,0.0,0.0,0.0,0.0,0.0,0.0,0.0,0.0,0.0,0.0,0.0,0.0,0.0,0.0,0.0,0.0,0.0,0.0,0.0,0.0,0.0,0.0,0.0,0.0,0.0,0.0,0.0,0.0,0.0,0.0,0.0,0.0,0.0,0.0,0.0,0.0,0.0,0.0,0.0,0.0,0.0,0.0,0.0,0.0,0.0,0.0,0.0,0.0,0.0,0.0,0.0,0.0,0.0,0.0,0.0,0.0,0.0,0.0,0.0,0.0,0.0,0.0,0.0,0.0,0.0,0.0,0.0,0.0,0.0,0.0,0.0,0.0,0.0,0.0,0.0,0.0,0.0,0.0,0.0,0.0,0.0,0.0,0.0,0.0,0.0,0.0,0.0,0.0,0.0,0.0,0.0,0.0,0.0,0.0,0.0,0.0,0.0,0.0,0.0,0.0,0.0,0.0,0.0,0.0,0.0,0.0,0.0,0.0,0.0,0.0,0.0,0.0,0.0,0.0,0.0,0.0,0.0,0.0,0.0,0.0,0.0,0.0,0.0,0.0,0.0,0.0,0.0,0.0,0.0,0.0,0.0,0.0,0.0,0.0,0.0,0.0,0.0,0.0,0.0,0.0,0.0,0.0,0.0,0.0,0.0,0.0,0.0,0.0,0.0,0.0,0.0,0.0,0.0,0.0,0.0,0.0,0.0]}]]]